[[{"header":{"parameterUnit":"m.s-1","parameterCategory":1,"la1":30.6,"la2":28.766,"lo1":-90.7593,"lo2":-88.6598,"dy":0.0162,"dx":0.0183,"nx":116,"ny":114,"refTime":"2023-05-02T18:00:00:Z","depth":0,"parameterNumber":2,"parameterNumberName":"U-component_of_WINDS"},"data":[0.0,0.0,0.0,0.0,0.0,0.0,0.0,0.0,0.0,0.0,0.0,0.0,0.0,0.0,0.0,0.0,0.0,0.0,0.0,0.0,0.0,0.0,0.0,0.0,0.0,0.0,0.0,0.0,0.0,0.0,0.0,0.0,0.0,0.0,0.0,0.0,0.0,0.0,0.0,0.0,0.0,0.0,0.0,0.0,0.0,0.0,0.0,0.0,0.0,0.0,0.0,0.0,0.0,0.0,0.0,0.0,0.0,0.0,0.0,0.0,0.0,0.0,0.0,0.0,0.0,0.0,0.0,0.0,0.0,0.0,0.0,0.0,0.0,0.0,0.0,0.0,0.0,0.0,0.0,0.0,0.0,0.0,0.0,0.0,0.0,0.0,0.0,0.0,0.0,0.0,0.0,0.0,0.0,0.0,0.0,0.0,0.0,0.0,0.0,0.0,0.0,0.0,0.0,0.0,0.0,0.0,0.0,0.0,0.0,0.0,0.0,0.0,0.0,0.0,0.0,0.0,0.0,0.0,0.0,0.0,0.0,0.0,0.0,0.0,0.0,0.0,0.0,0.0,0.0,0.0,0.0,0.0,0.0,0.0,0.0,0.0,0.0,0.0,0.0,0.0,0.0,0.0,0.0,0.0,0.0,0.0,0.0,0.0,0.0,0.0,0.0,0.0,0.0,0.0,0.0,0.0,0.0,0.0,0.0,0.0,0.0,0.0,0.0,0.0,0.0,0.0,0.0,0.0,0.0,0.0,0.0,0.0,0.0,0.0,0.0,0.0,0.0,0.0,0.0,0.0,0.0,0.0,0.0,0.0,0.0,0.0,0.0,0.0,0.0,0.0,0.0,0.0,0.0,0.0,0.0,0.0,0.0,0.0,0.0,0.0,0.0,0.0,0.0,0.0,0.0,0.0,0.0,0.0,0.0,0.0,0.0,0.0,0.0,0.0,0.0,0.0,0.0,0.0,0.0,0.0,0.0,0.0,0.0,0.0,0.0,0.0,0.0,0.0,0.0,0.0,0.0,0.0,0.0,0.0,0.0,0.0,0.0,0.0,0.0,0.0,0.0,0.0,0.0,0.0,0.0,0.0,0.0,0.0,0.0,0.0,0.0,0.0,0.0,0.0,0.0,0.0,0.0,0.0,0.0,0.0,0.0,0.0,0.0,0.0,0.0,0.0,0.0,0.0,0.0,0.0,0.0,0.0,0.0,0.0,0.0,0.0,0.0,0.0,0.0,0.0,0.0,0.0,0.0,0.0,0.0,0.0,0.0,0.0,0.0,0.0,0.0,0.0,0.0,0.0,0.0,0.0,0.0,0.0,0.0,0.0,0.0,0.0,0.0,0.0,0.0,0.0,0.0,0.0,0.0,0.0,0.0,0.0,0.0,0.0,0.0,0.0,0.0,0.0,0.0,0.0,0.0,0.0,0.0,0.0,0.0,0.0,0.0,0.0,0.0,0.0,0.0,0.0,0.0,0.0,0.0,0.0,0.0,0.0,0.0,0.0,0.0,0.0,0.0,0.0,0.0,0.0,0.0,0.0,0.0,0.0,0.0,0.0,0.0,0.0,0.0,0.0,0.0,0.0,0.0,0.0,0.0,0.0,0.0,0.0,0.0,0.0,0.0,0.0,0.0,0.0,0.0,0.0,0.0,0.0,0.0,0.0,0.0,0.0,0.0,0.0,0.0,0.0,0.0,0.0,0.0,0.0,0.0,0.0,0.0,0.0,0.0,0.0,0.0,0.0,0.0,0.0,0.0,0.0,0.0,0.0,0.0,0.0,0.0,0.0,0.0,0.0,0.0,0.0,0.0,0.0,0.0,0.0,0.0,0.0,0.0,0.0,0.0,0.0,0.0,0.0,0.0,0.0,0.0,0.0,0.0,0.0,0.0,0.0,0.0,0.0,0.0,0.0,0.0,0.0,0.0,0.0,0.0,0.0,0.0,0.0,0.0,0.0,0.0,0.0,0.0,0.0,0.0,0.0,0.0,0.0,0.0,0.0,0.0,0.0,0.0,0.0,0.0,0.0,0.0,0.0,0.0,0.0,0.0,0.0,0.0,0.0,0.0,0.0,0.0,0.0,0.0,0.0,0.0,0.0,0.0,0.0,0.0,0.0,0.0,0.0,0.0,0.0,0.0,0.0,0.0,0.0,0.0,0.0,0.0,0.0,0.0,0.0,0.0,0.0,0.0,0.0,0.0,0.0,0.0,0.0,0.0,0.0,0.0,0.0,0.0,0.0,0.0,0.0,0.0,0.0,0.0,0.0,0.0,0.0,0.0,0.0,0.0,0.0,0.0,0.0,0.0,0.0,0.0,0.0,0.0,0.0,0.0,0.0,0.0,0.0,0.0,0.0,0.0,0.0,0.0,0.0,0.0,0.0,0.0,0.0,0.0,0.0,0.0,0.0,0.0,0.0,0.0,0.0,0.0,0.0,0.0,0.0,0.0,0.0,0.0,0.0,0.0,0.0,0.0,0.0,0.0,0.0,0.0,0.0,0.0,0.0,0.0,0.0,0.0,0.0,0.0,0.0,0.0,0.0,0.0,0.0,0.0,0.0,0.0,0.0,0.0,0.0,0.0,0.0,0.0,0.0,0.0,0.0,0.0,0.0,0.0,0.0,0.0,0.0,0.0,0.0,0.0,0.0,0.0,0.0,0.0,0.0,0.0,0.0,0.0,0.0,0.0,0.0,0.0,0.0,0.0,0.0,0.0,0.0,0.0,0.0,0.0,0.0,0.0,0.0,0.0,0.0,0.0,0.0,0.0,0.0,0.0,0.0,0.0,0.0,0.0,0.0,0.0,0.0,0.0,0.0,0.0,0.0,0.0,0.0,0.0,0.0,0.0,0.0,0.0,0.0,0.0,0.0,0.0,0.0,0.0,0.0,0.0,0.0,0.0,0.0,0.0,0.0,0.0,0.0,0.0,0.0,0.0,0.0,0.0,0.0,0.0,0.0,0.0,0.0,0.0,0.0,0.0,0.0,0.0,0.0,0.0,0.0,0.0,0.0,0.0,0.0,0.0,0.0,0.0,0.0,0.0,0.0,0.0,0.0,0.0,0.0,0.0,0.0,0.0,0.0,0.0,0.0,0.0,0.0,0.0,0.0,0.0,0.0,0.0,0.0,0.0,0.0,0.0,0.0,0.0,0.0,0.0,0.0,0.0,0.0,0.0,0.0,0.0,0.0,0.0,0.0,0.0,0.0,0.0,0.0,0.0,0.0,0.0,0.0,0.0,0.0,0.0,0.0,0.0,0.0,0.0,0.0,0.0,0.0,0.0,0.0,0.0,0.0,0.0,0.0,0.0,0.0,0.0,0.0,0.0,0.0,0.0,0.0,0.0,0.0,0.0,0.0,0.0,0.0,0.0,0.0,0.0,0.0,0.0,0.0,0.0,0.0,0.0,0.0,0.0,0.0,0.0,0.0,0.0,0.0,0.0,0.0,0.0,0.0,0.0,0.0,0.0,0.0,0.0,0.0,0.0,0.0,0.0,0.0,0.0,0.0,0.0,0.0,0.0,0.0,0.0,0.0,0.0,0.0,0.0,0.0,0.0,0.0,0.0,0.0,0.0,0.0,0.0,0.0,0.0,0.0,0.0,0.0,0.0,0.0,0.0,0.0,0.0,0.0,0.0,0.0,0.0,0.0,0.0,0.0,0.0,0.0,0.0,0.0,0.0,0.0,0.0,0.0,0.0,0.0,0.0,0.0,0.0,0.0,0.0,0.0,0.0,0.0,0.0,0.0,0.0,0.0,0.0,0.0,0.0,0.0,0.0,0.0,0.0,0.0,0.0,0.0,0.0,0.0,0.0,0.0,0.0,0.0,0.0,0.0,0.0,0.0,0.0,0.0,0.0,0.0,0.0,0.0,0.0,0.0,0.0,0.0,0.0,0.0,0.0,0.0,0.0,0.0,0.0,0.0,0.0,0.0,0.0,0.0,0.0,0.0,0.0,0.0,0.0,0.0,0.0,0.0,0.0,0.0,0.0,0.0,0.0,0.0,0.0,0.0,0.0,0.0,0.0,0.0,0.0,0.0,0.0,0.0,0.0,0.0,0.0,0.0,0.0,0.0,0.0,0.0,0.0,0.0,0.0,0.0,0.0,0.0,0.0,0.0,0.0,0.0,0.0,0.0,0.0,0.0,0.0,0.0,0.0,0.0,0.0,0.0,0.0,0.0,0.0,0.0,0.0,0.0,0.0,0.0,0.0,0.0,0.0,0.0,0.0,0.0,0.0,0.0,0.0,0.0,0.0,0.0,0.0,0.0,0.0,0.0,0.0,0.0,0.0,0.0,0.0,0.0,0.0,0.0,0.0,0.0,0.0,0.0,0.0,0.0,0.0,0.0,0.0,0.0,0.0,0.0,0.0,0.0,0.0,0.0,0.0,0.0,0.0,0.0,0.0,0.0,0.0,0.0,0.0,0.0,0.0,0.0,0.0,0.0,0.0,0.0,0.0,0.0,0.0,0.0,0.0,0.0,0.0,0.0,0.0,0.0,0.0,0.0,0.0,0.0,0.0,0.0,0.0,0.0,0.0,0.0,0.0,0.0,0.0,0.0,0.0,0.0,0.0,0.0,0.0,0.0,0.0,0.0,0.0,0.0,0.0,0.0,0.0,0.0,0.0,0.0,0.0,0.0,0.0,0.0,0.0,0.0,0.0,0.0,0.0,0.0,0.0,0.0,0.0,0.0,0.0,0.0,0.0,0.0,0.0,0.0,0.0,0.0,0.0,0.0,0.0,0.0,0.0,0.0,0.0,0.0,0.0,0.0,0.0,0.0,0.0,0.0,0.0,0.0,0.0,0.0,0.0,0.0,0.0,0.0,0.0,0.0,0.0,0.0,0.0,0.0,0.0,0.0,0.0,0.0,0.0,0.0,0.0,0.0,0.0,0.0,0.0,0.0,0.0,0.0,0.0,0.0,0.0,0.0,0.0,0.0,0.0,0.0,0.0,0.0,0.0,0.0,0.0,0.0,0.0,0.0,0.0,0.0,0.0,0.0,0.0,0.0,0.0,0.0,0.0,0.0,0.0,0.0,0.0,0.0,0.0,0.0,0.0,0.0,0.0,0.0,0.0,0.0,0.0,0.0,0.0,0.0,0.0,0.0,0.0,0.0,0.0,0.0,0.0,0.0,0.0,0.0,0.0,0.0,0.0,0.0,0.0,0.0,0.0,0.0,0.0,0.0,0.0,0.0,0.0,0.0,0.0,0.0,0.0,0.0,0.0,0.0,0.0,0.0,0.0,0.0,0.0,0.0,0.0,0.0,0.0,0.0,0.0,0.0,0.0,0.0,0.0,0.0,0.0,0.0,0.0,0.0,0.0,0.0,0.0,0.0,0.0,0.0,0.0,0.0,0.0,0.0,0.0,0.0,0.0,0.0,0.0,0.0,0.0,0.0,0.0,0.0,0.0,0.0,0.0,0.0,0.0,0.0,0.0,0.0,0.0,0.0,0.0,0.0,0.0,0.0,0.0,0.0,0.0,0.0,0.0,0.0,0.0,0.0,0.0,0.0,0.0,0.0,0.0,0.0,0.0,0.0,0.0,0.0,0.0,0.0,0.0,0.0,0.0,0.0,0.0,0.0,0.0,0.0,0.0,0.0,0.0,0.0,0.0,0.0,0.0,0.0,0.0,0.0,0.0,0.0,0.0,0.0,0.0,0.0,0.0,0.0,0.0,0.0,0.0,0.0,0.0,0.0,0.0,0.0,0.0,0.0,0.0,0.0,0.0,0.0,0.0,0.0,0.0,0.0,0.0,0.0,0.0,0.0,0.0,0.0,0.0,0.0,0.0,0.0,0.0,0.0,0.0,0.0,0.0,0.0,0.0,0.0,0.0,0.0,0.0,0.0,0.0,0.0,0.0,0.0,0.0,0.0,0.0,0.0,0.0,0.0,0.0,0.0,0.0,0.0,0.0,0.0,0.0,0.0,0.0,0.0,0.0,0.0,0.0,0.0,0.0,0.0,0.0,0.0,0.0,0.0,0.0,0.0,0.0,0.0,0.0,0.0,0.0,0.0,0.0,0.0,0.0,0.0,0.0,0.0,0.0,0.0,0.0,0.0,0.0,0.0,0.0,0.0,0.0,0.0,0.0,0.0,0.0,0.0,-2.9331,0.0,0.0,0.0,0.0,0.0,0.0,0.0,0.0,0.0,0.0,0.0,0.0,0.0,0.0,0.0,0.0,0.0,0.0,0.0,0.0,0.0,0.0,0.0,0.0,0.0,0.0,0.0,0.0,0.0,0.0,0.0,0.0,0.0,0.0,0.0,0.0,0.0,0.0,0.0,0.0,0.0,0.0,0.0,0.0,0.0,0.0,0.0,0.0,0.0,0.0,0.0,0.0,0.0,0.0,0.0,0.0,0.0,0.0,0.0,0.0,0.0,0.0,0.0,0.0,0.0,0.0,0.0,0.0,0.0,0.0,0.0,0.0,0.0,0.0,0.0,0.0,0.0,0.0,0.0,0.0,0.0,0.0,0.0,0.0,0.0,0.0,0.0,0.0,0.0,0.0,0.0,0.0,0.0,0.0,0.0,0.0,0.0,0.0,0.0,0.0,0.0,0.0,0.0,0.0,0.0,0.0,0.0,0.0,0.0,0.0,0.0,0.0,0.0,0.0,0.0,0.0,-3.0512,0.0,0.0,0.0,0.0,0.0,0.0,0.0,0.0,0.0,0.0,0.0,0.0,0.0,0.0,0.0,0.0,0.0,0.0,0.0,0.0,0.0,0.0,0.0,0.0,0.0,0.0,0.0,0.0,0.0,0.0,0.0,0.0,0.0,0.0,0.0,0.0,0.0,0.0,0.0,0.0,0.0,0.0,0.0,0.0,0.0,0.0,0.0,0.0,0.0,0.0,0.0,0.0,0.0,0.0,0.0,0.0,0.0,0.0,0.0,0.0,0.0,0.0,0.0,0.0,0.0,0.0,0.0,0.0,0.0,0.0,0.0,0.0,0.0,0.0,0.0,0.0,0.0,0.0,0.0,0.0,0.0,0.0,0.0,0.0,0.0,0.0,0.0,0.0,0.0,0.0,0.0,0.0,0.0,0.0,0.0,0.0,0.0,0.0,0.0,0.0,0.0,0.0,0.0,0.0,0.0,0.0,0.0,0.0,-3.0695,-3.109,-3.1057,-3.1862,-3.217,-3.2039,-3.2391,-3.2335,-3.2041,-3.2975,0.0,0.0,0.0,0.0,0.0,0.0,0.0,0.0,0.0,0.0,0.0,0.0,0.0,0.0,0.0,0.0,0.0,0.0,0.0,0.0,0.0,0.0,-3.5209,-3.5209,-3.5209,-3.5209,0.0,0.0,0.0,0.0,0.0,0.0,0.0,0.0,0.0,0.0,0.0,0.0,-3.3024,-3.3024,-3.3024,-3.31,-3.4552,0.0,0.0,0.0,0.0,0.0,0.0,0.0,0.0,0.0,0.0,0.0,0.0,0.0,0.0,0.0,0.0,0.0,0.0,0.0,0.0,0.0,0.0,0.0,0.0,0.0,0.0,0.0,0.0,0.0,0.0,0.0,0.0,0.0,0.0,0.0,0.0,0.0,0.0,0.0,0.0,0.0,0.0,0.0,-2.9431,-2.9409,0.0,0.0,0.0,0.0,0.0,0.0,0.0,0.0,0.0,0.0,0.0,0.0,0.0,-2.9419,-2.9419,-3.0717,-3.1388,-3.1406,-3.2908,-3.3592,-3.3552,-3.4428,-3.4713,-3.4582,-3.5482,0.0,-3.3603,-3.4705,0.0,0.0,0.0,0.0,0.0,0.0,0.0,0.0,0.0,0.0,0.0,0.0,0.0,0.0,0.0,0.0,0.0,0.0,0.0,0.0,0.0,-3.516,-3.5134,-3.5134,-3.5134,-3.5134,0.0,0.0,0.0,0.0,0.0,0.0,0.0,0.0,0.0,0.0,-3.289,-3.2699,-3.2699,-3.2699,-3.2699,-3.2737,-3.3463,-3.3788,-3.3826,-3.4312,0.0,0.0,0.0,0.0,0.0,0.0,0.0,0.0,0.0,0.0,0.0,0.0,0.0,0.0,0.0,0.0,0.0,0.0,0.0,0.0,0.0,0.0,0.0,0.0,0.0,0.0,0.0,0.0,0.0,0.0,0.0,0.0,0.0,0.0,0.0,0.0,0.0,0.0,0.0,-2.9748,-2.9399,-2.9407,-2.9396,-2.9396,0.0,0.0,0.0,0.0,0.0,0.0,0.0,0.0,0.0,-3.0065,-3.0511,-3.0976,-3.1422,-3.2539,-3.3103,-3.3121,-3.4284,-3.48,-3.4758,-3.5591,-3.592,-3.5845,-3.6768,-3.6726,-3.6003,-3.6001,-3.6287,-3.6701,0.0,0.0,0.0,0.0,-3.6733,-3.6642,0.0,0.0,0.0,0.0,0.0,0.0,0.0,0.0,0.0,0.0,0.0,0.0,-3.5176,-3.5091,-3.5057,-3.5057,-3.5057,-3.5066,-3.5092,0.0,0.0,0.0,0.0,0.0,0.0,0.0,0.0,-3.205,-3.205,-3.205,-3.2069,-3.2035,-3.2035,-3.2069,-3.2004,-3.2252,-3.2726,-3.3363,-3.3622,0.0,0.0,0.0,0.0,0.0,0.0,0.0,0.0,0.0,0.0,0.0,0.0,0.0,0.0,0.0,0.0,0.0,0.0,0.0,0.0,0.0,0.0,0.0,0.0,0.0,0.0,0.0,0.0,0.0,0.0,0.0,0.0,0.0,0.0,0.0,0.0,0.0,0.0,-2.9818,-2.9396,-2.9396,-2.9396,-2.9396,0.0,0.0,0.0,0.0,0.0,0.0,-2.9712,-3.0103,-3.0604,-3.1199,-3.1998,-3.2704,-3.3287,-3.4327,-3.4829,-3.4847,-3.586,-3.6348,-3.6366,-3.6978,-3.7219,-3.7251,-3.7854,-3.81,-3.8049,-3.7349,-3.7091,-3.7156,-3.71,-3.7142,-3.7201,-3.7173,-3.7137,-3.7086,0.0,0.0,0.0,0.0,0.0,0.0,0.0,0.0,0.0,0.0,0.0,-3.512,-3.512,-3.4992,-3.4917,-3.4917,-3.4917,-3.4955,-3.5084,-3.5101,0.0,0.0,0.0,0.0,0.0,0.0,0.0,-3.0319,-3.0319,-3.0319,-3.0319,-3.0254,-3.0254,-3.0319,-3.0136,-3.1005,-3.2608,-3.2646,-3.2604,-3.2564,0.0,0.0,0.0,0.0,0.0,0.0,0.0,0.0,0.0,0.0,0.0,0.0,0.0,0.0,0.0,0.0,0.0,0.0,0.0,0.0,0.0,0.0,0.0,0.0,0.0,0.0,0.0,0.0,0.0,0.0,0.0,0.0,0.0,0.0,0.0,0.0,0.0,0.0,0.0,-2.9396,-2.9396,0.0,0.0,0.0,0.0,-2.9396,-3.0103,-3.053,-3.053,-3.1998,-3.2853,-3.289,-3.3658,-3.4104,-3.4141,-3.5757,-3.6569,-3.6593,-3.8154,-3.9011,-3.9195,-3.9232,-3.9327,-3.9439,-3.9276,-3.9229,-3.9203,-3.8896,-3.8962,-3.9251,-3.9251,-3.9413,-3.961,-3.9543,-3.9406,-3.9219,0.0,0.0,0.0,0.0,0.0,0.0,0.0,0.0,0.0,-3.5019,-3.5056,-3.5066,-3.4992,-3.4888,-3.483,-3.483,-3.483,-3.4868,-3.4907,0.0,0.0,0.0,0.0,0.0,0.0,0.0,-3.0651,-3.014,-3.0061,-3.0011,-3.0011,-2.998,-2.998,-3.0003,-2.9921,-3.0229,-3.0846,-3.1436,-3.1672,-3.1703,-3.2562,-3.2947,0.0,0.0,0.0,0.0,0.0,0.0,0.0,0.0,0.0,0.0,0.0,0.0,0.0,0.0,0.0,0.0,0.0,0.0,0.0,0.0,0.0,0.0,0.0,0.0,0.0,0.0,0.0,0.0,0.0,0.0,0.0,0.0,0.0,0.0,0.0,0.0,0.0,-2.9396,-2.9396,0.0,-3.0121,-3.0158,-3.0381,-3.0902,-3.1218,-3.1608,-3.2128,-3.2704,-3.3503,-3.4581,-3.5398,-3.6055,-3.6575,-3.7866,-3.8413,-3.826,-3.9083,-3.9364,-3.9142,-3.9452,-3.9445,-3.9227,-3.9357,-3.9337,-3.9151,-3.9073,-3.9045,-3.9073,-3.9073,-3.9137,-3.9208,-3.9181,-3.9137,-3.9073,0.0,0.0,0.0,0.0,0.0,0.0,0.0,0.0,0.0,-3.4983,-3.4993,-3.4955,-3.4888,-3.478,-3.4737,-3.4737,-3.4737,-3.4749,-3.482,0.0,0.0,0.0,0.0,0.0,0.0,-3.1304,-3.0834,-3.0877,-3.0793,-3.0873,-3.1157,-3.1407,-3.1539,-3.1565,-3.122,-3.092,-3.0657,-3.0992,-3.0953,-3.0775,-3.1624,-3.2008,-3.2182,0.0,0.0,0.0,0.0,0.0,0.0,0.0,0.0,0.0,0.0,0.0,0.0,0.0,0.0,0.0,0.0,0.0,0.0,0.0,0.0,0.0,0.0,0.0,0.0,0.0,0.0,0.0,0.0,0.0,0.0,0.0,0.0,0.0,0.0,0.0,-2.9489,-2.9768,-2.9805,-3.0233,-3.131,-3.1403,-3.1738,-3.2555,-3.289,-3.328,-3.3819,-3.4086,-3.4767,-3.5882,-3.6478,-3.7056,-3.7597,-3.8363,-3.8764,-3.8809,-3.9069,-3.9201,-3.9183,-3.9501,-3.9494,-3.9279,-3.9433,-3.9401,-3.9232,-3.9142,-3.9045,-3.8964,-3.8964,-3.895,-3.8935,-3.905,-3.9007,-3.891,0.0,0.0,0.0,0.0,0.0,0.0,0.0,0.0,0.0,-3.5084,-3.4927,-3.4798,-3.4788,-3.4676,-3.4612,-3.4612,-3.4612,-3.4678,-3.487,-3.4908,0.0,0.0,0.0,0.0,-3.3723,-3.2968,-3.2541,-3.2428,-3.2428,-3.2844,-3.3658,-3.4356,-3.4771,-3.485,-3.3878,-3.3038,-3.2289,-3.1449,-3.0555,-2.9814,-3.0705,-3.1062,-3.1164,0.0,0.0,0.0,0.0,0.0,0.0,0.0,0.0,0.0,0.0,0.0,0.0,0.0,0.0,0.0,0.0,0.0,0.0,0.0,0.0,0.0,0.0,0.0,0.0,0.0,0.0,0.0,0.0,0.0,0.0,0.0,0.0,0.0,-2.944,-2.9446,-2.975,-3.0586,-3.066,-3.131,-3.2927,-3.3076,-3.341,-3.4179,-3.5027,-3.551,-3.551,-3.6253,-3.6699,-3.6749,-3.6937,-3.7057,-3.7087,-3.7292,-3.7697,-3.8283,-3.8307,-3.8751,-3.9577,-3.9602,-3.9696,-3.984,-3.9679,-3.9589,-3.9533,-3.9261,-3.9138,-3.9138,-3.9101,-3.9045,-3.9036,-3.9285,-3.9183,-3.8877,0.0,0.0,0.0,0.0,0.0,0.0,0.0,0.0,-3.5048,-3.4898,-3.4879,-3.4811,-3.4676,-3.4623,-3.4612,-3.4612,-3.4612,-3.4666,-3.4829,0.0,0.0,0.0,0.0,0.0,-3.3774,-3.2751,-3.2553,-3.3195,-3.3155,-3.3539,-3.4329,-3.4524,-3.4636,-3.4668,-3.4379,-3.3857,-3.3156,-3.2911,-3.2024,-3.0755,-3.0335,-3.0182,-3.0318,0.0,0.0,0.0,0.0,0.0,0.0,0.0,0.0,0.0,0.0,0.0,0.0,0.0,0.0,0.0,0.0,0.0,0.0,0.0,0.0,0.0,0.0,0.0,0.0,0.0,0.0,0.0,0.0,0.0,0.0,0.0,0.0,-3.0273,-3.0273,-3.0281,-3.079,-3.2184,-3.2351,-3.3001,-3.4655,-3.4822,-3.4897,-3.5138,-3.5361,-3.551,-3.551,-3.5714,-3.6454,-3.7822,-3.7901,-3.8282,-3.9017,-3.9287,-3.9612,-4.0015,-4.0544,-4.0884,-4.1059,-4.1784,-4.1743,-4.1118,-4.1418,-4.133,-4.0961,-4.0314,-4.003,-3.9974,-3.9342,-3.9087,-3.9073,-3.9156,-3.9087,-3.895,0.0,0.0,0.0,0.0,0.0,0.0,0.0,0.0,-3.5039,-3.4859,-3.4859,-3.4781,-3.4623,-3.4612,-3.4612,-3.4612,-3.4655,-3.4728,-3.483,0.0,0.0,0.0,0.0,-3.4206,-3.4215,-3.3592,-3.3673,-3.4509,-3.4803,-3.5353,-3.616,-3.6528,-3.6697,-3.6678,-3.631,-3.5757,-3.5063,-3.4753,-3.3696,-3.2177,-3.1318,-3.0534,-2.9914,-3.0373,-3.0595,-3.0726,-3.1183,-3.1581,-3.1919,-3.2019,0.0,0.0,0.0,0.0,0.0,0.0,0.0,0.0,0.0,0.0,0.0,0.0,0.0,0.0,0.0,0.0,0.0,0.0,0.0,0.0,0.0,0.0,0.0,0.0,-3.0591,-3.1348,-3.2017,-3.1831,-3.2202,-3.3856,-3.3714,-3.416,-3.5844,-3.5696,-3.564,-3.5974,-3.6309,-3.6513,-3.6513,-3.6609,-3.7174,-3.8256,-3.8493,-3.8862,-3.946,-4.0041,-4.0549,-4.0992,-4.1466,-4.1776,-4.1954,-4.2533,-4.2479,-4.1954,-4.2219,-4.2183,-4.189,-4.1434,-4.1246,0.0,0.0,0.0,0.0,0.0,-3.8993,-3.895,0.0,0.0,0.0,0.0,0.0,0.0,0.0,0.0,-3.5056,-3.4927,-3.4849,-3.4768,-3.4623,-3.4612,-3.4612,-3.4612,-3.4708,-3.482,0.0,0.0,0.0,-3.511,-3.5134,-3.5094,-3.4971,-3.5001,-3.5414,-3.6224,-3.6896,-3.7655,-3.8474,-3.9232,-3.9602,-3.9576,-3.88,-3.8075,-3.7438,-3.6763,-3.5524,-3.3948,-3.3192,-3.171,-2.9957,-2.9846,-2.9808,-2.9816,-2.9857,-3.0373,-3.105,-3.1096,0.0,0.0,0.0,0.0,0.0,0.0,0.0,0.0,0.0,0.0,0.0,0.0,0.0,0.0,0.0,0.0,0.0,0.0,0.0,0.0,0.0,0.0,0.0,0.0,-3.1674,-3.2723,-3.4141,-3.3807,-3.3968,-3.5454,-3.4866,-3.4996,-3.6681,-3.6197,-3.6067,-3.6779,-3.7503,-3.7856,-3.7764,0.0,0.0,0.0,0.0,-3.9334,-3.942,-4.0321,-4.1091,-4.1686,-4.1772,-4.2122,-4.2674,-4.2731,-4.2731,-4.2674,-4.2709,-4.2697,-4.2655,-4.2561,-4.2485,-4.2204,-4.0244,-3.9393,-3.9236,-3.9179,-3.9077,-3.8989,0.0,0.0,0.0,0.0,0.0,0.0,0.0,0.0,0.0,-3.4917,-3.4889,-3.4811,-3.4615,-3.4612,-3.4612,-3.4612,-3.4708,-3.4878,0.0,0.0,-3.5028,-3.5176,-3.4983,-3.5239,-3.5979,-3.5809,-3.6511,-3.8153,-3.8105,-3.8529,-3.9432,-3.9544,-3.9631,-3.9658,-3.945,-3.9033,-3.8506,-3.8302,-3.7347,-3.5876,-3.4975,-3.3147,-3.0854,-3.0088,-2.9808,-2.9799,-2.9737,-2.986,-3.0,-3.0009,-3.0196,-3.041,-3.0448,0.0,0.0,0.0,0.0,0.0,0.0,0.0,0.0,0.0,0.0,0.0,0.0,0.0,0.0,0.0,0.0,0.0,0.0,0.0,0.0,-3.2519,-3.3848,-3.4897,-3.5213,-3.5677,-3.6092,-3.6439,-3.5751,-3.59,-3.7503,-3.7522,-3.7503,-3.7652,-3.7801,-3.7615,-3.6965,-3.7797,-3.8599,-3.9251,-4.0409,-4.1332,-4.1982,-4.2396,-4.2876,-4.3414,0.0,0.0,-4.4339,-4.4775,-4.4744,-4.4357,-4.4565,-4.4543,-4.4289,-4.3637,-4.2985,-4.2371,-4.1926,-4.1319,-4.0691,-4.0679,-4.0198,-3.9536,0.0,0.0,0.0,0.0,0.0,0.0,0.0,0.0,0.0,0.0,-3.5001,-3.4946,-3.4771,-3.4751,-3.4751,-3.4751,-3.4869,0.0,0.0,-3.51,-3.5089,-3.5201,-3.5038,-3.5363,-3.6226,-3.6451,-3.7186,-3.8505,-3.8804,-3.9182,-3.9649,-3.9626,-3.9644,-3.9705,-3.9654,-3.9584,-3.946,-3.9399,-3.8765,-3.7646,-3.6332,-3.448,-3.2351,-3.1006,-3.0236,-2.9841,-2.9773,-2.9756,-2.9747,-2.9701,-2.9746,-2.9796,-2.9789,-2.9866,-2.9953,0.0,0.0,0.0,0.0,0.0,0.0,0.0,0.0,0.0,0.0,0.0,0.0,0.0,0.0,-3.1196,0.0,0.0,-3.3448,-3.423,-3.5008,-3.564,-3.6049,-3.6458,-3.6848,-3.7257,-3.6588,-3.6569,-3.7782,-3.7541,-3.7299,-3.7299,-3.7671,-3.7894,-3.7894,-3.9045,-4.0075,-4.0882,-4.22,-4.3098,-4.3493,-4.4081,-4.4484,-4.4748,-4.4888,-4.5045,-4.5211,-4.5485,-4.5448,-4.5211,-4.5342,-4.5322,-4.5163,-4.4772,-4.4362,-4.4009,-4.4009,-4.3073,-4.1753,-4.1753,-4.1181,-4.0397,0.0,0.0,0.0,0.0,0.0,0.0,0.0,0.0,0.0,0.0,-3.5092,-3.5057,-3.4917,-3.4908,-3.4917,0.0,0.0,0.0,0.0,-3.5193,-3.5185,-3.5201,-3.5108,-3.5504,-3.6444,-3.6944,-3.7646,-3.8616,-3.9276,-3.9602,-3.9626,-3.9602,-3.9656,-3.9728,-3.9717,-3.9859,-4.0137,-4.0117,-3.9766,-3.9088,-3.7245,-3.5512,-3.387,-3.1977,-3.0696,-2.988,-2.9816,-2.979,-2.979,-2.9719,-2.9701,-2.9701,-2.9701,-2.9701,-2.9719,-2.9866,-2.9921,0.0,0.0,0.0,0.0,0.0,0.0,0.0,0.0,0.0,-3.0496,-3.1327,-3.2078,-3.281,-3.3634,-3.4394,-3.5091,-3.5758,-3.5919,-3.6142,-3.663,-3.6699,-3.7002,-3.7801,-3.7201,-3.7021,-3.7819,-3.7312,-3.7002,-3.7151,-3.7979,-3.8675,-3.9146,-4.0599,-4.1616,-4.2041,-4.3369,-4.403,-4.3995,-4.4895,-4.5344,-4.5344,-4.5518,-4.5594,-4.5594,-4.5594,-4.5594,-4.5594,-4.5594,-4.5594,-4.5594,-4.5594,-4.5594,-4.5594,-4.5594,-4.4528,-4.3009,-4.2838,-4.2237,-4.1504,0.0,0.0,0.0,0.0,0.0,0.0,0.0,0.0,0.0,0.0,0.0,0.0,0.0,0.0,0.0,0.0,0.0,0.0,-3.5193,-3.5134,-3.5145,-3.5201,-3.5019,-3.5704,-3.7414,-3.7233,-3.7977,-3.9735,-3.9642,-3.9631,-3.9701,-3.9631,-3.9691,-3.9878,-3.9751,-3.9922,-4.0263,-4.0147,-4.0109,-3.9938,-3.7493,-3.5908,-3.4773,-3.2378,-3.0811,-2.9872,-2.9765,-2.9756,-2.979,-2.9719,-2.9701,-2.9701,-2.9701,-2.9701,-2.9719,-2.9866,0.0,-3.008,-3.008,-3.0095,-3.0066,-2.9891,-2.9886,-3.0053,0.0,0.0,-3.2062,-3.2807,-3.3641,-3.4506,-3.536,-3.6115,-3.6652,-3.6746,-3.726,-3.7411,-3.6792,-3.6699,-3.7002,-3.7801,-3.7201,-3.7021,-3.7819,-3.7819,-3.8061,-3.8785,-3.9855,-4.0184,-3.9483,-4.1391,-4.2129,-4.1256,-4.2527,-4.3115,-4.289,-4.3921,-4.4451,-4.4451,-4.5229,-4.5594,-4.5594,-4.5594,-4.5594,-4.5594,-4.5594,-4.5594,-4.5594,-4.5594,-4.5594,-4.5594,-4.5594,-4.5453,-4.5148,-4.4379,-4.3564,-4.2872,0.0,0.0,0.0,0.0,0.0,0.0,0.0,0.0,0.0,0.0,0.0,0.0,0.0,0.0,0.0,0.0,0.0,0.0,-3.5201,-3.5054,-3.5029,-3.5145,-3.4946,-3.5427,-3.664,-3.6497,-3.7024,-3.8275,-3.866,-3.885,-3.891,-3.9388,-3.9668,-3.9792,-3.9804,-3.9954,-4.0119,-3.9128,-3.8746,-3.8572,-3.6069,-3.4522,-3.357,-3.1985,-3.083,-3.0064,-3.0007,-3.0015,0.0,0.0,-2.9811,-2.9805,-2.971,-2.9701,-2.9747,-2.995,-3.0004,0.0,-2.9988,-2.9937,-2.9952,0.0,-3.0819,-3.1356,-3.2052,-3.2874,-3.3727,-3.454,-3.5375,-3.6211,-3.7035,-3.7817,-3.8183,0.0,-3.7346,-3.7076,-3.6742,-3.6699,-3.7002,-3.7801,-3.8024,-3.8228,-3.8562,-3.8599,-3.8729,-3.9064,-3.9681,-4.0078,-4.0196,-4.1298,-4.1971,-4.203,-4.2735,-4.3043,-4.2926,-4.337,-4.3605,-4.3605,-4.4451,-4.4836,-4.4855,-4.5364,-4.5594,-4.5594,-4.5594,-4.5594,-4.5594,-4.5594,-4.5594,-4.5594,-4.5594,-4.5594,-4.5556,-4.519,-4.4509,-4.3797,0.0,0.0,0.0,0.0,0.0,0.0,0.0,0.0,0.0,0.0,0.0,0.0,0.0,0.0,0.0,0.0,0.0,0.0,0.0,-3.5047,-3.5001,-3.5111,-3.4907,-3.5195,-3.6046,-3.5945,-3.6291,-3.711,-3.7681,-3.7962,-3.7981,-3.8631,-3.8966,-3.9037,-3.9156,-3.9149,-3.8975,-3.7859,-3.7234,-3.6814,-3.4541,-3.3261,-3.2577,-3.1421,-3.0657,-3.0214,-3.0181,-3.0169,0.0,0.0,-2.9969,-2.9966,-2.9872,-2.9841,-2.988,-3.0109,-3.0066,-3.0007,-3.0246,0.0,0.0,-3.1353,-3.2188,-3.2995,-3.3816,-3.463,-3.5465,-3.6321,-3.7146,-3.7902,-3.8483,-3.9039,-3.905,-3.7915,-3.718,-3.6738,-3.6725,-3.6744,-3.7102,-3.8098,-3.8748,-3.9101,-3.9101,-3.9101,-3.9194,-3.9435,-3.9764,-4.0195,-4.0785,-4.125,-4.1685,-4.2078,-4.2279,-4.2374,-4.2374,-4.2624,-4.2739,-4.2758,-4.3797,-4.4297,-4.4335,-4.521,-4.5594,-4.5594,-4.5594,-4.5594,-4.5594,-4.5594,-4.5594,-4.5594,-4.5594,-4.5594,-4.5594,-4.5594,-4.521,-4.4662,0.0,0.0,0.0,0.0,0.0,0.0,0.0,0.0,0.0,0.0,0.0,0.0,0.0,0.0,0.0,0.0,0.0,0.0,0.0,-3.5092,-3.5111,-3.5092,-3.4907,-3.5235,-3.6177,-3.6007,-3.6291,-3.711,-3.7129,-3.7148,-3.7148,-3.7167,-3.7254,-3.7387,-3.7444,-3.7071,-3.6425,-3.6504,-3.6042,-3.5133,-3.3425,-3.2718,-3.252,-3.0792,-3.0192,-3.0286,-3.014,0.0,0.0,0.0,-3.0184,-3.0184,-3.0196,-3.0177,0.0,-3.0339,-3.026,-3.0285,0.0,0.0,-3.2226,-3.3029,-3.3875,-3.4722,-3.554,-3.64,-3.7249,-3.8056,-3.892,-3.9533,-3.9552,-3.9527,-3.8952,-3.7297,-3.6944,-3.687,-3.682,-3.6807,-3.7359,-3.8892,-3.9082,-3.9101,0.0,-3.9101,-3.9454,-4.029,-4.0785,-4.1056,-4.1082,-4.1523,-4.1404,-4.0585,-4.0566,-4.0573,-4.0573,-4.1412,-4.1846,-4.1865,-4.3508,-4.4297,-4.4335,-4.521,-4.5594,-4.5594,-4.5594,-4.5594,-4.5594,-4.5594,-4.5594,-4.5594,-4.5594,-4.5594,-4.5594,-4.5594,-4.5575,-4.5556,0.0,0.0,0.0,0.0,0.0,0.0,0.0,0.0,0.0,0.0,0.0,0.0,0.0,0.0,0.0,0.0,0.0,0.0,0.0,-3.5047,-3.4927,-3.4974,-3.4761,-3.4808,-3.5133,-3.5077,-3.5165,-3.5439,-3.601,-3.6291,-3.631,-3.6847,-3.7114,-3.716,-3.7281,-3.7217,-3.6919,-3.5368,-3.4535,-3.4086,-3.1848,-3.0913,-3.079,-3.0297,-3.0164,-3.0235,0.0,0.0,0.0,-3.0367,-3.0337,-3.0321,-3.0228,-3.0196,-3.0189,-3.0092,-3.04,-3.0921,-3.1654,0.0,-3.3296,-3.4674,-3.5642,-3.646,-3.7282,-3.8131,-3.8838,-3.912,-3.9401,-3.9589,-3.9589,-3.9546,-3.9121,-3.799,-3.7293,-3.7069,-3.7528,-3.7143,-3.7378,-3.8929,-3.9101,0.0,0.0,0.0,0.0,-3.9762,-4.0071,-4.0327,-4.049,-4.0788,-4.0804,-4.0516,-4.0496,-4.0496,-4.0496,-4.0785,-4.0931,-4.095,-4.2681,-4.4085,-4.5171,-4.5479,-4.5594,-4.5594,-4.5594,-4.5594,-4.5594,-4.5594,-4.5594,-4.5594,-4.5594,-4.5594,-4.5594,-4.5594,-4.5594,-4.5594,0.0,0.0,0.0,0.0,0.0,0.0,0.0,0.0,0.0,0.0,0.0,0.0,0.0,0.0,0.0,0.0,0.0,0.0,0.0,0.0,-3.4954,-3.5018,-3.4812,-3.473,-3.478,-3.473,-3.471,-3.471,-3.5251,-3.5512,-3.5531,-3.5995,-3.6209,-3.6209,-3.636,-3.6256,-3.5901,-3.4395,-3.3602,-3.3198,-3.1314,-3.0532,-3.0479,-3.0254,-3.0248,0.0,0.0,0.0,0.0,-3.0546,-3.0513,-3.05,-3.0422,-3.0333,-3.0292,-3.0457,-3.1007,-3.1775,-3.2778,-3.3884,-3.5052,-3.6423,-3.738,-3.8124,-3.8638,-3.9195,-3.9589,-3.9589,-3.9589,-3.9614,-3.9691,-3.9614,-3.9271,-3.8472,-3.757,-3.7237,-3.7965,-3.7374,-3.7455,-3.9029,-3.9156,-3.9272,0.0,0.0,0.0,-3.9921,-4.0136,-4.0368,-4.0626,-4.0554,-4.0496,-4.0496,-4.0496,-4.0496,-4.0496,-4.0496,-4.0804,-4.1458,-4.2854,-4.4259,-4.5594,-4.5594,-4.5594,-4.5594,-4.5594,-4.5594,-4.5594,-4.5594,-4.5594,-4.5594,-4.5594,-4.5594,-4.5594,-4.5594,-4.5594,-4.5594,0.0,0.0,0.0,0.0,0.0,0.0,0.0,0.0,0.0,0.0,0.0,0.0,0.0,0.0,0.0,0.0,0.0,0.0,0.0,0.0,0.0,-3.5216,-3.5016,-3.4973,-3.5092,-3.4983,-3.4917,-3.4908,-3.483,-3.4798,-3.4798,-3.4676,-3.4623,-3.4634,-3.4758,-3.4356,-3.3591,-3.3677,-3.3311,-3.2616,-3.1797,-3.1557,-3.1572,-3.0712,0.0,0.0,0.0,0.0,0.0,0.0,0.0,0.0,0.0,-3.0569,-3.0606,-3.1403,-3.205,-3.2854,-3.4481,-3.6021,-3.7354,-3.8169,-3.8976,-3.9589,-3.9589,-3.9589,-3.9589,-3.9614,-3.9614,-3.9668,0.0,0.0,-3.9404,-3.8761,-3.7815,-3.7425,-3.8159,-3.7566,-3.7654,0.0,0.0,0.0,0.0,0.0,0.0,-4.0709,0.0,-4.1174,-4.1342,-4.0822,-4.0496,-4.0496,-4.0496,-4.0516,-4.0573,-4.0612,-4.1477,-4.3162,-4.3932,-4.4759,-4.5594,-4.5594,-4.5594,-4.5594,-4.5594,-4.5594,-4.5594,-4.5594,-4.5594,-4.5594,-4.5594,-4.5594,-4.5594,-4.5594,-4.5594,-4.5594,0.0,0.0,0.0,0.0,0.0,0.0,0.0,0.0,0.0,0.0,0.0,0.0,0.0,0.0,0.0,0.0,0.0,0.0,0.0,0.0,0.0,0.0,0.0,0.0,0.0,0.0,0.0,0.0,0.0,-3.487,-3.487,-3.484,-3.4812,-3.4831,-3.486,-3.484,-3.4732,-3.4154,-3.383,-3.3651,0.0,-3.2475,-3.234,0.0,0.0,0.0,0.0,0.0,0.0,0.0,0.0,0.0,0.0,-3.0649,-3.1142,-3.1952,-3.3062,-3.4394,-3.605,-3.7239,-3.8206,-3.9063,-3.9439,-3.9589,-3.9589,-3.9589,-3.965,-3.98,-3.9815,-3.9881,0.0,0.0,0.0,-3.9608,-3.8682,0.0,-3.9058,-3.8428,0.0,-3.9274,0.0,-3.9532,-4.0407,-4.0563,0.0,0.0,-4.106,-4.0982,-4.0735,-4.0588,-4.0496,-4.0496,-4.0496,-4.0804,-4.147,-4.2104,-4.2951,-4.3989,-4.4201,-4.4759,-4.5594,-4.5594,-4.5594,-4.5594,-4.5594,-4.5594,-4.5594,-4.5594,-4.5594,-4.5594,-4.5594,-4.5594,-4.5594,-4.5594,-4.5594,-4.5594,0.0,0.0,0.0,0.0,0.0,0.0,0.0,0.0,0.0,0.0,0.0,0.0,0.0,0.0,0.0,0.0,0.0,0.0,0.0,0.0,0.0,0.0,0.0,0.0,0.0,0.0,0.0,0.0,0.0,0.0,0.0,-3.4936,-3.4926,-3.4982,-3.4982,-3.5077,-3.5163,-3.4711,0.0,0.0,0.0,0.0,0.0,0.0,0.0,0.0,0.0,0.0,0.0,0.0,0.0,-3.0835,-3.0745,-3.1428,-3.2405,-3.3213,0.0,-3.5983,-3.7268,-3.8244,-3.8976,-3.9477,-3.9589,-3.9589,-3.9589,-3.9656,-3.966,-3.9386,-3.9387,0.0,0.0,0.0,0.0,0.0,0.0,0.0,-3.8908,-3.854,-3.8396,0.0,-3.9455,0.0,-4.0619,-4.1066,-4.1292,0.0,-4.1216,-4.1017,-4.0538,-4.0496,-4.0689,-4.1066,-4.1066,-4.1489,-4.2354,-4.3201,-4.3855,-4.4297,-4.4682,-4.5133,-4.5594,-4.5594,-4.5594,-4.5594,-4.5594,-4.5594,-4.5594,-4.5594,-4.5594,-4.5594,-4.5594,-4.5594,-4.5594,-4.5594,-4.5594,-4.5594,0.0,0.0,0.0,0.0,0.0,0.0,0.0,0.0,0.0,0.0,0.0,0.0,0.0,0.0,0.0,0.0,0.0,0.0,0.0,0.0,0.0,0.0,0.0,0.0,0.0,0.0,0.0,0.0,0.0,0.0,0.0,0.0,0.0,0.0,0.0,0.0,0.0,0.0,0.0,0.0,0.0,0.0,0.0,0.0,0.0,0.0,0.0,0.0,0.0,0.0,-3.2173,-3.1534,-3.1493,-3.252,-3.3895,-3.4707,-3.6048,-3.7448,-3.8244,-3.9014,-3.9589,-3.9589,-3.9589,-3.962,-3.9638,-3.969,-3.9524,-3.8816,0.0,-3.8604,-3.805,-3.8343,-3.8725,-3.888,0.0,-3.8467,-3.8319,-3.8394,-3.8432,-3.8319,-3.9714,-4.0766,-4.0908,-4.1556,-4.1813,-4.1437,-4.1342,-4.107,-4.0527,-4.0496,-4.0893,-4.1769,-4.2019,-4.2489,-4.3258,-4.4066,-4.447,-4.447,-4.5248,-4.5594,-4.5594,-4.5594,-4.5594,-4.5594,-4.5594,-4.5594,-4.5594,-4.5594,-4.5594,-4.5594,-4.5594,-4.5594,-4.5594,-4.5594,-4.5594,-4.5594,0.0,0.0,0.0,0.0,0.0,0.0,0.0,0.0,0.0,0.0,-3.083,0.0,0.0,0.0,0.0,0.0,0.0,0.0,0.0,0.0,0.0,0.0,0.0,0.0,0.0,0.0,0.0,0.0,0.0,0.0,0.0,0.0,0.0,0.0,0.0,0.0,0.0,0.0,0.0,0.0,0.0,0.0,0.0,0.0,0.0,0.0,0.0,0.0,0.0,0.0,-3.2485,-3.2207,-3.2024,-3.3116,-3.4599,-3.5464,-3.684,-3.8281,-3.9138,-3.9477,-3.9589,-3.9589,-3.9589,-3.965,-3.9811,-3.9318,0.0,0.0,-3.8558,-3.8089,-3.8132,-3.8671,-3.9057,-3.8926,0.0,0.0,0.0,0.0,-3.912,0.0,0.0,0.0,0.0,0.0,0.0,0.0,-4.1014,-4.0669,-4.0516,-4.0496,-4.0893,-4.1769,-4.3143,-4.3932,-4.4085,-4.494,-4.5364,-4.5383,-4.5537,-4.5594,-4.5594,-4.5594,-4.5594,-4.5594,-4.5594,0.0,-4.5594,-4.5594,-4.5594,-4.5594,-4.5594,-4.5594,-4.5594,-4.5594,-4.5594,-4.5594,0.0,0.0,0.0,0.0,0.0,0.0,0.0,0.0,0.0,0.0,-3.0694,-3.0869,0.0,0.0,0.0,0.0,0.0,0.0,0.0,0.0,0.0,0.0,0.0,0.0,0.0,0.0,0.0,0.0,0.0,0.0,0.0,0.0,0.0,0.0,0.0,0.0,0.0,0.0,0.0,0.0,0.0,0.0,0.0,0.0,0.0,0.0,0.0,0.0,0.0,0.0,-3.3949,-3.3591,-3.2964,-3.4207,-3.5983,-3.6404,-3.7681,-3.9082,-3.9495,-3.9589,-3.9589,-3.9589,-3.9589,-3.9644,-3.9848,0.0,0.0,0.0,-3.7903,-3.7283,-3.6969,0.0,0.0,0.0,0.0,0.0,0.0,0.0,0.0,0.0,0.0,0.0,0.0,0.0,0.0,-4.1075,-4.0762,-4.0573,-4.0496,-4.1362,-4.2239,-4.3066,-4.4316,-4.4979,-4.4979,-4.5402,-4.5594,-4.5594,-4.5594,-4.5594,-4.5594,-4.5594,-4.5594,-4.5594,-4.5594,-4.5594,-4.5594,-4.5594,-4.5594,-4.5594,-4.5594,-4.5594,-4.5594,-4.5594,-4.5594,-4.5594,0.0,0.0,0.0,0.0,0.0,0.0,0.0,-3.0694,-3.0694,-3.0694,-3.0694,-3.0694,-3.0694,-3.1312,0.0,0.0,0.0,0.0,0.0,0.0,0.0,0.0,0.0,0.0,0.0,0.0,0.0,-3.5795,0.0,0.0,0.0,0.0,0.0,0.0,0.0,0.0,0.0,0.0,0.0,0.0,0.0,0.0,0.0,0.0,0.0,0.0,0.0,0.0,0.0,0.0,-3.5297,-3.489,-3.4055,-3.53,-3.7122,-3.713,-3.831,-3.9602,-3.9644,-3.9656,-3.9668,-3.9727,-3.9738,-3.9721,-3.9741,-3.9195,0.0,0.0,-3.7134,-3.6458,-3.582,0.0,0.0,0.0,0.0,0.0,0.0,0.0,0.0,0.0,0.0,0.0,0.0,0.0,0.0,-4.0749,-4.0779,-4.085,-4.0785,-4.2239,-4.347,-4.4278,-4.5152,-4.5594,-4.5594,-4.5594,-4.5594,-4.5594,-4.5594,-4.5594,-4.5594,-4.5594,-4.5594,-4.5594,-4.5594,-4.5594,-4.5594,-4.5594,-4.5594,-4.5594,-4.5594,-4.5594,-4.5594,-4.5594,-4.5594,-4.5594,0.0,0.0,0.0,0.0,0.0,0.0,0.0,-3.0694,-3.0694,-3.0694,-3.0694,-3.0694,-3.0694,-3.0771,0.0,0.0,0.0,0.0,0.0,0.0,0.0,0.0,0.0,0.0,0.0,0.0,0.0,-3.5795,-3.5782,0.0,0.0,0.0,0.0,0.0,0.0,0.0,0.0,0.0,0.0,0.0,0.0,0.0,0.0,0.0,0.0,0.0,0.0,0.0,0.0,0.0,0.0,-3.5393,-3.5131,-3.5999,-3.7126,-3.7249,0.0,0.0,-3.9815,-3.987,-3.9924,-4.01,-4.0148,-3.9986,-3.9394,0.0,0.0,-3.7127,-3.635,-3.5781,-3.5704,-3.6331,0.0,0.0,0.0,0.0,0.0,0.0,0.0,0.0,0.0,0.0,0.0,0.0,0.0,-4.0822,-4.1381,-4.1747,-4.1681,-4.2585,-4.347,-4.4278,-4.5152,-4.5594,-4.5594,-4.5594,-4.5594,-4.5594,-4.5594,-4.5594,-4.5594,-4.5594,-4.5594,-4.5594,-4.5594,-4.5594,0.0,-4.5594,-4.5594,-4.5594,-4.5594,-4.5594,-4.5594,-4.5594,-4.5594,-4.5594,0.0,0.0,0.0,0.0,0.0,0.0,0.0,-3.0694,-3.0694,-3.0694,-3.0694,-3.0694,-3.0694,-3.0694,-3.0849,0.0,0.0,0.0,0.0,0.0,0.0,0.0,0.0,0.0,0.0,0.0,0.0,-3.5795,-3.5795,0.0,0.0,0.0,0.0,0.0,0.0,-3.5795,0.0,0.0,0.0,0.0,0.0,0.0,0.0,0.0,0.0,0.0,0.0,0.0,0.0,0.0,0.0,0.0,-3.5492,-3.6082,0.0,0.0,-3.8217,-3.9271,-3.9781,-3.9979,-4.01,-4.0186,-3.9814,-3.9372,-3.9223,0.0,-3.7086,-3.6932,-3.6265,-3.5704,-3.5704,-3.5955,-3.6596,0.0,0.0,0.0,0.0,0.0,0.0,0.0,0.0,0.0,0.0,0.0,-4.1928,-4.079,-4.0996,-4.1591,-4.2529,-4.3415,-4.4254,-4.5056,-4.5421,-4.5594,-4.5594,-4.5594,-4.5594,-4.5594,-4.5594,-4.5594,-4.5594,-4.5594,-4.5594,-4.5594,-4.5594,-4.5594,0.0,-4.5594,-4.5594,-4.5594,-4.5594,-4.5594,-4.5594,-4.5594,-4.5594,-4.5594,0.0,0.0,0.0,0.0,0.0,0.0,-3.0694,-3.0694,-3.0694,-3.0694,-3.0694,-3.0694,-3.0694,-3.0694,-3.0694,-3.0694,0.0,0.0,0.0,0.0,0.0,0.0,0.0,0.0,0.0,0.0,-3.5795,-3.5795,-3.5795,-3.5795,0.0,0.0,-3.5795,-3.5795,0.0,0.0,0.0,0.0,0.0,0.0,0.0,0.0,0.0,0.0,0.0,0.0,0.0,0.0,0.0,0.0,0.0,0.0,0.0,0.0,0.0,0.0,-3.7784,-3.8575,-3.9156,-3.9366,-3.9468,-3.9591,-3.9139,-3.8665,0.0,0.0,-3.6665,-3.6551,-3.6091,-3.5704,-3.5704,-3.5704,-3.6245,0.0,0.0,-3.859,0.0,0.0,0.0,0.0,0.0,0.0,0.0,0.0,-4.1654,-4.0797,-4.0945,-4.1672,-4.3054,-4.396,-4.4795,-4.5575,-4.5594,-4.5594,-4.5594,-4.5594,-4.5594,-4.5594,-4.5594,-4.5594,-4.5594,-4.5594,-4.5594,-4.5594,-4.5594,-4.5594,0.0,-4.5594,-4.5594,-4.5594,-4.5594,-4.5594,-4.5594,-4.5594,-4.5594,-4.5594,0.0,0.0,0.0,0.0,0.0,0.0,0.0,-3.0694,-3.0694,-3.0694,-3.0694,-3.0694,-3.0694,-3.0694,-3.0694,-3.0694,0.0,0.0,0.0,0.0,0.0,0.0,0.0,0.0,0.0,0.0,-3.5795,-3.5795,-3.5795,-3.5795,-3.5795,-3.5795,-3.5795,-3.5795,0.0,0.0,0.0,0.0,0.0,0.0,0.0,0.0,0.0,0.0,0.0,0.0,0.0,0.0,0.0,0.0,0.0,0.0,0.0,0.0,0.0,0.0,-3.7037,-3.749,-3.7832,-3.7781,-3.7721,-3.8125,-3.8212,-3.798,0.0,0.0,-3.6671,-3.5878,-3.5704,-3.5704,-3.5704,-3.5704,-3.6245,-3.7922,0.0,0.0,0.0,0.0,0.0,0.0,0.0,0.0,0.0,0.0,-4.1661,-4.0855,-4.1545,0.0,-4.3166,-4.4035,-4.4832,-4.5575,-4.5594,-4.5594,-4.5594,-4.5594,-4.5594,-4.5594,-4.5594,-4.5594,-4.5594,-4.5594,-4.5594,-4.5594,-4.5594,-4.5594,0.0,-4.5594,-4.5594,-4.5594,-4.5594,-4.5594,-4.5594,-4.5594,-4.5594,-4.5594,0.0,0.0,0.0,0.0,0.0,0.0,0.0,-3.0694,-3.0694,-3.0694,-3.0694,-3.0694,-3.0694,-3.0694,-3.0694,-3.0694,0.0,0.0,0.0,0.0,0.0,0.0,0.0,0.0,0.0,0.0,-3.5795,-3.5795,-3.5795,-3.5795,-3.5795,-3.5795,-3.5795,-3.5795,-3.5795,0.0,0.0,0.0,0.0,0.0,0.0,0.0,0.0,0.0,0.0,0.0,0.0,0.0,0.0,0.0,0.0,0.0,0.0,0.0,0.0,0.0,0.0,0.0,-3.776,-3.7961,-3.8028,-3.8175,-3.7748,-3.7251,-3.6961,0.0,-3.6013,-3.5742,-3.5704,-3.5704,-3.5704,-3.5704,-3.6245,-3.7922,-3.8193,0.0,0.0,0.0,0.0,0.0,0.0,0.0,0.0,0.0,-4.1661,-4.0855,-4.1048,-4.1532,-4.2342,-4.2644,-4.3689,-4.5607,-4.5676,-4.5648,-4.5594,-4.5594,-4.5594,-4.5594,-4.5594,-4.5594,-4.5594,-4.5594,-4.5594,-4.5594,-4.5594,-4.5594,-4.5594,-4.5594,-4.5594,-4.5594,-4.5594,-4.5594,-4.5594,-4.5594,-4.5594,-4.5594,0.0,0.0,0.0,0.0,0.0,0.0,0.0,-3.0694,-3.0694,-3.0694,-3.0694,-3.0694,-3.0694,-3.0694,-3.0694,-3.0694,0.0,0.0,0.0,0.0,0.0,0.0,0.0,0.0,0.0,-3.5795,-3.5795,-3.5795,-3.5795,-3.5795,-3.5795,-3.5795,-3.5795,-3.5795,-3.5795,-3.5795,0.0,0.0,0.0,0.0,0.0,0.0,-3.5795,0.0,0.0,0.0,0.0,0.0,0.0,0.0,0.0,0.0,0.0,0.0,0.0,0.0,-3.6149,0.0,0.0,-3.7115,-3.7153,-3.724,-3.6845,0.0,0.0,0.0,-3.5704,-3.5704,-3.5704,-3.5704,-3.5704,-3.5955,-3.6593,-3.798,-3.8489,0.0,0.0,0.0,0.0,0.0,0.0,0.0,0.0,-4.2299,-4.2492,-4.1332,-4.1255,-4.1616,-4.2459,-4.2498,-4.3494,-4.5673,-4.5379,-4.5354,-4.564,-4.564,-4.5631,-4.5594,-4.5594,-4.5594,-4.5594,-4.5594,-4.5594,-4.5594,-4.5594,-4.5594,0.0,-4.5594,-4.5594,-4.5594,-4.5594,-4.5594,-4.5594,-4.5594,-4.5594,-4.5594,0.0,0.0,0.0,0.0,0.0,0.0,0.0,0.0,0.0,0.0,-3.0694,-3.0694,-3.0694,-3.0694,-3.0694,0.0,0.0,0.0,0.0,0.0,0.0,0.0,0.0,0.0,0.0,-3.5795,-3.5795,-3.5795,-3.5795,-3.5795,-3.5795,-3.5795,-3.5795,-3.5795,-3.5795,-3.5795,-3.5795,-3.5795,-3.5795,-3.5795,-3.5795,-3.5795,0.0,0.0,0.0,0.0,0.0,0.0,0.0,0.0,0.0,0.0,0.0,0.0,0.0,0.0,0.0,0.0,0.0,0.0,0.0,0.0,0.0,0.0,0.0,0.0,0.0,0.0,0.0,0.0,-3.5704,-3.6361,-3.7193,-3.8057,-3.8934,0.0,0.0,0.0,0.0,0.0,0.0,0.0,-4.2086,-4.3576,-4.3904,-4.2222,-4.2086,-4.2454,-4.3266,-4.3305,-4.4045,-4.5653,-4.4874,-4.4835,-4.569,-4.5701,-4.5665,-4.5614,-4.5614,-4.5594,-4.5594,-4.5594,-4.5594,0.0,-4.5594,-4.5594,-4.5594,-4.5594,-4.5594,-4.5594,-4.5594,-4.5594,-4.5594,-4.5594,-4.5594,-4.5594,0.0,0.0,0.0,0.0,0.0,0.0,0.0,0.0,0.0,0.0,0.0,-3.0694,-3.0694,-3.0694,0.0,0.0,0.0,0.0,0.0,0.0,0.0,0.0,0.0,0.0,-3.5775,-3.5795,-3.5795,-3.5795,-3.5795,-3.5795,-3.5795,-3.5795,-3.5795,-3.5795,-3.5795,-3.5795,-3.5795,-3.5795,-3.5795,-3.5795,-3.5795,-3.5795,0.0,0.0,0.0,0.0,-3.5795,-3.5795,0.0,0.0,0.0,0.0,0.0,0.0,0.0,0.0,-3.5797,-3.5766,-3.5704,0.0,-3.5631,-3.5698,-3.5704,0.0,0.0,0.0,0.0,0.0,0.0,0.0,0.0,0.0,0.0,-3.8057,0.0,-3.9791,0.0,0.0,0.0,0.0,0.0,-4.2957,-4.2086,-4.3576,-4.4149,-4.3073,-4.2995,-4.3073,-4.3285,-4.3305,-4.3782,-4.4858,-4.467,-4.4923,-4.5692,-4.5692,-4.5687,-4.5684,-4.5684,-4.5648,-4.5594,-4.5594,-4.5594,-4.5594,-4.5594,-4.5594,-4.5594,-4.5594,-4.5594,-4.5594,-4.5594,-4.5594,-4.5594,-4.5594,-4.5594,-4.5594,0.0,0.0,0.0,0.0,0.0,0.0,0.0,0.0,0.0,0.0,0.0,0.0,0.0,0.0,0.0,0.0,0.0,0.0,0.0,0.0,0.0,0.0,0.0,-3.4536,-3.5775,-3.5795,-3.5795,-3.5795,-3.5795,-3.5795,-3.5795,-3.5795,-3.5795,-3.5795,-3.5795,-3.5795,-3.5795,-3.5795,-3.5795,-3.5795,-3.5795,0.0,0.0,0.0,0.0,0.0,-3.5795,-3.5795,0.0,-3.5795,-3.5795,-3.5795,0.0,0.0,0.0,0.0,-3.5797,-3.5799,-3.5766,-3.5728,-3.5701,-3.5709,-3.5704,-3.5704,0.0,0.0,0.0,0.0,0.0,0.0,0.0,0.0,0.0,0.0,-3.9539,0.0,0.0,0.0,0.0,0.0,0.0,-4.3266,0.0,-4.4388,-4.4794,-4.3962,-4.3904,-4.3904,-4.3904,-4.3904,-4.4291,-4.5123,-4.5142,-4.5346,-4.5739,-4.5758,-4.5735,-4.5687,-4.569,-4.5684,-4.564,-4.5603,-4.5594,-4.5594,-4.566,-4.5692,-4.568,-4.5718,-4.5723,-4.5692,-4.5692,-4.5643,-4.5594,-4.5594,-4.5594,-4.5594,0.0,0.0,0.0,0.0,0.0,0.0,0.0,0.0,0.0,0.0,0.0,0.0,0.0,0.0,0.0,0.0,0.0,0.0,0.0,0.0,0.0,0.0,0.0,-3.4012,-3.5562,-3.5736,-3.5795,-3.5795,-3.5795,-3.5795,-3.5795,-3.5795,-3.5795,-3.5795,-3.5795,-3.5795,-3.5795,-3.5795,-3.5795,-3.5795,-3.5795,0.0,0.0,0.0,0.0,0.0,0.0,0.0,0.0,-3.5795,-3.5795,-3.5795,-3.5795,0.0,0.0,0.0,0.0,0.0,-3.5799,-3.5747,-3.5707,-3.5701,-3.5709,-3.5704,0.0,0.0,0.0,0.0,0.0,0.0,0.0,0.0,0.0,0.0,0.0,0.0,0.0,0.0,0.0,0.0,0.0,0.0,-4.4516,-4.5336,-4.551,-4.4833,-4.4775,-4.4775,-4.4775,-4.4671,-4.491,-4.5594,-4.5497,-4.5418,-4.5428,-4.5544,-4.558,-4.5522,-4.5387,-4.5321,-4.5329,-4.5269,-4.5327,-4.5448,-4.5566,0.0,-4.5828,-4.5881,-4.5863,-4.5822,-4.5822,-4.5737,-4.5632,-4.5627,-4.5637,-4.5629,0.0,0.0,0.0,0.0,0.0,0.0,0.0,0.0,0.0,0.0,0.0,0.0,0.0,0.0,0.0,0.0,0.0,0.0,0.0,0.0,0.0,0.0,-3.2905,-3.374,-3.4672,-3.543,-3.5795,-3.5795,-3.5795,-3.5795,-3.5795,-3.5795,-3.5795,-3.5795,-3.5795,-3.5795,-3.5795,-3.5795,-3.5795,-3.5795,-3.5795,0.0,0.0,0.0,0.0,0.0,0.0,0.0,0.0,-3.5795,-3.5795,-3.5795,-3.5795,0.0,0.0,0.0,0.0,0.0,-3.5722,-3.5708,-3.5694,-3.5707,-3.5706,-3.5704,0.0,0.0,0.0,0.0,0.0,0.0,0.0,0.0,0.0,0.0,0.0,0.0,0.0,0.0,0.0,0.0,0.0,-4.3634,-4.4516,-4.5336,-4.5749,-4.5633,-4.5633,-4.5633,-4.5633,-4.4968,-4.4652,-4.4775,-4.4078,-4.3685,-4.3685,-4.4413,-4.4747,-4.4684,-4.3943,-4.3605,-4.366,-4.3653,-4.4066,-4.4746,0.0,-4.5207,-4.5897,-4.5894,-4.5894,-4.5878,-4.5878,-4.5867,-4.5858,-4.5794,-4.5771,-4.5749,0.0,0.0,0.0,0.0,0.0,0.0,0.0,0.0,0.0,0.0,0.0,0.0,0.0,0.0,0.0,0.0,0.0,0.0,0.0,0.0,0.0,-3.1273,-3.2574,-3.3682,-3.4482,-3.5352,-3.5795,-3.5795,-3.5795,-3.5795,-3.5795,-3.5795,-3.5795,-3.5795,-3.5795,-3.5795,-3.5795,-3.5795,-3.5795,-3.5795,0.0,0.0,0.0,0.0,0.0,0.0,0.0,0.0,0.0,0.0,-3.5795,-3.5795,-3.5795,0.0,0.0,0.0,0.0,0.0,-3.575,-3.5727,-3.5704,-3.5694,-3.5697,0.0,0.0,0.0,0.0,0.0,0.0,0.0,0.0,0.0,0.0,0.0,0.0,0.0,0.0,-4.0797,-4.128,0.0,0.0,-4.3808,-4.5123,-4.5568,-4.5807,-4.5807,-4.5394,-4.5142,-4.5142,-4.4349,-4.3904,-4.3904,-4.3518,-4.3305,-4.3305,-4.3227,-4.3427,-4.3858,-4.3412,-4.324,-4.3296,-4.3298,-4.354,-4.3943,0.0,-4.4225,-4.4658,-4.5191,-4.5379,-4.5358,-4.5825,-4.5954,-4.5889,-4.5822,-4.5807,-4.5786,0.0,0.0,0.0,0.0,0.0,0.0,0.0,0.0,0.0,0.0,0.0,0.0,0.0,0.0,0.0,0.0,0.0,0.0,0.0,0.0,-3.0694,-3.0694,-3.2361,-3.3584,-3.421,-3.5255,-3.5795,-3.5795,-3.5795,-3.5795,-3.5795,-3.5795,-3.5795,-3.5795,-3.5795,-3.5795,-3.5795,-3.5795,-3.5795,-3.5795,0.0,0.0,0.0,0.0,0.0,0.0,0.0,0.0,0.0,0.0,0.0,0.0,0.0,0.0,0.0,-3.5795,-3.5795,-3.5795,-3.581,-3.576,-3.5704,-3.5699,0.0,0.0,0.0,0.0,0.0,0.0,0.0,0.0,0.0,0.0,0.0,0.0,0.0,-4.0797,-4.0797,-4.0797,-4.1358,-4.2821,-4.2995,-4.3576,-4.5065,-4.52,-4.52,-4.52,-4.4639,-4.4304,-4.4304,-4.3479,-4.2995,-4.2995,-4.2802,-4.2705,-4.2705,-4.2048,-4.2144,-4.2995,-4.2763,-4.2691,-4.2733,-4.2756,-4.2903,-4.3175,-4.3227,-4.3359,-4.3616,-4.4592,-4.4935,-4.4929,-4.5813,-4.6061,-4.5949,-4.5883,-4.5841,-4.5815,0.0,0.0,0.0,0.0,0.0,0.0,0.0,0.0,0.0,0.0,0.0,0.0,0.0,0.0,0.0,0.0,0.0,0.0,0.0,0.0,-3.0694,-3.0694,-3.2361,-3.3332,-3.339,-3.496,-3.5795,-3.5795,-3.5795,-3.5795,-3.5795,-3.5795,-3.5795,-3.5795,-3.5795,-3.5795,-3.5795,-3.5795,-3.5795,-3.5795,-3.5795,0.0,0.0,0.0,0.0,0.0,0.0,0.0,0.0,0.0,0.0,0.0,0.0,0.0,-3.5795,-3.5795,-3.5795,-3.5791,-3.5808,-3.5747,-3.5699,-3.5698,0.0,0.0,0.0,0.0,0.0,0.0,0.0,0.0,0.0,0.0,0.0,0.0,0.0,-4.0797,-4.0797,0.0,-4.1126,-4.199,-4.2086,-4.2454,-4.3382,-4.3479,-4.3479,-4.3479,-4.344,-4.3401,-4.3401,-4.257,-4.2086,-4.2086,-4.1371,-4.099,-4.099,-4.0913,-4.1293,-4.2086,-4.1385,-4.1071,-4.1077,-4.1137,-4.1644,-4.2467,-4.2489,-4.2934,-4.3749,-4.463,-4.4997,-4.5065,-4.5945,-4.6209,-4.6091,-4.6084,-4.5992,-4.5872,0.0,0.0,0.0,0.0,0.0,0.0,0.0,0.0,0.0,0.0,0.0,0.0,0.0,0.0,0.0,0.0,0.0,0.0,0.0,0.0,-3.0694,-3.0694,-3.2361,-3.3293,-3.3293,-3.494,-3.5795,-3.5795,-3.5795,-3.5795,-3.5795,-3.5795,-3.5795,-3.5795,-3.5795,-3.5795,-3.5795,-3.5795,-3.5795,-3.5795,-3.5795,-3.5795,0.0,0.0,0.0,0.0,0.0,0.0,0.0,0.0,-3.5795,-3.5795,-3.5795,-3.5795,-3.5795,-3.5795,-3.5795,-3.5791,-3.5808,-3.5747,-3.5699,-3.5693,0.0,0.0,0.0,0.0,0.0,0.0,0.0,0.0,0.0,0.0,0.0,0.0,-4.0797,-4.0797,-4.0797,-4.0797,-4.1106,-4.1893,-4.2009,-4.2338,-4.3227,-4.3305,-4.3305,-4.3305,-4.2802,-4.2492,-4.2492,-4.1699,-4.1255,-4.1255,-4.0971,-4.0797,-4.0797,-4.0797,-4.0969,-4.1313,-4.1024,-4.0913,-4.0964,-4.0996,-4.1228,-4.1598,-4.1596,-4.179,-4.2198,-4.3603,-4.4185,-4.4335,-4.5755,-4.6271,-4.6214,-4.6135,-4.6061,-4.6,0.0,0.0,0.0,0.0,0.0,0.0,0.0,0.0,0.0,0.0,0.0,0.0,0.0,0.0,0.0,0.0,0.0,0.0,-3.0694,-3.0694,-3.0694,-3.0694,-3.2361,-3.3293,-3.3293,-3.494,-3.5795,-3.5795,-3.5795,-3.5795,-3.5795,-3.5795,-3.5795,-3.5795,-3.5795,-3.5795,-3.5795,-3.5795,-3.5795,-3.5795,-3.5795,-3.5795,0.0,0.0,0.0,0.0,0.0,0.0,0.0,0.0,-3.5795,-3.5795,0.0,0.0,-3.5795,-3.5795,-3.581,-3.5801,-3.5803,-3.5757,-3.5689,0.0,0.0,0.0,0.0,0.0,0.0,0.0,0.0,0.0,0.0,0.0,0.0,0.0,-4.0797,-4.0797,-4.0797,-4.0797,-4.1009,-4.1564,-4.1622,-4.1854,-4.2454,-4.2512,-4.2512,-4.2512,-4.1951,-4.1622,-4.1622,-4.1106,-4.0797,-4.0797,-4.0797,-4.0797,-4.0797,-4.0797,-4.0837,-4.0907,-4.092,-4.0976,-4.1022,-4.1042,-4.1084,-4.1132,-4.1131,-4.1129,-4.1206,-4.2671,-4.3606,-4.4263,-4.5724,-4.6308,-4.6285,-4.6194,-4.6159,-4.615,0.0,0.0,0.0,0.0,0.0,0.0,0.0,0.0,0.0,0.0,0.0,0.0,0.0,0.0,0.0,0.0,0.0,0.0,-3.0694,-3.0694,-3.0694,-3.0713,-3.2361,-3.3293,-3.3313,-3.494,-3.5795,-3.5795,-3.5795,-3.5795,-3.5795,-3.5795,-3.5795,-3.5795,-3.5795,-3.5795,-3.5795,-3.5795,-3.5795,-3.5795,-3.5795,-3.5795,-3.5795,0.0,0.0,0.0,0.0,0.0,0.0,0.0,-3.5795,-3.5795,0.0,0.0,0.0,-3.5795,-3.5797,-3.5803,-3.5799,-3.5747,-3.5707,0.0,0.0,0.0,0.0,0.0,0.0,0.0,0.0,-4.0797,-4.0797,0.0,0.0,-4.0797,-4.0797,-4.0797,-4.0797,-4.0797,-4.0797,-4.0797,-4.0797,-4.0797,-4.0797,-4.0797,-4.0797,-4.0797,-4.0797,-4.0797,-4.0797,-4.0797,-4.0797,-4.0797,-4.0797,-4.0797,-4.0797,-4.0797,-4.0823,-4.0893,-4.0979,-4.1044,-4.109,-4.1169,-4.1191,-4.1191,-4.1191,-4.1152,-4.117,-4.2049,-4.3434,-4.5091,-4.5969,-4.6301,-4.6301,-4.6295,-4.6293,-4.6288,0.0,0.0,0.0,0.0,0.0,0.0,0.0,0.0,0.0,0.0,0.0,0.0,0.0,0.0,0.0,0.0,0.0,0.0,-3.0694,-3.0694,-3.0962,-3.1584,-3.2691,-3.3565,-3.4128,-3.5236,-3.5795,-3.5795,-3.5795,-3.5795,-3.5795,-3.5795,-3.5795,-3.5795,-3.5795,-3.5795,-3.5795,-3.5795,-3.5795,-3.5795,-3.5795,-3.5795,-3.5795,0.0,0.0,0.0,0.0,0.0,0.0,0.0,0.0,0.0,-3.5795,0.0,-3.5795,-3.5795,-3.5791,-3.5797,-3.5747,-3.5728,0.0,0.0,0.0,0.0,0.0,0.0,0.0,0.0,0.0,-4.0797,-4.0797,0.0,0.0,-4.0797,-4.0797,-4.0797,-4.0797,-4.0797,-4.0797,-4.0797,-4.0797,-4.0797,-4.0797,-4.0797,-4.0797,-4.0797,-4.0797,-4.0797,-4.0797,-4.0797,-4.0797,-4.0797,-4.0797,-4.0797,-4.0797,-4.084,-4.0893,-4.096,-4.1047,-4.1078,-4.109,-4.1169,-4.1191,-4.1191,-4.1191,-4.1191,-4.1289,-4.2713,-4.3982,-4.5094,-4.5952,-4.6301,-4.6301,-4.63,-4.63,-4.6299,0.0,0.0,0.0,0.0,0.0,0.0,0.0,0.0,0.0,0.0,0.0,0.0,0.0,0.0,0.0,0.0,0.0,0.0,0.0,-3.1215,-3.1603,-3.2474,-3.3332,-3.4167,-3.5002,-3.5523,-3.5795,-3.5795,-3.5795,-3.5795,-3.5795,-3.5795,-3.5795,-3.5795,-3.5795,-3.5795,-3.5795,-3.5795,-3.5795,-3.5795,-3.5795,-3.5795,-3.5795,0.0,0.0,0.0,0.0,0.0,0.0,0.0,0.0,0.0,0.0,0.0,0.0,-3.5806,-3.5778,-3.5741,-3.5704,0.0,0.0,0.0,0.0,0.0,0.0,0.0,0.0,0.0,0.0,-4.0797,-4.0797,-4.0797,0.0,-4.0797,-4.0797,-4.0797,-4.0797,-4.0797,-4.0797,-4.0797,-4.0797,-4.0797,-4.0797,-4.0797,-4.0797,-4.0797,-4.0797,-4.0797,-4.0797,-4.0797,-4.0797,-4.0797,-4.0797,-4.0797,-4.0797,-4.0877,-4.0932,-4.0994,-4.107,-4.1115,-4.1144,-4.1171,-4.1191,-4.1191,-4.1191,-4.1387,-4.1777,-4.3144,-4.4218,-4.5097,-4.5955,-4.6306,-4.6306,-4.6305,-4.6304,-4.6304,0.0,0.0,0.0,0.0,0.0,0.0,0.0,0.0,0.0,0.0,0.0,0.0,0.0,0.0,0.0,0.0,0.0,0.0,0.0,0.0,-3.2493,-3.3371,-3.4187,-3.4983,-3.5775,-3.5795,-3.5795,-3.5795,-3.5795,-3.5795,-3.5795,-3.5795,-3.5795,-3.5795,-3.5795,-3.5795,-3.5795,-3.5795,-3.5795,-3.5795,-3.5795,-3.5795,-3.5795,-3.5795,0.0,0.0,0.0,0.0,0.0,0.0,0.0,0.0,-3.5795,-3.5795,-3.5791,-3.5793,-3.5766,-3.5704,0.0,0.0,0.0,0.0,0.0,0.0,0.0,0.0,0.0,0.0,0.0,-4.0797,-4.0797,-4.0797,-4.0797,-4.0797,-4.0797,-4.0797,-4.0797,-4.0797,-4.0797,-4.0797,-4.0797,-4.0797,-4.0797,-4.0797,-4.0797,-4.0797,-4.0797,-4.0797,-4.0797,-4.0797,-4.0797,-4.0797,-4.0797,-4.0803,-4.0815,-4.0888,-4.0945,-4.1003,-4.1076,-4.1144,-4.1191,-4.1191,-4.1191,-4.1191,-4.1191,-4.166,-4.2461,-4.334,-4.4219,-4.5098,-4.5957,-4.6308,-4.6289,-4.621,-4.617,-4.617,0.0,0.0,0.0,0.0,0.0,0.0,0.0,0.0,0.0,0.0,0.0,0.0,0.0,0.0,0.0,0.0,0.0,0.0,0.0,0.0,-3.339,-3.421,-3.5061,-3.56,-3.5795,-3.5795,-3.5795,-3.5795,-3.5795,-3.5795,-3.5795,-3.5795,-3.5795,-3.5795,-3.5795,-3.5795,-3.5795,-3.5795,-3.5795,-3.5795,-3.5795,-3.5795,-3.5795,-3.5795,-3.5795,0.0,0.0,0.0,0.0,0.0,0.0,0.0,-3.5795,-3.5795,-3.5795,-3.581,-3.5793,-3.577,0.0,0.0,0.0,0.0,0.0,0.0,0.0,0.0,0.0,0.0,0.0,-4.0797,-4.0797,-4.0797,-4.0797,-4.0797,-4.0797,-4.0797,-4.0797,-4.0797,-4.0797,-4.0797,-4.0797,-4.0797,-4.0797,-4.0797,-4.0797,-4.0797,-4.0797,-4.0797,-4.0797,-4.0797,-4.0797,-4.0797,-4.0797,-4.0825,-4.0873,-4.0949,-4.1006,-4.1078,-4.1145,-4.1191,-4.1191,-4.1191,-4.1191,-4.1191,-4.1191,-4.166,-4.2461,-4.334,-4.4219,-4.5098,-4.5957,-4.6308,-4.6211,-4.5527,-4.5273,-4.5176,0.0,0.0,0.0,0.0,0.0,0.0,0.0,0.0,0.0,0.0,0.0,0.0,0.0,0.0,0.0,0.0,0.0,0.0,0.0,0.0,-3.4245,-3.51,-3.5562,-3.5795,-3.5795,-3.5795,-3.5795,-3.5795,-3.5795,-3.5795,-3.5795,-3.5795,-3.5795,-3.5795,-3.5795,-3.5795,-3.5795,-3.5795,-3.5795,-3.5795,-3.5795,-3.5795,-3.5795,-3.5795,-3.5795,-3.5795,-3.5795,0.0,0.0,0.0,0.0,0.0,0.0,0.0,-3.5795,-3.5801,-3.5793,-3.5794,0.0,0.0,0.0,0.0,0.0,0.0,0.0,0.0,0.0,0.0,0.0,-4.0797,-4.0797,-4.0797,-4.0797,-4.0797,-4.0797,-4.0797,-4.0797,-4.0797,-4.0797,-4.0797,-4.0797,-4.0797,-4.0797,-4.0797,-4.0797,-4.0797,-4.0797,-4.0797,-4.0797,-4.0797,-4.0797,-4.0797,-4.0831,-4.0853,-4.0907,-4.099,-4.1068,-4.1109,-4.1169,-4.1191,-4.1191,-4.1191,-4.1191,-4.1191,-4.1191,-4.166,-4.2461,-4.334,-4.4219,-4.5098,-4.5957,-4.6055,-4.5625,-4.5176,-4.4746,-4.4316,0.0,0.0,0.0,0.0,0.0,0.0,0.0,0.0,0.0,0.0,0.0,0.0,0.0,0.0,0.0,0.0,0.0,0.0,0.0,0.0,0.0,-3.5775,-3.5795,-3.5795,-3.5795,-3.5795,-3.5795,-3.5795,-3.5795,-3.5795,0.0,-3.5795,-3.5795,-3.5795,-3.5795,-3.5795,-3.5795,-3.5795,-3.5795,-3.5795,-3.5795,-3.5795,-3.5795,-3.5795,-3.5795,-3.5795,-3.5795,-3.5795,-3.5799,-3.5811,0.0,0.0,0.0,0.0,-3.5811,-3.5797,-3.5797,-3.5793,0.0,0.0,0.0,0.0,0.0,0.0,0.0,0.0,0.0,0.0,-4.0797,-4.0797,-4.0797,-4.0797,-4.0797,-4.0797,-4.0797,-4.0797,-4.0797,-4.0797,-4.0797,-4.0797,-4.0797,-4.0797,-4.0797,-4.0797,-4.0797,-4.0797,-4.0797,-4.0797,-4.0797,-4.0797,-4.0803,-4.0827,-4.0863,-4.0906,-4.0937,-4.1035,-4.1112,-4.1116,-4.117,-4.1191,-4.1191,-4.1191,-4.1191,-4.1191,-4.1191,-4.166,-4.2461,-4.3183,-4.3984,-4.4844,-4.5566,-4.541,-4.4766,-4.4609,-4.4082,-4.3457,0.0,0.0,0.0,0.0,0.0,0.0,0.0,0.0,0.0,0.0,0.0,0.0,0.0,0.0,0.0,0.0,0.0,0.0,0.0,0.0,0.0,-3.5795,-3.5795,-3.5795,-3.5795,-3.5795,-3.5795,-3.5795,-3.5795,0.0,0.0,0.0,0.0,-3.5795,-3.5795,-3.5795,-3.5795,-3.5795,-3.5795,-3.5795,-3.5795,-3.5795,-3.5795,-3.5795,-3.5795,-3.5795,-3.5795,-3.5795,-3.5807,-3.5876,-3.5856,0.0,0.0,0.0,-3.5885,-3.5815,-3.5791,0.0,0.0,0.0,0.0,0.0,0.0,0.0,0.0,0.0,0.0,0.0,-4.0797,-4.0797,-4.0797,-4.0797,-4.0797,-4.0797,-4.0797,-4.0797,-4.0797,-4.0797,-4.0797,-4.0797,-4.0797,-4.0797,-4.0797,-4.0797,-4.0797,-4.0797,-4.0797,-4.0797,-4.0797,-4.0797,-4.0825,-4.0883,-4.0903,-4.0964,-4.1074,-4.1085,-4.1121,-4.1191,-4.1191,-4.1191,-4.1191,-4.1191,-4.1191,-4.1191,-4.1191,-4.166,-4.2402,-4.2539,-4.3086,-4.3887,-4.4004,-4.3984,-4.3789,-4.3027,-4.2676,-4.2461,0.0,0.0,0.0,0.0,0.0,0.0,0.0,0.0,0.0,0.0,0.0,0.0,0.0,0.0,0.0,0.0,0.0,0.0,0.0,0.0,0.0,-3.5795,-3.5795,-3.5795,-3.5795,-3.5795,-3.5795,-3.5795,0.0,0.0,0.0,-3.5795,-3.5795,0.0,0.0,0.0,-3.5795,-3.5795,-3.5795,-3.5795,-3.5795,-3.5795,-3.5795,-3.5795,-3.5795,-3.5795,-3.5795,-3.5795,-3.5807,-3.5888,-3.5872,-3.585,-3.588,0.0,0.0,0.0,0.0,0.0,0.0,0.0,0.0,0.0,0.0,0.0,0.0,0.0,0.0,0.0,-4.0468,-4.0797,-4.0797,-4.0797,-4.0797,-4.0797,-4.0797,-4.0797,-4.0797,-4.0797,-4.0797,-4.0797,-4.0797,-4.0797,-4.0797,-4.0837,-4.0856,-4.0856,-4.0893,-4.0906,-4.0906,-4.0906,-4.0924,-4.0961,-4.0987,-4.103,-4.1109,-4.1142,-4.117,-4.1191,-4.1191,-4.1191,-4.1191,-4.1191,-4.1191,-4.1191,-4.1191,-4.1406,-4.1758,-4.2207,-4.2637,-4.3027,-4.3516,-4.3398,-4.293,-4.2539,-4.2109,-4.168,0.0,0.0,0.0,0.0,0.0,0.0,0.0,0.0,0.0,0.0,0.0,0.0,0.0,0.0,0.0,0.0,0.0,0.0,0.0,0.0,0.0,-3.5795,-3.5795,-3.5795,-3.5795,-3.5795,-3.5795,-3.5795,0.0,0.0,-3.5795,-3.5795,-3.5795,0.0,-3.5795,-3.5795,0.0,0.0,0.0,-3.5795,-3.5795,-3.5795,-3.5795,-3.5795,-3.5795,-3.5799,-3.5819,-3.5827,-3.5826,-3.5887,-3.5901,-3.5892,-3.5906,-3.5908,0.0,0.0,0.0,0.0,0.0,0.0,0.0,0.0,0.0,0.0,0.0,0.0,0.0,0.0,-4.0023,-4.0545,-4.0758,-4.0797,-4.0797,-4.0797,-4.0797,-4.0797,-4.0797,-4.0797,-4.0809,-4.082,-4.0825,-4.0837,-4.0846,-4.0903,-4.0924,-4.0924,-4.096,-4.099,-4.099,-4.099,-4.1019,-4.1017,-4.1074,-4.1112,-4.1139,-4.117,-4.1191,-4.1191,-4.1191,-4.1191,-4.1191,-4.1191,-4.1191,-4.1191,-4.1191,-4.1191,-4.125,-4.1855,-4.2109,-4.2168,-4.2812,-4.2676,-4.2109,-4.2109,-4.1719,-4.1191,0.0,0.0,0.0,0.0,0.0,0.0,0.0,0.0,0.0,0.0,0.0,0.0,0.0,-3.5775,-3.5795,-3.5795,-3.5795,-3.5795,-3.5795,-3.5795,-3.5795,-3.5795,-3.5795,0.0,-3.5795,-3.5795,-3.5795,0.0,0.0,0.0,-3.5795,-3.5795,-3.5795,-3.5795,-3.5795,-3.5795,-3.5795,0.0,0.0,0.0,-3.5795,-3.5795,-3.5795,0.0,0.0,0.0,-3.5862,0.0,0.0,0.0,0.0,0.0,0.0,0.0,0.0,0.0,0.0,0.0,0.0,0.0,0.0,0.0,0.0,0.0,0.0,0.0,0.0,0.0,-3.9539,-3.981,-4.0642,-4.0797,-4.0797,-4.0797,-4.0797,-4.0797,-4.0797,-4.0797,-4.082,-4.0888,-4.0898,-4.0915,-4.0974,-4.0984,-4.0987,-4.0987,-4.101,-4.099,-4.099,-4.099,-4.1039,-4.1085,-4.1108,-4.1121,-4.1191,-4.1191,-4.1191,-4.1191,-4.1191,-4.1191,-4.1191,-4.1191,-4.1191,-4.1191,-4.1191,-4.1191,-4.1191,-4.125,-4.1269,-4.1269,-4.1308,-4.1308,-4.1269,-4.1269,-4.123,-4.1191,0.0,0.0,0.0,0.0,0.0,0.0,0.0,0.0,0.0,0.0,0.0,0.0,0.0,-3.5795,-3.5795,-3.5795,-3.5845,-3.5853,-3.5853,-3.5853,-3.5851,-3.5851,-3.5851,-3.5851,-3.5851,-3.5851,-3.5855,0.0,0.0,-3.5849,-3.5795,-3.5795,-3.5795,-3.5795,-3.5795,-3.5795,-3.5795,-3.5795,0.0,-3.5795,-3.5795,-3.5795,-3.5795,0.0,0.0,0.0,0.0,0.0,0.0,0.0,0.0,0.0,0.0,0.0,0.0,0.0,0.0,0.0,0.0,0.0,0.0,0.0,0.0,0.0,0.0,0.0,0.0,-3.7696,-3.8719,-3.9607,-3.9911,-4.0422,-4.0797,-4.0797,-4.0797,-4.0803,-4.0802,-4.0809,-4.0812,-4.0882,-4.0897,-4.0924,-4.0984,-4.1047,-4.1068,-4.1068,-4.1109,-4.1139,-4.1139,-4.1139,-4.1143,-4.1169,-4.1169,-4.117,-4.1191,-4.1191,-4.1191,-4.1191,-4.1191,-4.1191,-4.1191,-4.1191,-4.1191,-4.1191,-4.1191,-4.1191,-4.1191,-4.1191,-4.1191,-4.1191,-4.1191,-4.1191,-4.1191,-4.1191,-4.1191,-4.1191,0.0,0.0,0.0,0.0,0.0,0.0,0.0,0.0,0.0,0.0,0.0,0.0,0.0,0.0,-3.5795,-3.5795,-3.5849,-3.5876,-3.5876,-3.5892,-3.5898,-3.5898,-3.5908,-3.5895,-3.5895,-3.5895,-3.5903,0.0,0.0,0.0,0.0,-3.5811,-3.5795,-3.5795,-3.5795,-3.5795,0.0,0.0,0.0,-3.5795,-3.5795,-3.5795,-3.5795,0.0,0.0,0.0,0.0,0.0,0.0,0.0,0.0,0.0,0.0,0.0,0.0,0.0,0.0,0.0,0.0,0.0,0.0,0.0,0.0,0.0,0.0,0.0,0.0,-3.6867,-3.7835,-3.8717,-3.9049,-3.9782,-4.0461,-4.0751,-4.0802,-4.0808,-4.0794,-4.0829,-4.0859,-4.0929,-4.0924,-4.0955,-4.1031,-4.1094,-4.1122,-4.1122,-4.117,-4.1191,-4.1191,-4.1191,-4.1191,-4.1191,-4.1191,-4.1191,-4.1191,-4.1191,-4.1191,-4.1191,-4.1191,-4.1191,-4.1191,-4.1191,-4.1191,-4.1191,-4.1191,-4.1191,-4.1191,-4.1191,-4.1191,-4.1191,-4.1191,-4.1191,-4.1191,-4.1191,-4.1191,-4.1191,0.0,0.0,0.0,0.0,0.0,0.0,0.0,0.0,0.0,-3.5795,0.0,0.0,0.0,0.0,0.0,-3.5795,-3.5799,-3.5799,-3.5799,-3.5856,-3.5894,-3.5894,-3.59,-3.5897,-3.5897,-3.5896,-3.5895,0.0,0.0,0.0,0.0,0.0,-3.5795,-3.5795,-3.5795,-3.5795,-3.5795,0.0,-3.5795,-3.5795,0.0,-3.5795,-3.5795,0.0,0.0,0.0,-3.5886,-3.5895,0.0,-3.5989,0.0,0.0,0.0,0.0,0.0,0.0,0.0,0.0,0.0,0.0,0.0,0.0,0.0,0.0,0.0,0.0,0.0,-3.6798,-3.6925,-3.7177,-3.8082,-3.8924,-3.9735,-4.0587,-4.0771,-4.0796,-4.0812,-4.0844,-4.0889,-4.0957,-4.095,-4.0951,-4.1053,-4.1113,-4.1172,-4.1191,-4.1191,-4.1191,-4.1191,-4.1191,-4.1191,-4.1191,-4.1191,-4.1191,-4.1191,-4.1191,-4.1191,-4.1191,-4.1191,-4.1191,-4.1191,-4.1191,-4.1191,-4.1191,-4.1191,-4.1191,-4.1191,-4.1191,-4.1191,-4.1191,-4.1191,-4.1191,-4.1191,-4.1191,-4.1191,-4.1191,0.0,0.0,0.0,0.0,0.0,0.0,0.0,0.0,0.0,0.0,0.0,0.0,-3.5795,-3.5795,-3.5795,-3.5795,-3.5833,-3.5862,-3.5862,-3.5887,-3.5891,-3.5891,-3.5957,-3.5972,-3.5972,-3.5918,-3.5892,0.0,0.0,0.0,0.0,0.0,0.0,0.0,-3.5795,-3.5795,-3.5795,-3.5795,0.0,-3.5795,-3.5795,-3.5795,0.0,0.0,0.0,0.0,0.0,-3.5895,-3.5903,0.0,-3.5992,-3.5992,0.0,0.0,0.0,0.0,0.0,0.0,-3.5992,0.0,0.0,0.0,0.0,0.0,0.0,0.0,0.0,-3.6009,-3.658,-3.7107,-3.7327,-3.8059,-3.8714,-3.8954,-4.0014,-4.0819,-4.0866,-4.0357,-3.9991,-4.0122,-3.958,-3.947,-4.0153,-4.025,-4.0505,0.0,-4.1132,-4.1152,-4.1191,-4.1191,-4.1191,-4.1191,-4.1191,-4.1191,-4.1191,-4.1191,-4.1191,-4.1191,-4.1191,-4.1191,-4.1191,-4.1191,-4.1191,-4.1191,-4.1191,-4.1191,-4.1191,-4.1191,-4.1191,-4.1191,-4.1191,-4.1191,-4.1191,-4.1191,-4.1191,-4.1191,0.0,0.0,0.0,0.0,0.0,0.0,0.0,0.0,0.0,0.0,0.0,0.0,-3.5795,-3.5795,-3.5795,-3.5795,-3.5841,-3.5866,-3.5866,-3.5873,-3.5907,-3.5894,-3.5936,-3.5964,-3.5992,-3.5935,-3.5898,0.0,0.0,0.0,0.0,0.0,0.0,0.0,0.0,0.0,0.0,0.0,0.0,0.0,-3.5795,0.0,0.0,-3.5795,-3.5819,0.0,0.0,0.0,-3.5914,-3.5987,-3.5992,0.0,0.0,0.0,0.0,0.0,0.0,0.0,0.0,0.0,0.0,0.0,0.0,0.0,-3.5917,-3.587,-3.5828,0.0,-3.6209,-3.6547,-3.6545,-3.7233,-3.7803,-3.7851,-3.8656,-3.9427,-3.9808,-3.9755,-3.9575,-3.9294,-3.8828,-3.8769,-3.9309,-3.9368,-3.9546,-4.0017,-4.0056,-4.0232,-4.0644,-4.0664,-4.082,-4.1191,-4.1191,-4.1191,-4.1191,-4.1191,-4.1191,-4.1191,-4.1191,-4.1191,-4.1191,-4.1191,-4.1191,-4.1191,-4.1191,-4.1191,-4.1191,-4.1191,-4.1191,-4.1191,-4.1191,-4.1191,-4.1191,-4.1191,-4.1191,-4.1191,0.0,0.0,0.0,0.0,0.0,0.0,0.0,0.0,0.0,0.0,-3.5795,-3.5795,-3.5795,-3.5795,-3.5795,-3.5795,-3.5795,-3.5795,-3.5795,-3.5853,-3.589,-3.5908,-3.5895,-3.5936,-3.5998,-3.5935,-3.5898,0.0,0.0,0.0,0.0,0.0,0.0,0.0,0.0,0.0,0.0,0.0,0.0,-3.5795,-3.5795,-3.5795,0.0,0.0,-3.5856,-3.5897,-3.5907,-3.5892,-3.5918,-3.5982,-3.5992,0.0,0.0,0.0,0.0,0.0,-3.5992,0.0,0.0,0.0,0.0,0.0,0.0,0.0,-3.5918,-3.5918,-3.5916,-3.5896,-3.5843,-3.5838,-3.588,-3.6485,-3.6955,-3.692,-3.6981,-3.7334,-3.8147,-3.8821,-3.8984,-3.8301,-3.8198,-3.8247,-3.8443,-3.8468,-3.849,-3.8588,-3.8609,-3.8942,-3.9706,-3.9765,-4.0156,-4.1035,-4.1055,-4.1094,-4.1191,-4.1191,-4.1191,-4.1191,-4.1191,-4.1191,-4.1191,-4.1191,-4.1191,-4.1191,-4.1191,-4.1191,-4.1191,-4.1191,-4.1191,-4.1191,-4.1191,-4.1191,-4.1191,-4.1191,-4.1191,-4.1191,0.0,0.0,0.0,0.0,0.0,0.0,0.0,0.0,0.0,0.0,-3.5795,-3.5795,-3.5795,-3.5795,-3.5795,-3.5795,-3.5795,-3.5795,-3.5795,-3.5853,-3.5894,-3.5904,-3.5908,-3.5918,-3.5917,-3.5918,-3.5897,0.0,0.0,0.0,0.0,0.0,0.0,0.0,0.0,0.0,0.0,0.0,0.0,-3.5795,-3.5795,0.0,-3.5803,-3.5869,-3.5897,-3.5902,-3.5909,-3.5898,-3.5918,-3.5982,-3.5992,-3.5992,0.0,0.0,0.0,-3.5992,0.0,0.0,0.0,0.0,0.0,0.0,0.0,0.0,-3.5982,-3.5983,-3.597,0.0,-3.5894,-3.5868,-3.5839,-3.5994,-3.591,-3.5226,-3.57,-3.6443,-3.7302,-3.6425,-3.5898,-3.6414,-3.5882,-3.6016,-3.7421,-3.7559,-3.7835,-3.8543,-3.8609,-3.867,-3.8846,-3.8847,-3.9258,-4.0137,-4.0156,-4.0488,-4.1191,-4.1191,-4.1191,-4.1191,-4.1191,-4.1191,-4.1191,-4.1191,-4.1191,-4.1191,-4.1191,-4.1191,-4.1191,-4.1191,-4.1191,-4.1191,-4.1191,-4.1191,-4.1191,-4.1191,-4.1191,-4.1191,0.0,0.0,0.0,0.0,0.0,0.0,0.0,0.0,0.0,0.0,-3.5795,-3.5795,-3.5795,-3.5795,-3.5795,-3.5795,-3.5795,-3.5795,-3.5795,-3.5834,-3.5876,-3.5908,-3.5898,-3.5908,-3.5898,-3.5908,-3.5896,0.0,0.0,0.0,0.0,0.0,0.0,0.0,0.0,0.0,0.0,0.0,-3.71,-3.7023,-3.6144,0.0,-3.5803,-3.5866,-3.5907,-3.5896,-3.5895,-3.5917,-3.597,-3.5998,-3.5992,0.0,-3.5992,-3.5992,-3.5992,0.0,-3.5992,-3.5992,0.0,0.0,0.0,-3.5992,0.0,0.0,0.0,-3.5992,-3.5998,-3.5951,-3.5953,-3.5936,-3.5916,-3.5936,-3.5664,-3.4785,-3.4645,-3.4644,-3.4664,-3.4684,-3.47,-3.4707,-3.4314,-3.4393,-3.5271,-3.5759,-3.6366,-3.7248,-3.7296,-3.7496,-3.7927,-3.7948,-3.8359,-3.9219,-3.9668,-4.0117,-4.0547,-4.0976,-4.1191,-4.1191,-4.1191,-4.1191,-4.1191,-4.1191,-4.1191,-4.1191,-4.1191,-4.1191,-4.1191,-4.1191,-4.1191,-4.1191,-4.1191,-4.1191,-4.1191,-4.1191,-4.1191,-4.1191,0.0,0.0,0.0,0.0,0.0,0.0,0.0,0.0,0.0,0.0,0.0,0.0,0.0,0.0,0.0,0.0,0.0,-3.5893,-3.6051,-3.6044,-3.6078,-3.6122,-3.6292,-3.6298,-3.6129,-3.6141,-3.6142,-3.6139,0.0,0.0,0.0,0.0,0.0,0.0,0.0,0.0,0.0,0.0,0.0,-3.827,0.0,-3.6297,-3.6312,-3.6387,-3.6397,-3.6407,-3.6426,-3.6458,-3.648,-3.6305,-3.6246,-3.6226,-3.6051,-3.5992,0.0,0.0,0.0,0.0,0.0,0.0,0.0,0.0,0.0,-3.5992,0.0,0.0,0.0,-3.5992,-3.5992,0.0,0.0,0.0,0.0,0.0,0.0,0.0,0.0,-3.3066,0.0,-3.3201,-3.3143,-3.3221,-3.3377,-3.4198,-3.4998,-3.5699,-3.5902,-3.6319,-3.7005,-3.7048,-3.7441,-3.832,-3.9023,-3.9551,-3.9902,-4.0605,-4.1035,-4.1191,-4.1191,-4.1191,-4.1191,-4.1191,-4.1191,-4.1191,-4.1191,-4.1191,-4.1191,-4.1191,-4.1191,-4.1191,-4.1191,-4.1191,-4.1191,-4.1191,-4.1191,-4.1191,-3.5795,-3.5795,0.0,0.0,0.0,0.0,0.0,0.0,0.0,0.0,0.0,0.0,0.0,0.0,0.0,0.0,0.0,0.0,-3.691,0.0,0.0,-3.6961,-3.7702,-3.774,-3.6979,-3.7016,-3.7016,-3.6969,0.0,0.0,0.0,0.0,0.0,0.0,-3.8212,0.0,0.0,0.0,-3.8406,0.0,-3.8176,-3.8104,0.0,-3.8185,-3.8198,-3.8207,-3.8277,-3.8301,-3.8181,0.0,-3.7145,-3.7028,0.0,-3.5992,-3.5992,-3.5992,0.0,0.0,0.0,0.0,0.0,0.0,-3.5992,0.0,0.0,0.0,-3.5992,-3.5992,0.0,0.0,0.0,0.0,0.0,0.0,0.0,0.0,-3.1171,-3.1113,-3.1485,-3.2168,-3.2246,-3.2558,-3.3338,-3.4198,-3.4744,-3.4842,-3.5552,-3.6043,-3.6142,-3.6149,-3.6542,-3.7421,-3.7539,-3.834,-3.9883,-4.0,-4.0449,-4.1191,-4.1191,-4.1191,-4.1191,-4.1191,-4.1191,-4.1191,-4.1191,-4.1191,-4.1191,-4.1191,-4.1191,-4.1191,-4.1191,-4.1191,-4.1191,-4.1191,-4.1191,-4.1191,-3.5795,-3.5795,0.0,0.0,0.0,0.0,0.0,0.0,0.0,0.0,0.0,0.0,0.0,0.0,0.0,0.0,0.0,-3.7491,0.0,0.0,0.0,0.0,-3.8202,-3.8221,-3.7851,-3.7887,-3.7887,-3.7851,-3.7511,0.0,0.0,0.0,0.0,0.0,-3.8926,0.0,-3.9179,0.0,-3.9839,0.0,0.0,0.0,0.0,-3.8867,-3.8515,-3.8553,-3.8599,-3.8591,-3.8533,0.0,-3.8045,0.0,0.0,0.0,0.0,-3.6891,0.0,0.0,0.0,0.0,0.0,0.0,0.0,0.0,-3.5992,0.0,-3.5992,0.0,0.0,0.0,0.0,0.0,0.0,0.0,-3.3396,0.0,0.0,0.0,-3.0937,0.0,0.0,0.0,-3.2558,-3.2988,-3.3398,-3.3905,-3.4747,-3.5258,-3.5242,-3.5734,-3.6168,-3.6522,-3.7031,-3.789,-3.9121,-3.9648,-4.0332,-4.1191,-4.1191,-4.1191,-4.1191,-4.1191,-4.1191,-4.1191,-4.1191,-4.1191,-4.1191,-4.1191,-4.1191,-4.1191,-4.1191,-4.1191,-4.1191,-4.1191,-4.1191,-4.1191,-3.5795,0.0,0.0,0.0,0.0,0.0,0.0,0.0,0.0,0.0,0.0,0.0,-3.7422,-3.7989,0.0,0.0,-3.8408,-3.8525,0.0,0.0,-3.8765,0.0,0.0,0.0,0.0,-3.876,-3.8769,0.0,0.0,0.0,0.0,0.0,0.0,0.0,0.0,-4.0033,-4.0072,0.0,-4.0902,-4.0932,-4.0974,-4.1015,-4.0886,-3.9685,-3.9234,-3.9294,-3.9294,-3.9294,-3.9255,-3.9001,-3.8923,-3.8884,-3.8669,-3.8591,-3.8474,0.0,0.0,0.0,-3.6539,0.0,0.0,0.0,0.0,0.0,0.0,0.0,0.0,0.0,0.0,0.0,0.0,0.0,0.0,0.0,0.0,-3.2869,0.0,-3.1153,0.0,0.0,0.0,0.0,0.0,-3.1953,-3.2363,-3.3007,-3.4061,-3.4708,-3.4693,-3.5535,-3.6007,-3.5993,-3.6619,-3.7362,-3.8242,-3.9101,-3.998,-4.0859,-4.1094,-4.1191,-4.1191,-4.1191,-4.1191,-4.1191,-4.1191,-4.1191,-4.1191,-4.1191,-4.1191,-4.1191,-4.1191,-4.1191,-4.1172,-4.1191,-4.1191,-4.1191,-3.5795,-3.5795,0.0,0.0,0.0,0.0,0.0,0.0,0.0,0.0,0.0,0.0,0.0,0.0,0.0,0.0,0.0,-3.8826,-3.9616,0.0,-3.9698,0.0,0.0,-4.0466,0.0,0.0,0.0,0.0,0.0,0.0,0.0,0.0,0.0,0.0,0.0,-4.0869,-4.0869,-4.0888,-4.0941,-4.0994,-4.0994,-4.1033,-4.1097,0.0,-4.1011,-4.1012,-4.1012,-4.1012,-4.0894,-4.0054,-3.9761,-3.9624,-3.8845,-3.8591,0.0,0.0,0.0,0.0,0.0,0.0,0.0,-3.5992,0.0,0.0,0.0,0.0,-3.5992,0.0,0.0,0.0,0.0,0.0,0.0,0.0,0.0,0.0,0.0,0.0,0.0,0.0,0.0,0.0,0.0,-3.1602,-3.211,-3.215,-3.3729,-3.4705,-3.4707,-3.5532,-3.6004,-3.6005,-3.6028,-3.6462,-3.7323,-3.8202,-3.9081,-3.9941,-4.0801,-4.1191,-4.1191,-4.1191,-4.1191,-4.1191,-4.1191,-4.1191,-4.1191,-4.1191,-4.1191,-4.1191,-4.1191,-4.1152,-4.1112,-4.1172,-4.1191,-4.1191,0.0,0.0,0.0,0.0,0.0,0.0,0.0,-3.7392,0.0,0.0,-3.8708,0.0,0.0,-3.9746,-4.0092,0.0,0.0,-4.0265,-4.0545,-4.0564,0.0,0.0,0.0,-4.0785,0.0,0.0,0.0,0.0,0.0,0.0,0.0,0.0,0.0,0.0,0.0,-4.0924,0.0,0.0,0.0,0.0,0.0,-4.1073,-4.1091,0.0,-4.1098,-4.1109,-4.1109,-4.1109,-4.1051,-4.0758,-4.0659,-4.06,-4.0348,-4.025,-4.0133,-3.9566,-3.9195,-3.8707,-3.7594,-3.7087,-3.6716,-3.6148,-3.5992,0.0,0.0,0.0,0.0,0.0,0.0,0.0,0.0,0.0,0.0,0.0,0.0,0.0,0.0,0.0,0.0,0.0,0.0,0.0,0.0,0.0,-3.2091,-3.2091,-3.2657,-3.3222,-3.3807,-3.4669,-3.5395,-3.5985,-3.6006,-3.6419,-3.7282,-3.816,-3.904,-3.9919,-4.0741,-4.1132,-4.1132,-4.1172,-4.1172,-4.1132,-4.1132,-4.1131,-4.113,-4.113,-4.113,-4.113,-4.113,-4.1129,-4.1109,-4.1131,-4.1131,-4.113,-3.5795,0.0,0.0,0.0,0.0,0.0,0.0,0.0,0.0,0.0,-3.9597,0.0,-4.0155,0.0,-4.1,0.0,-4.1028,-4.1022,-4.0992,-4.1019,0.0,-4.1044,-4.0964,-4.0978,0.0,0.0,0.0,0.0,0.0,-4.1,0.0,0.0,0.0,0.0,0.0,-4.0941,-4.099,0.0,-4.1018,0.0,0.0,-4.1104,0.0,0.0,-4.1109,-4.1109,-4.1109,-4.1109,-4.1109,-4.1109,-4.1109,-4.1109,-4.1109,-4.1109,-4.0992,-4.0424,-4.0034,-3.9566,-3.8473,-3.775,-3.7165,-3.6597,-3.6226,-3.5992,-3.5992,0.0,-3.5992,0.0,0.0,0.0,0.0,0.0,0.0,0.0,0.0,0.0,0.0,-3.3572,0.0,0.0,0.0,0.0,0.0,-3.289,-3.2558,-3.2558,-3.2558,-3.2812,-3.3377,-3.4237,-3.4962,-3.5513,-3.5845,-3.6277,-3.6829,-3.8019,-3.8879,-3.9447,-4.0562,-4.1091,-4.1091,-4.1132,-4.1131,-4.1091,-4.1091,-4.1109,-4.1107,-4.1107,-4.1107,-4.1107,-4.1107,-4.1106,-4.1105,-4.1109,-4.1109,-4.1107,0.0,0.0,0.0,0.0,-3.6673,0.0,0.0,0.0,-3.9685,0.0,-4.0427,-4.0926,-4.0987,-4.1,-4.1005,-4.0991,-4.1052,-4.1073,-4.1017,-4.1052,0.0,0.0,-4.1045,-4.1024,-4.1094,0.0,0.0,0.0,0.0,0.0,0.0,0.0,0.0,0.0,-4.0932,0.0,-4.0997,-4.0997,-4.1039,-4.1093,-4.11,-4.1109,-4.1109,-4.1109,-4.1109,-4.1109,-4.1109,-4.1109,-4.1109,-4.1109,-4.1109,-4.1109,-4.1109,-4.1109,-4.1109,-4.1109,-4.0503,-3.9858,-3.9819,-3.8609,-3.734,-3.7301,-3.6636,-3.5992,-3.5992,-3.5992,-3.5992,0.0,0.0,0.0,0.0,0.0,0.0,0.0,0.0,0.0,0.0,0.0,0.0,0.0,0.0,0.0,0.0,-3.3494,-3.3455,-3.3455,-3.3416,-3.3396,-3.3396,-3.4237,-3.4705,-3.4705,-3.5543,-3.5996,-3.6004,-3.7682,-3.8563,-3.8626,-4.0267,-4.1068,-4.1107,-4.1107,-4.1107,-4.1107,-4.1107,-4.1107,-4.1107,-4.1107,-4.1107,-4.1107,-4.1107,-4.1103,-4.1099,-4.1105,-4.1107,-4.1107,-3.7722,-3.792,-3.8207,0.0,-3.8883,-3.912,0.0,0.0,0.0,0.0,-4.085,-4.0979,-4.0994,-4.1038,-4.1069,-4.1072,-4.1091,0.0,0.0,0.0,0.0,-4.11,-4.1032,-4.103,-4.1101,-4.1092,-4.1093,-4.1073,0.0,0.0,-4.0992,0.0,0.0,0.0,0.0,0.0,-4.0996,-4.0996,-4.1049,-4.1099,-4.1093,-4.1109,-4.1109,-4.1109,-4.1109,-4.1109,-4.1109,-4.1109,-4.1109,-4.1109,-4.1109,-4.1109,-4.1109,-4.1109,-4.1109,-4.1109,-4.0934,-4.062,-3.9976,-3.9058,-3.8103,-3.7458,-3.6636,-3.5992,-3.5992,-3.5992,-3.5992,-3.5992,-3.5992,-3.5992,-3.5992,-3.5992,0.0,0.0,0.0,0.0,0.0,0.0,0.0,-3.5992,0.0,-3.5329,-3.5329,-3.4744,-3.4374,-3.4374,-3.3767,-3.3396,-3.3396,-3.4237,-3.4705,-3.4705,-3.5543,-3.5994,-3.5996,-3.7089,-3.7969,-3.8616,-3.9694,-4.0517,-4.1101,-4.1105,-4.1105,-4.1101,-4.1101,-4.1099,-4.1095,-4.1095,-4.1095,-4.1095,-4.1095,-4.1094,-4.1093,-4.1094,-4.1095,-4.1095,-3.8406,0.0,0.0,-4.0077,0.0,0.0,-4.0272,-4.0657,0.0,-4.1007,-4.0978,0.0,-4.1008,-4.105,-4.1093,-4.1109,-4.1099,0.0,-4.1105,0.0,0.0,-4.1106,-4.1054,-4.1053,-4.1109,-4.1103,0.0,-4.1108,0.0,0.0,-4.1035,0.0,0.0,0.0,0.0,-4.1019,0.0,-4.1033,-4.1072,-4.1109,-4.1109,-4.1109,0.0,-4.1109,-4.1109,-4.1109,-4.1109,-4.1109,-4.1109,-4.1109,-4.1109,-4.1109,-4.1109,-4.1109,-4.1109,-4.1109,-4.1109,-4.0992,-4.0503,-3.9761,-3.9,-3.8512,-3.775,-3.7048,-3.6657,-3.6578,-3.6461,-3.607,-3.5992,-3.5992,-3.5992,-3.5992,0.0,0.0,0.0,0.0,0.0,0.0,0.0,0.0,-3.5947,-3.5919,-3.5825,-3.5483,-3.5271,-3.5271,-3.4436,-3.3947,-3.3962,-3.4048,-3.428,-3.4686,-3.5174,-3.5602,-3.5992,-3.6852,-3.7731,-3.8611,-3.9454,-4.0295,-4.1095,-4.1099,-4.1099,-4.1095,-4.1095,-4.1093,-4.1109,-4.1109,-4.1109,-4.1109,-4.1109,-4.1109,-4.1109,-4.1109,-4.1109,-4.1109,0.0,0.0,0.0,0.0,0.0,0.0,-4.1003,-4.0953,-4.0945,-4.1009,0.0,-4.1113,-4.1176,-4.1347,-4.1442,-4.1443,-4.1343,-4.1275,-4.1269,-4.1161,-4.11,-4.1093,-4.1101,-4.1109,-4.1109,-4.1109,-4.1109,0.0,0.0,0.0,0.0,0.0,0.0,0.0,0.0,0.0,0.0,-4.1101,-4.1109,-4.1109,-4.1109,-4.1109,-4.1109,-4.1109,-4.1109,-4.1109,-4.1109,-4.1109,-4.1109,-4.1109,-4.1109,-4.1109,-4.1109,-4.1109,-4.1109,-4.1109,-4.1109,-4.1109,-4.1109,-4.0464,-3.98,-3.98,-3.9195,-3.8396,-3.7633,-3.7477,-3.7223,-3.6344,-3.6168,-3.6148,-3.6012,-3.5892,0.0,0.0,0.0,0.0,0.0,0.0,0.0,0.0,0.0,0.0,-3.5626,-3.5816,-3.5958,-3.5958,-3.5217,-3.473,-3.4698,0.0,-3.3845,-3.4666,-3.4705,-3.5115,-3.5992,-3.6755,-3.7614,-3.8611,-3.9312,-4.0151,-4.1109,-4.1109,-4.1109,-4.1109,-4.1109,-4.1109,-4.1109,-4.1109,-4.1109,-4.1108,-4.1085,-4.1081,-4.1081,-4.1076,-4.1078,-4.1083,0.0,0.0,0.0,0.0,0.0,-4.1017,-4.107,-4.1069,-4.1067,-4.1071,-4.1699,-4.2142,-4.2157,-4.2817,-4.3241,-4.3237,-4.2591,0.0,0.0,0.0,0.0,-4.1097,-4.1093,-4.1109,-4.1109,-4.1109,-4.1109,0.0,0.0,0.0,0.0,0.0,0.0,0.0,0.0,0.0,-4.1094,-4.1101,0.0,-4.1109,-4.1109,-4.1109,-4.1109,-4.1109,-4.1109,-4.1109,-4.1109,-4.1109,-4.1109,-4.1109,-4.1109,-4.1109,-4.1109,-4.1109,-4.1109,-4.1109,-4.1109,-4.1109,-4.1109,-4.0464,-3.98,-3.98,-3.9195,-3.8552,-3.8415,-3.8376,-3.8123,-3.7243,-3.7067,-3.6852,-3.6129,-3.5362,-3.4518,0.0,0.0,0.0,0.0,0.0,0.0,0.0,0.0,-3.5725,-3.5683,-3.5729,-3.5753,-3.5757,-3.5601,-3.5246,-3.465,0.0,-3.4469,-3.4686,-3.4705,-3.5115,-3.5992,-3.6148,-3.7028,-3.8591,-3.8747,-3.9606,-4.1109,-4.1109,-4.1109,-4.1109,-4.1109,-4.1109,-4.1109,-4.1109,-4.1109,-4.1087,-4.1047,-4.1028,-4.1003,-4.0887,-4.0921,-4.1037,0.0,0.0,0.0,0.0,0.0,-4.1211,-4.1699,-4.1775,-4.1773,-4.1777,-4.2536,-4.3079,-4.3079,-4.3441,-4.3705,-4.3705,-4.3313,-4.2884,-4.2435,-4.2006,-4.1576,-4.1129,-4.1109,-4.1109,-4.1109,-4.1109,-4.1109,-4.1109,0.0,0.0,0.0,0.0,0.0,0.0,0.0,-4.1107,0.0,0.0,-4.1109,-4.1109,-4.1109,-4.1109,-4.1109,-4.1109,-4.1109,-4.1109,-4.1109,-4.1109,-4.1109,-4.1109,-4.1109,-4.1109,-4.1109,-4.1109,-4.1109,-4.1109,-4.1109,-4.1109,-4.1109,-4.0797,-4.0464,-4.0464,-4.0172,-3.9782,-3.9331,-3.9214,-3.898,-3.8142,-3.7614,-3.7028,-3.6168,-3.4885,-3.3832,-3.3368,-3.254,0.0,0.0,0.0,0.0,0.0,0.0,0.0,0.0,0.0,0.0,0.0,0.0,0.0,-3.5336,0.0,-3.4339,-3.5348,-3.451,-3.4665,-3.5992,-3.5992,-3.6872,-3.8591,-3.8591,-3.9489,-4.1109,-4.1109,-4.1109,-4.1109,-4.1109,-4.1109,-4.1109,-4.1109,-4.1109,-4.1087,-4.1037,-4.099,-4.0984,-4.0846,-4.0837,-4.0906,0.0,-4.121,0.0,0.0,-4.1482,-4.1878,-4.2576,-4.2821,-4.2893,-4.2693,-4.3436,-4.3982,-4.3982,-4.4147,-4.4252,-4.4252,-4.4075,-4.3684,-4.3001,-4.2611,-4.2084,-4.14,-4.1207,-4.1109,-4.1109,-4.1109,-4.1109,0.0,0.0,0.0,0.0,0.0,0.0,0.0,0.0,0.0,0.0,-4.1109,-4.1109,-4.1109,-4.1109,-4.1109,-4.1109,-4.1109,-4.1109,-4.1109,-4.1109,-4.1109,-4.1109,-4.1109,-4.1109,-4.1109,-4.1109,-4.1109,-4.1109,-4.1109,-4.1109,-4.1109,-4.1109,-4.1109,-4.1109,-4.1109,-4.1109,-4.0914,-4.0229,-4.0073,-3.9839,-3.9021,-3.8024,-3.7087,-3.6402,-3.4965,-3.3758,-3.3368,-3.2113,0.0,0.0,0.0,0.0,0.0,0.0,0.0,-3.5338,-3.5379,0.0,0.0,0.0,0.0,-3.5923,0.0,-3.4046,-3.5921,-3.4277,-3.4199,-3.5962,-3.5981,-3.6864,-3.8591,-3.8591,-3.9489,-4.1109,-4.1109,-4.1109,-4.1109,-4.1109,-4.1085,-4.1078,-4.1078,-4.1053,-4.104,-4.0958,-4.0945,-4.0914,-4.0781,-4.0756,-4.0786,0.0,0.0,0.0,0.0,-4.2928,-4.3471,-4.3572,-4.4252,-4.4465,-4.3689,-4.4333,-4.4878,-4.4878,-4.5579,-4.6066,-4.6066,-4.5324,-4.4834,-4.4756,-4.3274,-4.2357,-4.2279,-4.1518,-4.1109,-4.1109,-4.1109,-4.1109,0.0,0.0,-4.1104,-4.1095,0.0,0.0,0.0,0.0,-4.1109,-4.1109,-4.1109,-4.1109,-4.1109,-4.1109,-4.1109,-4.1109,-4.1109,-4.1109,-4.1109,-4.1109,-4.1109,-4.1109,-4.1109,-4.1109,-4.1109,-4.1109,-4.1109,-4.1109,-4.1109,-4.1109,-4.1109,-4.1109,-4.1109,-4.1109,-4.1109,-4.1109,-4.109,-4.0992,-4.0973,-4.0738,-3.9878,-3.8414,-3.7282,-3.7184,-3.6259,-3.5005,-3.3531,-3.3002,-3.2842,0.0,0.0,-3.3636,-3.5303,0.0,0.0,-3.5405,-3.5453,0.0,0.0,-3.5523,0.0,0.0,-3.4113,-3.4033,-3.5855,-3.4166,-3.4088,-3.5897,-3.5916,-3.682,-3.8591,-3.8591,-3.9489,-4.1109,-4.1109,-4.1109,-4.1109,-4.1109,-4.1068,-4.1,-4.1,-4.0944,-4.0829,-4.0743,-4.073,-4.0718,-4.0581,-4.0609,-4.0718,-4.2651,-4.2942,-4.3177,-4.3177,-4.3469,-4.3879,-4.4406,-4.4777,-4.507,-4.5246,-4.5558,-4.5773,-4.5773,-4.6085,-4.63,-4.63,-4.5987,-4.5558,-4.5029,-4.4346,-4.3489,-4.2454,-4.2064,-4.1635,-4.1109,-4.1109,-4.1109,0.0,0.0,0.0,0.0,0.0,-4.1109,-4.1109,-4.1109,-4.1109,-4.1109,-4.1109,-4.1109,-4.1109,-4.1109,-4.1109,-4.1109,-4.1109,-4.1109,-4.1109,-4.1109,-4.1109,-4.1109,-4.1109,-4.1109,-4.1109,-4.1109,-4.1109,-4.1109,-4.1109,-4.1109,-4.1109,-4.1109,-4.1109,-4.1109,-4.1109,-4.1109,-4.1109,-4.1109,-4.1109,-4.0992,-4.0659,-3.9624,-3.8492,-3.7497,-3.6494,-3.5246,-3.3527,-3.2706,-3.2424,0.0,0.0,0.0,-3.5295,0.0,-3.5493,0.0,-3.5453,-3.5455,0.0,0.0,0.0,-3.5687,-3.4526,-3.4451,-3.5744,-3.4567,-3.4554,-3.5889,-3.5908,-3.6816,-3.8591,-3.8591,-3.9489,-4.1109,-4.1109,-4.1109,-4.1109,-4.1109,-4.1066,-4.099,-4.099,-4.0929,-4.0801,-4.0729,-4.0694,-4.0681,-4.0557,-4.0534,-4.0593,-4.3705,-4.3918,-4.4075,-4.4075,-4.4289,-4.466,-4.5285,-4.5382,-4.5597,-4.6222,-4.63,-4.63,-4.63,-4.63,-4.63,-4.63,-4.63,-4.6046,-4.5421,-4.5148,-4.4444,-4.3216,-4.2669,0.0,-4.1498,-4.1226,-4.1109,-4.1109,-4.1109,-4.1108,-4.1104,-4.1104,-4.1106,-4.1109,-4.1109,-4.1109,-4.1109,-4.1109,-4.1109,-4.1109,-4.1109,-4.1109,-4.1109,-4.1109,-4.1109,-4.1109,-4.1109,-4.1109,-4.1109,-4.1109,-4.1109,-4.1109,-4.1109,-4.1109,-4.1109,-4.1109,-4.1109,-4.1109,-4.1109,-4.1109,-4.1109,-4.1109,-4.1109,-4.1109,-4.1109,-4.1109,-4.1109,-4.1109,-4.0405,-3.9449,-3.8258,-3.7045,-3.5642,-3.3891,-3.2777,-3.2232,-3.2528,-3.2762,0.0,-3.4949,-3.5346,-3.55,-3.55,-3.546,0.0,0.0,0.0,0.0,-3.5665,-3.4796,-3.4724,-3.5635,-3.482,-3.4847,-3.582,-3.6114,-3.705,-3.8591,-3.8845,-3.9704,-4.1109,-4.1078,-4.1072,-4.1072,-4.1037,-4.0977,-4.0906,-4.0906,-4.083,-4.0707,-4.0655,-4.0636,-4.0622,-4.0534,-4.0496,-4.0496,-4.3705,-4.4387,-4.4971,-4.4971,-4.5695,-4.6261,-4.628,-4.628,-4.628,-4.63,-4.63,-4.63,-4.63,-4.63,-4.63,-4.63,-4.63,-4.63,-4.628,-4.548,-4.499,-4.4971,-4.3313,-4.2396,-4.2376,-4.1537,-4.1109,-4.1109,0.0,-4.1104,-4.1094,-4.1094,-4.1099,-4.1109,-4.1109,-4.1109,-4.1109,-4.1109,-4.1109,-4.1109,-4.1109,-4.1109,-4.1109,-4.1109,-4.1109,-4.1109,-4.1109,-4.1109,-4.1109,-4.1109,-4.1109,-4.1109,-4.1109,-4.1109,-4.1109,-4.1109,-4.1109,-4.1109,-4.1109,-4.1109,-4.1109,-4.1109,-4.1109,-4.1109,-4.1109,-4.1109,-4.1109,-4.1109,-4.0405,-3.98,-3.9761,-3.8243,-3.6456,-3.4834,-3.3635,-3.2645,-3.1912,-3.2449,0.0,-3.4109,-3.4988,-3.55,-3.55,-3.55,0.0,0.0,0.0,-3.5528,-3.5602,-3.4775,-3.4698,-3.5568,-3.4761,-3.4754,-3.5698,-3.6615,-3.7593,-3.8611,-3.9409,-4.0249,-4.1108,-4.1022,-4.0994,-4.0987,-4.0855,-4.0775,-4.07,-4.07,-4.0622,-4.0504,-4.0496,-4.0496,-4.0496,-4.0496,-4.0496,-4.0496,-4.546,-4.5695,-4.589,-4.589,-4.6124,-4.63,-4.63,-4.63,-4.63,-4.63,-4.63,-4.63,-4.63,-4.63,-4.63,-4.63,-4.63,-4.63,-4.63,-4.6046,-4.5617,-4.5029,-4.4463,-4.3626,-4.2435,-4.2123,-4.1693,-4.1109,-4.1109,-4.1108,-4.1104,-4.1104,-4.1106,-4.1109,-4.1109,-4.1109,-4.1109,-4.1109,-4.1109,-4.1109,-4.1109,-4.1109,-4.1109,-4.1109,-4.1109,-4.1109,-4.1109,-4.1109,-4.1109,-4.1109,-4.1109,-4.1109,-4.1109,-4.1109,-4.1109,-4.1109,-4.1109,-4.1109,-4.1109,-4.1109,-4.1109,-4.1109,-4.1109,-4.1109,-4.1109,-4.1109,-4.1109,-4.1109,-4.0875,-4.0503,-3.9917,-3.878,-3.7203,-3.4906,-3.3692,-3.2739,-3.186,-3.1934,-3.2602,-3.4032,-3.443,-3.4853,-3.5442,-3.55,-3.5493,0.0,0.0,-3.5488,-3.5457,-3.5245,-3.5239,-3.5509,-3.5258,-3.5309,-3.5693,-3.6541,-3.7475,-3.8466,-3.9324,-4.0184,-4.102,-4.0914,-4.0855,-4.085,-4.0824,-4.077,-4.0694,-4.0694,-4.0615,-4.0496,-4.0496,-4.0496,-4.0496,-4.0496,-4.0496,-4.0496,-4.63,-4.63,-4.63,-4.63,-4.63,-4.63,-4.63,-4.63,-4.63,-4.63,-4.63,-4.63,-4.63,-4.63,-4.63,-4.63,-4.63,-4.63,-4.63,-4.63,-4.6066,-4.5519,-4.5168,-4.4483,-4.3391,-4.2747,-4.2123,-4.1596,-4.1265,-4.1109,-4.1109,-4.1109,-4.1109,-4.1109,-4.1109,-4.1109,-4.1109,-4.1109,-4.1109,-4.1109,-4.1109,-4.1109,-4.1109,-4.1109,-4.1109,-4.1109,-4.1109,-4.1109,-4.1109,-4.1109,-4.1109,-4.1109,-4.1109,-4.1109,-4.1109,-4.1109,-4.1109,-4.1109,-4.1109,-4.1109,-4.1109,-4.1109,-4.1109,-4.1109,-4.1109,-4.1109,-4.1109,-4.1109,-4.1109,-4.0934,-4.0385,-3.9516,-3.8023,-3.541,-3.4171,-3.3009,-3.1428,-3.1487,-3.2083,-3.3141,-3.3526,-3.393,-3.4462,-3.4519,-3.4654,-3.4988,0.0,-3.5147,-3.5427,-3.5486,-3.55,-3.55,-3.5515,-3.5736,-3.6149,-3.6997,-3.7885,-3.8824,-3.9703,-4.0404,-4.0929,-4.082,-4.0751,-4.077,-4.0707,-4.0661,-4.0622,-4.0622,-4.0586,-4.0496,-4.0496,-4.0496,-4.0496,-4.0496,-4.0496,-4.0496,-4.63,-4.63,-4.63,-4.63,-4.63,-4.63,-4.63,-4.63,-4.63,-4.63,-4.63,-4.63,-4.63,-4.63,-4.63,-4.63,-4.63,-4.63,-4.63,-4.63,-4.63,-4.63,-4.5519,-4.5068,-4.499,-4.3352,-4.2435,-4.2318,-4.1498,-4.1109,-4.1109,-4.1109,-4.1109,-4.1109,-4.1109,-4.1109,-4.1109,-4.1109,-4.1109,-4.1109,-4.1109,-4.1109,-4.1109,-4.1109,-4.1109,-4.1109,-4.1109,-4.1109,-4.1109,-4.1109,-4.1109,-4.1109,-4.1109,-4.1109,-4.1109,-4.1109,-4.1109,-4.1109,-4.1109,-4.1109,-4.1109,-4.1109,-4.1109,-4.1109,-4.1109,-4.1109,-4.1109,-4.1109,-4.1109,-4.1109,-4.1109,-4.034,-3.887,-3.6292,-3.5003,-3.3416,-3.0851,-3.1135,-3.1641,-3.1698,-3.241,-3.291,-3.2987,-3.3045,-3.341,-3.4225,0.0,-3.4641,-3.5462,-3.5558,-3.5558,-3.55,-3.561,-3.606,-3.6884,-3.7875,-3.8772,-3.9592,-4.0403,-4.0772,-4.0796,-4.0723,-4.0681,-4.0675,-4.0537,-4.0496,-4.0496,-4.0496,-4.0496,-4.0496,-4.0496,-4.0496,-4.0496,-4.0496,-4.0496,-4.0496,-4.63,-4.63,-4.63,-4.63,-4.63,-4.63,-4.63,-4.63,-4.63,-4.63,-4.63,-4.63,-4.63,-4.63,-4.63,-4.63,-4.63,-4.63,-4.63,-4.63,-4.63,-4.63,-4.6105,-4.5675,-4.501,-4.3938,-4.2747,-4.14,-4.1207,-4.1109,-4.1109,-4.1109,-4.1109,-4.1109,-4.1109,-4.1109,-4.1109,-4.1109,-4.1109,-4.1109,-4.1109,-4.1109,-4.1109,-4.1109,-4.1109,-4.1109,-4.1109,-4.1109,-4.1109,-4.1109,-4.1109,-4.1109,-4.1109,-4.1109,-4.1109,-4.1109,-4.1109,-4.1109,-4.1109,-4.1109,-4.1109,-4.1109,-4.1109,-4.1109,-4.1109,-4.1109,-4.1109,-4.1109,-4.1109,-4.1109,-4.1109,-4.0361,-3.9104,-3.7055,-3.5442,-3.3735,-3.1677,-3.1,-3.0942,-3.1621,-3.241,-3.316,-3.384,-3.4487,-3.4962,-3.5173,-3.5192,-3.5269,-3.5481,-3.6077,-3.6135,-3.5519,-3.6111,-3.6588,-3.6903,-3.8344,-3.9522,-4.0426,-4.052,-4.0623,-4.0717,-4.0602,-4.0549,-4.0549,-4.0512,-4.0496,-4.0496,-4.0496,-4.0496,-4.0496,-4.0496,-4.0496,-4.0496,-4.0496,-4.0496,-4.0496,-4.63,-4.63,-4.63,-4.63,-4.63,-4.63,-4.63,-4.63,-4.63,-4.63,-4.63,-4.63,-4.63,-4.63,-4.63,-4.63,-4.63,-4.63,-4.63,-4.63,-4.63,-4.63,-4.63,-4.6085,-4.5597,-4.4738,-4.343,-4.1693,-4.1304,-4.1109,-4.1109,-4.1109,-4.1109,-4.1109,-4.1109,-4.1109,-4.1109,-4.1109,-4.1109,-4.1109,-4.1109,-4.1109,-4.1109,-4.1109,-4.1109,-4.1109,-4.1109,-4.1109,-4.1109,-4.1109,-4.1109,-4.1109,-4.1109,-4.1109,-4.1109,-4.1109,-4.1109,-4.1109,-4.1109,-4.1109,-4.1109,-4.1109,-4.1109,-4.1109,-4.1109,-4.1109,-4.1109,-4.1109,-4.1109,-4.1109,-4.1109,-4.0717,-3.9642,-3.7369,-3.6235,-3.4848,-3.2568,-3.1833,-3.1718,-3.2199,-3.2622,-3.3083,-3.3564,-3.4026,-3.4487,-3.4872,-3.5269,-3.5654,-3.6038,-3.6846,-3.6904,-3.6077,-3.6865,-3.7523,-3.799,-3.9225,-4.0099,-4.0602,-4.0534,-4.0542,-4.0621,-4.0534,-4.0496,-4.0496,-4.0496,-4.0496,-4.0496,-4.0496,-4.0496,-4.0496,-4.0496,-4.0496,-4.0496,-4.0496,-4.0496,-4.0496,-4.63,-4.63,-4.63,-4.63,-4.63,-4.63,-4.63,-4.63,-4.63,-4.63,-4.63,-4.63,-4.63,-4.63,-4.63,-4.63,-4.63,-4.63,-4.63,-4.63,-4.63,-4.63,-4.63,-4.63,-4.63,-4.5324,-4.4016,-4.2396,-4.1537,-4.1109,-4.1109,-4.1109,-4.1109,-4.1109,-4.1109,-4.1109,-4.1109,-4.1109,-4.1109,-4.1109,-4.1109,-4.1109,-4.1109,-4.1109,-4.1109,-4.1109,-4.1109,-4.1109,-4.1109,-4.1109,-4.1109,-4.1109,-4.1109,-4.1109,-4.1109,-4.1109,-4.1109,-4.1109,-4.1109,-4.1109,-4.1109,-4.1109,-4.1109,-4.1109,-4.1109,-4.1109,-4.1109,-4.1109,-4.1109,-4.1108,-4.1081,-4.1081,-4.0218,-3.758,-3.707,-3.6076,-3.3454,-3.2987,-3.2891,-3.2891,-3.3122,-3.3295,-3.3295,-3.3526,-3.3987,-3.4725,-3.5468,-3.6173,-3.6865,-3.7719,-3.7853,-3.7123,-3.7815,-3.8604,-3.9477,-4.0169,-4.0496,-4.0496,-4.0496,-4.0496,-4.0496,-4.0496,-4.0496,-4.0496,-4.0496,-4.0496,-4.0496,-4.0496,-4.0496,-4.0496,-4.0496,-4.0496,-4.0496,-4.0496,-4.0496,-4.0496,-4.63,-4.63,-4.63,-4.63,-4.63,-4.63,-4.63,-4.63,-4.63,-4.63,-4.63,-4.63,-4.63,-4.63,-4.63,-4.63,-4.63,-4.63,-4.63,-4.63,-4.63,-4.63,-4.63,-4.63,-4.63,-4.4719,-4.3411,-4.2396,-4.1537,-4.1109,-4.1109,-4.1109,-4.1109,-4.1109,-4.1109,-4.1109,-4.1109,-4.1109,-4.1109,-4.1109,-4.1109,-4.1109,-4.1109,-4.1109,-4.1109,-4.1109,-4.1109,-4.1109,-4.1109,-4.1109,-4.1109,-4.1109,-4.1109,-4.1109,-4.1109,-4.1109,-4.1109,-4.1109,-4.1109,-4.1109,-4.1109,-4.1109,-4.1109,-4.1109,-4.1109,-4.1109,-4.1109,-4.1109,-4.1109,-4.108,-4.1037,-4.1025,-4.0344,-3.8276,-3.7359,-3.6231,-3.427,-3.3353,-3.2891,-3.2891,-3.4192,-3.5096,-3.5096,-3.6372,-3.7257,-3.7392,-3.7546,-3.7661,-3.7796,-3.8623,-3.9034,-3.8892,-3.9034,-3.9496,-4.0304,-4.0439,-4.0496,-4.0496,-4.0496,-4.0496,-4.0496,-4.0496,-4.0496,-4.0496,-4.0496,-4.0496,-4.0496,-4.0496,-4.0496,-4.0496,-4.0496,-4.0496,-4.0496,-4.0496,-4.0496,-4.0496,-4.63,-4.63,-4.63,-4.63,-4.63,-4.63,-4.63,-4.63,-4.63,-4.63,-4.63,-4.63,-4.63,-4.63,-4.63,-4.63,-4.63,-4.63,-4.63,-4.63,-4.63,-4.63,-4.63,-4.63,-4.63,-4.4582,-4.3509,-4.3099,-4.1753,-4.1109,-4.1109,-4.1109,-4.1109,-4.1109,-4.1109,-4.1109,-4.1109,-4.1109,-4.1109,-4.1109,-4.1109,-4.1109,-4.1109,-4.1109,-4.1109,-4.1109,-4.1109,-4.1109,-4.1109,-4.1109,-4.1109,-4.1109,-4.1109,-4.1109,-4.1109,-4.1109,-4.1109,-4.1109,-4.1109,-4.1109,-4.1109,-4.1109,-4.1109,-4.1109,-4.1109,-4.1109,-4.1109,-4.1109,-4.1109,-4.1078,-4.1003,-4.099,-4.0517,-3.9038,-3.8481,-3.7782,-3.6439,-3.5892,-3.5641,-3.5641,-3.6353,-3.6853,-3.6853,-3.7546,-3.8007,-3.8007,-3.843,-3.87,-3.87,-3.9496,-3.9958,-3.9958,-3.9958,-4.0131,-4.0496,-4.0496,-4.0496,-4.0496,-4.0496,-4.0496,-4.0496,-4.0496,-4.0496,-4.0496,-4.0496,-4.0496,-4.0496,-4.0496,-4.0496,-4.0496,-4.0496,-4.0496,-4.0496,-4.0496,-4.0496,-4.0496,-4.63,-4.63,-4.63,-4.63,-4.63,-4.63,-4.63,-4.63,-4.63,-4.63,-4.63,-4.63,-4.63,-4.63,-4.63,-4.63,-4.63,-4.63,-4.63,-4.63,-4.63,-4.63,-4.63,-4.63,-4.63,-4.4582,-4.3705,-4.3705,-4.1949,-4.1109,-4.1109,-4.1109,-4.1109,-4.1109,-4.1109,-4.1109,-4.1109,-4.1109,-4.1109,-4.1109,-4.1109,-4.1109,-4.1109,-4.1109,-4.1109,-4.1109,-4.1109,-4.1109,-4.1109,-4.1109,-4.1109,-4.1109,-4.1109,-4.1109,-4.1109,-4.1109,-4.1109,-4.1109,-4.1109,-4.1109,-4.1109,-4.1109,-4.1109,-4.1109,-4.1109,-4.1109,-4.1109,-4.1109,-4.1109,-4.1074,-4.0964,-4.0948,-4.0606,-3.9553,-3.9374,-3.9052,-3.8118,-3.8007,-3.8007,-3.8007,-3.818,-3.8296,-3.8296,-3.8469,-3.8584,-3.8584,-3.9207,-3.9573,-3.9573,-4.0169,-4.0496,-4.0496,-4.0496,-4.0496,-4.0496,-4.0496,-4.0496,-4.0496,-4.0496,-4.0496,-4.0496,-4.0496,-4.0496,-4.0496,-4.0496,-4.0496,-4.0496,-4.0496,-4.0496,-4.0496,-4.0496,-4.0496,-4.0496,-4.0496,-4.0496,-4.0496,-4.63,-4.63,-4.63,-4.63,-4.63,-4.63,-4.63,-4.63,-4.63,-4.63,-4.63,-4.63,-4.63,-4.63,-4.63,-4.63,-4.63,-4.63,-4.63,-4.63,-4.63,-4.63,-4.63,-4.63,-4.63,-4.4582,-4.3705,-4.3705,-4.1949,-4.1109,-4.1109,-4.1109,-4.1109,-4.1109,-4.1109,-4.1109,-4.1109,-4.1109,-4.1109,-4.1109,-4.1109,-4.1109,-4.1109,-4.1109,-4.1109,-4.1109,-4.1109,-4.1109,-4.1109,-4.1109,-4.1109,-4.1109,-4.1109,-4.1109,-4.1109,-4.1109,-4.1109,-4.1109,-4.1109,-4.1109,-4.1109,-4.1109,-4.1109,-4.1109,-4.1109,-4.1109,-4.1109,-4.1109,-4.1109,-4.1046,-4.0855,-4.08,-4.0484,-3.9466,-3.9319,-3.9003,-3.8123,-3.8007,-3.8007,-3.8007,-3.87,-3.9207,-3.9207,-3.9881,-4.0323,-4.0323,-4.0381,-4.0419,-4.0419,-4.0477,-4.0496,-4.0496,-4.0496,-4.0496,-4.0496,-4.0496,-4.0496,-4.0496,-4.0496,-4.0496,-4.0496,-4.0496,-4.0496,-4.0496,-4.0496,-4.0496,-4.0496,-4.0496,-4.0496,-4.0496,-4.0496,-4.0496,-4.0496,-4.0496,-4.0496,-4.0496,-4.63,-4.63,-4.63,-4.63,-4.63,-4.63,-4.63,-4.63,-4.63,-4.63,-4.63,-4.63,-4.63,-4.63,-4.63,-4.63,-4.63,-4.63,-4.63,-4.63,-4.63,-4.63,-4.63,-4.63,-4.63,-4.5129,-4.4231,-4.3705,-4.2494,-4.1635,-4.1109,-4.1109,-4.1109,-4.1109,-4.1109,-4.1109,-4.1109,-4.1109,-4.1109,-4.1109,-4.1109,-4.1109,-4.1109,-4.1109,-4.1109,-4.1109,-4.1109,-4.1109,-4.1109,-4.1109,-4.1109,-4.1109,-4.1109,-4.1109,-4.1109,-4.1109,-4.1109,-4.1109,-4.1109,-4.1109,-4.1109,-4.1109,-4.1109,-4.1109,-4.1109,-4.1109,-4.1109,-4.1109,-4.1109,-4.1044,-4.0846,-4.081,-4.0624,-4.0126,-4.0035,-3.9938,-3.9611,-3.9554,-3.9554,-3.9554,-3.9842,-4.0035,-4.0035,-4.0323,-4.0496,-4.0496,-4.0496,-4.0496,-4.0496,-4.0496,-4.0496,-4.0496,-4.0496,-4.0496,-4.0496,-4.0496,-4.0496,-4.0496,-4.0496,-4.0496,-4.0496,-4.0496,-4.0496,-4.0496,-4.0496,-4.0496,-4.0496,-4.0496,-4.0496,-4.0496,-4.0496,-4.0496,-4.0496,-4.0496,-4.0496,-4.0496,-4.63,-4.63,-4.63,-4.63,-4.63,-4.63,-4.63,-4.63,-4.63,-4.63,-4.63,-4.63,-4.63,-4.63,-4.63,-4.63,-4.63,-4.63,-4.63,-4.63,-4.63,-4.63,-4.63,-4.63,-4.63,-4.5441,-4.4563,-4.3705,-4.2825,-4.1947,-4.1109,-4.1109,-4.1109,-4.1109,-4.1109,-4.1109,-4.1109,-4.1109,-4.1109,-4.1109,-4.1109,-4.1109,-4.1109,-4.1109,-4.1109,-4.1109,-4.1109,-4.1109,-4.1109,-4.1109,-4.1109,-4.1109,-4.1109,-4.1109,-4.1109,-4.1109,-4.1109,-4.1109,-4.1109,-4.1109,-4.1109,-4.1109,-4.1109,-4.1109,-4.1109,-4.1109,-4.1087,-4.1074,-4.107,-4.1,-4.0801,-4.0761,-4.0715,-4.0542,-4.0496,-4.0496,-4.0496,-4.0496,-4.0496,-4.0496,-4.0496,-4.0496,-4.0496,-4.0496,-4.0496,-4.0496,-4.0496,-4.0496,-4.0496,-4.0496,-4.0496,-4.0496,-4.0496,-4.0381,-4.0131,-4.0131,-4.0131,-4.0131,-3.9861,-3.9708,-3.9708,-3.9708,-3.9861,-4.0131,-4.0131,-4.0265,-4.0496,-4.0496,-4.0496,-4.0496,-4.0496,-4.0496,-4.0496,-4.0496,-4.0496,-4.0496,-4.63,-4.63,-4.63,-4.63,-4.63,-4.63,-4.63,-4.63,-4.63,-4.63,-4.63,-4.63,-4.63,-4.63,-4.63,-4.63,-4.63,-4.63,-4.63,-4.63,-4.63,-4.63,-4.63,-4.63,-4.63,-4.5441,-4.4582,-4.3705,-4.2845,-4.1967,-4.1109,-4.1109,-4.1109,-4.1109,-4.1109,-4.1109,-4.1109,-4.1109,-4.1109,-4.1109,-4.1109,-4.1109,-4.1109,-4.1109,-4.1109,-4.1109,-4.1109,-4.1109,-4.1109,-4.1109,-4.1109,-4.1109,-4.1109,-4.1109,-4.1109,-4.1109,-4.1109,-4.1109,-4.1109,-4.1109,-4.1109,-4.1109,-4.1109,-4.1109,-4.1109,-4.1109,-4.1078,-4.1006,-4.099,-4.0945,-4.0742,-4.07,-4.0655,-4.0519,-4.0496,-4.0496,-4.0496,-4.0496,-4.0496,-4.0496,-4.0496,-4.0496,-4.0496,-4.0496,-4.0496,-4.0496,-4.0496,-4.0496,-4.0496,-4.0496,-4.0496,-4.0496,-4.0496,-4.0112,-3.9304,-3.9304,-3.9304,-3.9284,-3.8411,-3.8007,-3.8007,-3.8007,-3.8469,-3.9284,-3.9284,-3.9746,-4.0496,-4.0496,-4.0496,-4.0496,-4.0496,-4.0496,-4.0496,-4.0496,-4.0496,-4.0496,-4.63,-4.63,-4.63,-4.63,-4.63,-4.63,-4.63,-4.63,-4.63,-4.63,-4.63,-4.63,-4.63,-4.63,-4.63,-4.63,-4.63,-4.63,-4.63,-4.63,-4.63,-4.63,-4.63,-4.63,-4.63,-4.6046,-4.55,-4.4602,-4.3743,-4.2864,-4.2006,-4.1382,-4.1109,-4.1109,-4.1109,-4.1104,-4.1099,-4.1106,-4.1101,-4.1107,-4.1103,-4.1104,-4.1099,-4.1106,-4.1109,-4.1109,-4.1109,-4.1109,-4.1109,-4.1109,-4.1109,-4.1109,-4.1109,-4.1109,-4.1109,-4.1109,-4.1109,-4.1109,-4.1109,-4.1109,-4.1109,-4.1109,-4.1109,-4.1109,-4.1109,-4.1109,-4.1087,-4.1074,-4.1022,-4.0944,-4.0806,-4.0734,-4.0655,-4.0519,-4.0496,-4.0496,-4.0496,-4.0496,-4.0496,-4.0496,-4.0496,-4.0496,-4.0496,-4.0496,-4.0496,-4.0496,-4.0496,-4.0496,-4.0496,-4.0496,-4.0496,-4.0496,-3.9958,-3.9534,-3.9304,-3.9304,-3.8996,-3.8373,-3.8123,-3.8007,-3.8007,-3.8007,-3.8142,-3.8392,-3.8392,-3.8873,-3.9669,-3.9669,-3.9996,-4.0496,-4.0496,-4.0496,-4.0496,-4.0496,-4.0496,-4.0496,-4.63,-4.63,-4.63,-4.63,-4.63,-4.63,-4.63,-4.63,-4.63,-4.63,-4.63,-4.63,-4.63,-4.63,-4.63,-4.63,-4.63,-4.63,-4.63,-4.63,-4.63,-4.63,-4.63,-4.63,-4.63,-4.63,-4.587,-4.499,-4.4133,-4.3255,-4.2376,-4.1518,-4.1109,-4.1109,-4.1109,-4.1106,-4.1099,-4.1103,-4.1097,-4.109,-4.1099,-4.1103,-4.1101,-4.1106,-4.1109,-4.1109,-4.1109,-4.1109,-4.1109,-4.1109,-4.1109,-4.1109,-4.1109,-4.1109,-4.1109,-4.1109,-4.1109,-4.1109,-4.1109,-4.1109,-4.1109,-4.1109,-4.1109,-4.1109,-4.1109,-4.1078,-4.1059,-4.0981,-4.094,-4.0849,-4.0721,-4.0655,-4.0491,-4.0088,-4.0035,-4.0035,-4.0035,-4.0035,-4.015,-4.0458,-4.0496,-4.0496,-4.0496,-4.0496,-4.0496,-4.0496,-4.0496,-4.0496,-4.0496,-4.0496,-4.0342,-4.0035,-3.9554,-3.8969,-3.8274,-3.8274,-3.8012,-3.7488,-3.7161,-3.7,-3.6966,-3.7,-3.7192,-3.7485,-3.7481,-3.7988,-3.8815,-3.9169,-3.9592,-4.0054,-4.0377,-4.0503,-4.0503,-4.0468,-4.0468,-4.0503,-4.63,-4.63,-4.63,-4.63,-4.63,-4.63,-4.63,-4.63,-4.63,-4.63,-4.63,-4.63,-4.63,-4.63,-4.63,-4.63,-4.63,-4.63,-4.63,-4.63,-4.63,-4.63,-4.63,-4.63,-4.63,-4.63,-4.5909,-4.5129,-4.4231,-4.3372,-4.2494,-4.1615,-4.1168,-4.1109,-4.1108,-4.1108,-4.1108,-4.1097,-4.1097,-4.1104,-4.1095,-4.1097,-4.1106,-4.1106,-4.1106,-4.1106,-4.1108,-4.1108,-4.1108,-4.1109,-4.1109,-4.1109,-4.1109,-4.1109,-4.1109,-4.1109,-4.1109,-4.1109,-4.1109,-4.1109,-4.1109,-4.1109,-4.1106,-4.1085,-4.1108,-4.1054,-4.0974,-4.0842,-4.0749,-4.0662,-4.0542,-4.0446,-4.015,-3.9419,-3.9227,-3.9188,-3.9188,-3.9246,-3.9573,-4.0304,-4.0458,-4.0496,-4.0496,-4.0496,-4.0496,-4.0496,-4.0496,-4.0496,-4.0496,-4.0439,-4.0054,-3.9323,-3.9142,-3.8319,-3.6718,-3.6622,-3.6572,-3.657,-3.5839,-3.5453,-3.5379,-3.5453,-3.5876,-3.6557,-3.6575,-3.707,-3.7942,-3.8827,-3.9212,-3.9365,-4.0164,-4.0493,-4.0474,-4.0424,-4.0441,-4.0493,-4.63,-4.63,-4.63,-4.63,-4.63,-4.63,-4.63,-4.63,-4.63,-4.63,-4.63,-4.63,-4.63,-4.63,-4.63,-4.63,-4.63,-4.63,-4.63,-4.63,-4.63,-4.63,-4.63,-4.63,-4.63,-4.63,-4.6202,-4.6027,-4.5148,-4.427,-4.3391,-4.2533,-4.1752,-4.1109,-4.1101,-4.1097,-4.1095,-4.1103,-4.1096,-4.1091,-4.1096,-4.1096,-4.1091,-4.1098,-4.1103,-4.1103,-4.1094,-4.1097,-4.1099,-4.1106,-4.1109,-4.1109,-4.1109,-4.1109,-4.1109,-4.1109,-4.1109,-4.1109,-4.1109,-4.1109,-4.1109,-4.1109,-4.1066,-4.1044,-4.1083,-4.1054,-4.0987,-4.0951,-4.0825,-4.0687,-4.0655,-4.0058,-3.9496,-3.9323,-3.8719,-3.8277,-3.8277,-3.8873,-3.9361,-3.9534,-4.0112,-4.0496,-4.0496,-4.0496,-4.0496,-4.0496,-4.0496,-4.0496,-4.0496,-3.99,-3.9477,-3.9304,-3.7978,-3.7071,-3.6699,-3.5971,-3.5599,-3.5606,-3.5434,-3.535,-3.5323,-3.535,-3.5445,-3.5591,-3.5599,-3.6105,-3.6976,-3.7832,-3.8561,-3.9232,-4.0087,-4.0424,-4.0424,-4.0407,-4.0415,-4.0424,-4.63,-4.63,-4.63,-4.63,-4.63,-4.63,-4.63,-4.63,-4.63,-4.63,-4.63,-4.63,-4.63,-4.63,-4.63,-4.63,-4.63,-4.63,-4.63,-4.63,-4.63,-4.63,-4.63,-4.63,-4.63,-4.63,-4.63,-4.63,-4.5421,-4.4543,-4.3686,-4.2806,-4.1927,-4.1109,-4.1104,-4.1099,-4.1092,-4.11,-4.1111,-4.1106,-4.1106,-4.1106,-4.1106,-4.1091,-4.1098,-4.1105,-4.1092,-4.1097,-4.1103,-4.1108,-4.1109,-4.1109,-4.1109,-4.1109,-4.1109,-4.1109,-4.1109,-4.1109,-4.1109,-4.1109,-4.1109,-4.1109,-4.1074,-4.1057,-4.1059,-4.0639,-4.0237,-4.0237,-3.9793,-3.9398,-3.9398,-3.9008,-3.8546,-3.8123,-3.768,-3.7392,-3.7392,-3.7777,-3.82,-3.8623,-3.9419,-4.0073,-4.0458,-4.0496,-4.0496,-4.0496,-4.0496,-4.0496,-4.0496,-3.9746,-3.9077,-3.8658,-3.7386,-3.6492,-3.6044,-3.5542,-3.548,-3.5859,-3.5477,-3.53,-3.5304,-3.53,-3.53,-3.5304,-3.53,-3.5557,-3.6082,-3.7359,-3.8145,-3.8643,-3.9872,-4.0362,-4.0353,-4.0345,-4.0354,-4.0362,-4.63,-4.63,-4.63,-4.63,-4.63,-4.63,-4.63,-4.63,-4.63,-4.63,-4.63,-4.63,-4.63,-4.63,-4.63,-4.63,-4.63,-4.63,-4.63,-4.63,-4.63,-4.63,-4.63,-4.63,-4.63,-4.63,-4.63,-4.63,-4.5578,-4.4777,-4.3918,-4.3175,-4.2297,-4.1321,-4.1317,-4.1234,-4.1109,-4.1093,-4.1108,-4.1108,-4.1098,-4.1098,-4.1106,-4.1106,-4.1093,-4.1105,-4.1107,-4.1097,-4.1106,-4.1106,-4.1108,-4.1109,-4.1109,-4.1109,-4.1109,-4.1109,-4.1109,-4.1108,-4.1081,-4.108,-4.1078,-4.1053,-4.1044,-4.1025,-4.0951,-4.0272,-3.964,-3.9623,-3.8987,-3.843,-3.843,-3.8315,-3.7988,-3.7257,-3.7019,-3.6923,-3.6923,-3.7038,-3.7411,-3.8142,-3.8969,-3.9765,-4.0439,-4.0496,-4.0496,-4.0496,-4.0496,-4.0489,-4.05,-3.9731,-3.8927,-3.8132,-3.7318,-3.6512,-3.5733,-3.5725,-3.6045,-3.6691,-3.602,-3.571,-3.5698,-3.571,-3.5634,-3.5506,-3.55,-3.5419,-3.54,-3.699,-3.7745,-3.8005,-3.9503,-4.0183,-4.0308,-4.0301,-4.0291,-4.0317,-4.63,-4.63,-4.63,-4.63,-4.63,-4.63,-4.63,-4.63,-4.63,-4.63,-4.63,-4.63,-4.63,-4.63,-4.63,-4.63,-4.63,-4.63,-4.63,-4.63,-4.63,-4.63,-4.63,-4.63,-4.63,-4.63,-4.63,-4.63,-4.6183,-4.5675,-4.4815,-4.471,-4.3788,-4.2229,-4.2227,-4.181,-4.1096,-4.1109,-4.1106,-4.1098,-4.11,-4.1094,-4.1097,-4.1097,-4.1097,-4.11,-4.1098,-4.1098,-4.1095,-4.1095,-4.1103,-4.1109,-4.1109,-4.1109,-4.1109,-4.1109,-4.1109,-4.1083,-4.1039,-4.1006,-4.099,-4.0867,-4.0806,-4.0751,-4.0734,-4.0668,-4.0586,-4.0544,-4.0337,-4.0169,-4.0169,-3.9592,-3.9092,-3.8977,-3.8315,-3.7815,-3.7815,-3.8469,-3.8996,-3.9111,-3.9842,-4.0381,-4.0496,-4.0496,-4.0496,-4.0496,-4.0496,-4.05,-4.0499,-3.9684,-3.9122,-3.8928,-3.8101,-3.7598,-3.7455,-3.7394,-3.7434,-3.754,-3.7443,-3.7385,-3.7377,-3.7385,-3.6995,-3.6337,-3.6345,-3.5905,-3.5302,-3.6269,-3.7099,-3.7825,-3.8791,-3.9651,-4.0291,-4.031,-4.031,-4.0301,-4.63,-4.63,-4.63,-4.63,-4.63,-4.63,-4.63,-4.63,-4.63,-4.63,-4.63,-4.63,-4.63,-4.63,-4.63,-4.63,-4.63,-4.63,-4.63,-4.63,-4.63,-4.63,-4.63,-4.63,-4.63,-4.63,-4.63,-4.63,-4.63,-4.5851,-4.499,-4.5,-4.4333,-4.3123,-4.3124,-4.2646,-4.1824,-4.183,-4.1551,-4.11,-4.1091,-4.1107,-4.1107,-4.1107,-4.1094,-4.1106,-4.11,-4.1093,-4.1103,-4.1092,-4.1097,-4.1101,-4.1101,-4.1101,-4.1099,-4.1094,-4.1054,-4.0992,-4.1037,-4.0944,-4.0833,-4.0846,-4.0776,-4.0672,-4.0617,-4.061,-4.0507,-4.0023,-3.9483,-3.9104,-3.9104,-3.8815,-3.8565,-3.8565,-3.8257,-3.8007,-3.8007,-3.8334,-3.8738,-3.9246,-3.9611,-4.0015,-4.0458,-4.0496,-4.0508,-4.0495,-4.0495,-4.0471,-4.0441,-3.9616,-3.9139,-3.9097,-3.8248,-3.7783,-3.7747,-3.7702,-3.7941,-3.8438,-3.8438,-3.8171,-3.7693,-3.7693,-3.7502,-3.7158,-3.6691,-3.6271,-3.5965,-3.6347,-3.6967,-3.7789,-3.8667,-3.9527,-4.0301,-4.0301,-4.0301,-4.0301]},{"header":{"parameterUnit":"m.s-1","parameterCategory":1,"la1":30.6,"la2":28.766,"lo1":-90.7593,"lo2":-88.6598,"dy":0.0162,"dx":0.0183,"nx":116,"ny":114,"refTime":"2023-05-02T18:00:00:Z","depth":0,"parameterNumber":3,"parameterNumberName":"V-component_of_WINDS"},"data":[0.0,0.0,0.0,0.0,0.0,0.0,0.0,0.0,0.0,0.0,0.0,0.0,0.0,0.0,0.0,0.0,0.0,0.0,0.0,0.0,0.0,0.0,0.0,0.0,0.0,0.0,0.0,0.0,0.0,0.0,0.0,0.0,0.0,0.0,0.0,0.0,0.0,0.0,0.0,0.0,0.0,0.0,0.0,0.0,0.0,0.0,0.0,0.0,0.0,0.0,0.0,0.0,0.0,0.0,0.0,0.0,0.0,0.0,0.0,0.0,0.0,0.0,0.0,0.0,0.0,0.0,0.0,0.0,0.0,0.0,0.0,0.0,0.0,0.0,0.0,0.0,0.0,0.0,0.0,0.0,0.0,0.0,0.0,0.0,0.0,0.0,0.0,0.0,0.0,0.0,0.0,0.0,0.0,0.0,0.0,0.0,0.0,0.0,0.0,0.0,0.0,0.0,0.0,0.0,0.0,0.0,0.0,0.0,0.0,0.0,0.0,0.0,0.0,0.0,0.0,0.0,0.0,0.0,0.0,0.0,0.0,0.0,0.0,0.0,0.0,0.0,0.0,0.0,0.0,0.0,0.0,0.0,0.0,0.0,0.0,0.0,0.0,0.0,0.0,0.0,0.0,0.0,0.0,0.0,0.0,0.0,0.0,0.0,0.0,0.0,0.0,0.0,0.0,0.0,0.0,0.0,0.0,0.0,0.0,0.0,0.0,0.0,0.0,0.0,0.0,0.0,0.0,0.0,0.0,0.0,0.0,0.0,0.0,0.0,0.0,0.0,0.0,0.0,0.0,0.0,0.0,0.0,0.0,0.0,0.0,0.0,0.0,0.0,0.0,0.0,0.0,0.0,0.0,0.0,0.0,0.0,0.0,0.0,0.0,0.0,0.0,0.0,0.0,0.0,0.0,0.0,0.0,0.0,0.0,0.0,0.0,0.0,0.0,0.0,0.0,0.0,0.0,0.0,0.0,0.0,0.0,0.0,0.0,0.0,0.0,0.0,0.0,0.0,0.0,0.0,0.0,0.0,0.0,0.0,0.0,0.0,0.0,0.0,0.0,0.0,0.0,0.0,0.0,0.0,0.0,0.0,0.0,0.0,0.0,0.0,0.0,0.0,0.0,0.0,0.0,0.0,0.0,0.0,0.0,0.0,0.0,0.0,0.0,0.0,0.0,0.0,0.0,0.0,0.0,0.0,0.0,0.0,0.0,0.0,0.0,0.0,0.0,0.0,0.0,0.0,0.0,0.0,0.0,0.0,0.0,0.0,0.0,0.0,0.0,0.0,0.0,0.0,0.0,0.0,0.0,0.0,0.0,0.0,0.0,0.0,0.0,0.0,0.0,0.0,0.0,0.0,0.0,0.0,0.0,0.0,0.0,0.0,0.0,0.0,0.0,0.0,0.0,0.0,0.0,0.0,0.0,0.0,0.0,0.0,0.0,0.0,0.0,0.0,0.0,0.0,0.0,0.0,0.0,0.0,0.0,0.0,0.0,0.0,0.0,0.0,0.0,0.0,0.0,0.0,0.0,0.0,0.0,0.0,0.0,0.0,0.0,0.0,0.0,0.0,0.0,0.0,0.0,0.0,0.0,0.0,0.0,0.0,0.0,0.0,0.0,0.0,0.0,0.0,0.0,0.0,0.0,0.0,0.0,0.0,0.0,0.0,0.0,0.0,0.0,0.0,0.0,0.0,0.0,0.0,0.0,0.0,0.0,0.0,0.0,0.0,0.0,0.0,0.0,0.0,0.0,0.0,0.0,0.0,0.0,0.0,0.0,0.0,0.0,0.0,0.0,0.0,0.0,0.0,0.0,0.0,0.0,0.0,0.0,0.0,0.0,0.0,0.0,0.0,0.0,0.0,0.0,0.0,0.0,0.0,0.0,0.0,0.0,0.0,0.0,0.0,0.0,0.0,0.0,0.0,0.0,0.0,0.0,0.0,0.0,0.0,0.0,0.0,0.0,0.0,0.0,0.0,0.0,0.0,0.0,0.0,0.0,0.0,0.0,0.0,0.0,0.0,0.0,0.0,0.0,0.0,0.0,0.0,0.0,0.0,0.0,0.0,0.0,0.0,0.0,0.0,0.0,0.0,0.0,0.0,0.0,0.0,0.0,0.0,0.0,0.0,0.0,0.0,0.0,0.0,0.0,0.0,0.0,0.0,0.0,0.0,0.0,0.0,0.0,0.0,0.0,0.0,0.0,0.0,0.0,0.0,0.0,0.0,0.0,0.0,0.0,0.0,0.0,0.0,0.0,0.0,0.0,0.0,0.0,0.0,0.0,0.0,0.0,0.0,0.0,0.0,0.0,0.0,0.0,0.0,0.0,0.0,0.0,0.0,0.0,0.0,0.0,0.0,0.0,0.0,0.0,0.0,0.0,0.0,0.0,0.0,0.0,0.0,0.0,0.0,0.0,0.0,0.0,0.0,0.0,0.0,0.0,0.0,0.0,0.0,0.0,0.0,0.0,0.0,0.0,0.0,0.0,0.0,0.0,0.0,0.0,0.0,0.0,0.0,0.0,0.0,0.0,0.0,0.0,0.0,0.0,0.0,0.0,0.0,0.0,0.0,0.0,0.0,0.0,0.0,0.0,0.0,0.0,0.0,0.0,0.0,0.0,0.0,0.0,0.0,0.0,0.0,0.0,0.0,0.0,0.0,0.0,0.0,0.0,0.0,0.0,0.0,0.0,0.0,0.0,0.0,0.0,0.0,0.0,0.0,0.0,0.0,0.0,0.0,0.0,0.0,0.0,0.0,0.0,0.0,0.0,0.0,0.0,0.0,0.0,0.0,0.0,0.0,0.0,0.0,0.0,0.0,0.0,0.0,0.0,0.0,0.0,0.0,0.0,0.0,0.0,0.0,0.0,0.0,0.0,0.0,0.0,0.0,0.0,0.0,0.0,0.0,0.0,0.0,0.0,0.0,0.0,0.0,0.0,0.0,0.0,0.0,0.0,0.0,0.0,0.0,0.0,0.0,0.0,0.0,0.0,0.0,0.0,0.0,0.0,0.0,0.0,0.0,0.0,0.0,0.0,0.0,0.0,0.0,0.0,0.0,0.0,0.0,0.0,0.0,0.0,0.0,0.0,0.0,0.0,0.0,0.0,0.0,0.0,0.0,0.0,0.0,0.0,0.0,0.0,0.0,0.0,0.0,0.0,0.0,0.0,0.0,0.0,0.0,0.0,0.0,0.0,0.0,0.0,0.0,0.0,0.0,0.0,0.0,0.0,0.0,0.0,0.0,0.0,0.0,0.0,0.0,0.0,0.0,0.0,0.0,0.0,0.0,0.0,0.0,0.0,0.0,0.0,0.0,0.0,0.0,0.0,0.0,0.0,0.0,0.0,0.0,0.0,0.0,0.0,0.0,0.0,0.0,0.0,0.0,0.0,0.0,0.0,0.0,0.0,0.0,0.0,0.0,0.0,0.0,0.0,0.0,0.0,0.0,0.0,0.0,0.0,0.0,0.0,0.0,0.0,0.0,0.0,0.0,0.0,0.0,0.0,0.0,0.0,0.0,0.0,0.0,0.0,0.0,0.0,0.0,0.0,0.0,0.0,0.0,0.0,0.0,0.0,0.0,0.0,0.0,0.0,0.0,0.0,0.0,0.0,0.0,0.0,0.0,0.0,0.0,0.0,0.0,0.0,0.0,0.0,0.0,0.0,0.0,0.0,0.0,0.0,0.0,0.0,0.0,0.0,0.0,0.0,0.0,0.0,0.0,0.0,0.0,0.0,0.0,0.0,0.0,0.0,0.0,0.0,0.0,0.0,0.0,0.0,0.0,0.0,0.0,0.0,0.0,0.0,0.0,0.0,0.0,0.0,0.0,0.0,0.0,0.0,0.0,0.0,0.0,0.0,0.0,0.0,0.0,0.0,0.0,0.0,0.0,0.0,0.0,0.0,0.0,0.0,0.0,0.0,0.0,0.0,0.0,0.0,0.0,0.0,0.0,0.0,0.0,0.0,0.0,0.0,0.0,0.0,0.0,0.0,0.0,0.0,0.0,0.0,0.0,0.0,0.0,0.0,0.0,0.0,0.0,0.0,0.0,0.0,0.0,0.0,0.0,0.0,0.0,0.0,0.0,0.0,0.0,0.0,0.0,0.0,0.0,0.0,0.0,0.0,0.0,0.0,0.0,0.0,0.0,0.0,0.0,0.0,0.0,0.0,0.0,0.0,0.0,0.0,0.0,0.0,0.0,0.0,0.0,0.0,0.0,0.0,0.0,0.0,0.0,0.0,0.0,0.0,0.0,0.0,0.0,0.0,0.0,0.0,0.0,0.0,0.0,0.0,0.0,0.0,0.0,0.0,0.0,0.0,0.0,0.0,0.0,0.0,0.0,0.0,0.0,0.0,0.0,0.0,0.0,0.0,0.0,0.0,0.0,0.0,0.0,0.0,0.0,0.0,0.0,0.0,0.0,0.0,0.0,0.0,0.0,0.0,0.0,0.0,0.0,0.0,0.0,0.0,0.0,0.0,0.0,0.0,0.0,0.0,0.0,0.0,0.0,0.0,0.0,0.0,0.0,0.0,0.0,0.0,0.0,0.0,0.0,0.0,0.0,0.0,0.0,0.0,0.0,0.0,0.0,0.0,0.0,0.0,0.0,0.0,0.0,0.0,0.0,0.0,0.0,0.0,0.0,0.0,0.0,0.0,0.0,0.0,0.0,0.0,0.0,0.0,0.0,0.0,0.0,0.0,0.0,0.0,0.0,0.0,0.0,0.0,0.0,0.0,0.0,0.0,0.0,0.0,0.0,0.0,0.0,0.0,0.0,0.0,0.0,0.0,0.0,0.0,0.0,0.0,0.0,0.0,0.0,0.0,0.0,0.0,0.0,0.0,0.0,0.0,0.0,0.0,0.0,0.0,0.0,0.0,0.0,0.0,0.0,0.0,0.0,0.0,0.0,0.0,0.0,0.0,0.0,0.0,0.0,0.0,0.0,0.0,0.0,0.0,0.0,0.0,0.0,0.0,0.0,0.0,0.0,0.0,0.0,0.0,0.0,0.0,0.0,0.0,0.0,0.0,0.0,0.0,0.0,0.0,0.0,0.0,0.0,0.0,0.0,0.0,0.0,0.0,0.0,0.0,0.0,0.0,0.0,0.0,0.0,0.0,0.0,0.0,0.0,0.0,0.0,0.0,0.0,0.0,0.0,0.0,0.0,0.0,0.0,0.0,0.0,0.0,0.0,0.0,0.0,0.0,0.0,0.0,0.0,0.0,0.0,0.0,0.0,0.0,0.0,0.0,0.0,0.0,0.0,0.0,0.0,0.0,0.0,0.0,0.0,0.0,0.0,0.0,0.0,0.0,0.0,0.0,0.0,0.0,0.0,0.0,0.0,0.0,0.0,0.0,0.0,0.0,0.0,0.0,0.0,0.0,0.0,0.0,0.0,0.0,0.0,0.0,0.0,0.0,0.0,0.0,0.0,0.0,0.0,0.0,0.0,0.0,0.0,0.0,0.0,0.0,0.0,0.0,0.0,0.0,0.0,0.0,0.0,0.0,0.0,0.0,0.0,0.0,0.0,0.0,0.0,0.0,0.0,0.0,0.0,0.0,0.0,0.0,0.0,0.0,0.0,0.0,0.0,0.0,0.0,0.0,0.0,0.0,0.0,0.0,0.0,0.0,0.0,0.0,0.0,0.0,0.0,0.0,0.0,0.0,0.0,0.0,0.0,0.0,0.0,0.0,0.0,0.0,0.0,0.0,0.0,0.0,0.0,0.0,0.0,0.0,0.0,0.0,0.0,0.0,0.0,0.0,0.0,0.0,0.0,0.0,0.0,0.0,0.0,0.0,0.0,0.0,0.0,0.0,0.0,0.0,0.0,0.0,0.0,0.0,0.0,0.0,0.0,0.0,0.0,0.0,0.0,0.0,0.0,0.0,0.0,0.0,0.0,0.0,0.0,0.0,0.0,0.0,0.0,0.0,0.0,0.0,0.0,0.0,0.0,0.0,0.0,0.0,0.0,0.0,0.0,0.0,0.0,0.0,0.0,0.0,0.0,0.0,0.0,0.0,0.0,0.0,0.0,0.0,0.0,0.0,0.0,0.0,0.0,0.0,0.0,0.0,0.0,0.0,0.0,0.0,0.0,0.0,0.0,0.0,0.0,-1.0495,0.0,0.0,0.0,0.0,0.0,0.0,0.0,0.0,0.0,0.0,0.0,0.0,0.0,0.0,0.0,0.0,0.0,0.0,0.0,0.0,0.0,0.0,0.0,0.0,0.0,0.0,0.0,0.0,0.0,0.0,0.0,0.0,0.0,0.0,0.0,0.0,0.0,0.0,0.0,0.0,0.0,0.0,0.0,0.0,0.0,0.0,0.0,0.0,0.0,0.0,0.0,0.0,0.0,0.0,0.0,0.0,0.0,0.0,0.0,0.0,0.0,0.0,0.0,0.0,0.0,0.0,0.0,0.0,0.0,0.0,0.0,0.0,0.0,0.0,0.0,0.0,0.0,0.0,0.0,0.0,0.0,0.0,0.0,0.0,0.0,0.0,0.0,0.0,0.0,0.0,0.0,0.0,0.0,0.0,0.0,0.0,0.0,0.0,0.0,0.0,0.0,0.0,0.0,0.0,0.0,0.0,0.0,0.0,0.0,0.0,0.0,0.0,0.0,0.0,0.0,0.0,-1.073,0.0,0.0,0.0,0.0,0.0,0.0,0.0,0.0,0.0,0.0,0.0,0.0,0.0,0.0,0.0,0.0,0.0,0.0,0.0,0.0,0.0,0.0,0.0,0.0,0.0,0.0,0.0,0.0,0.0,0.0,0.0,0.0,0.0,0.0,0.0,0.0,0.0,0.0,0.0,0.0,0.0,0.0,0.0,0.0,0.0,0.0,0.0,0.0,0.0,0.0,0.0,0.0,0.0,0.0,0.0,0.0,0.0,0.0,0.0,0.0,0.0,0.0,0.0,0.0,0.0,0.0,0.0,0.0,0.0,0.0,0.0,0.0,0.0,0.0,0.0,0.0,0.0,0.0,0.0,0.0,0.0,0.0,0.0,0.0,0.0,0.0,0.0,0.0,0.0,0.0,0.0,0.0,0.0,0.0,0.0,0.0,0.0,0.0,0.0,0.0,0.0,0.0,0.0,0.0,0.0,0.0,0.0,0.0,-1.0196,-1.0553,-1.077,-1.101,-1.1313,-1.1622,-1.1153,-1.1016,-1.115,-1.1073,0.0,0.0,0.0,0.0,0.0,0.0,0.0,0.0,0.0,0.0,0.0,0.0,0.0,0.0,0.0,0.0,0.0,0.0,0.0,0.0,0.0,0.0,-0.7484,-0.7484,-0.7484,-0.7484,0.0,0.0,0.0,0.0,0.0,0.0,0.0,0.0,0.0,0.0,0.0,0.0,-0.7057,-0.7057,-0.7057,-0.7073,-0.7384,0.0,0.0,0.0,0.0,0.0,0.0,0.0,0.0,0.0,0.0,0.0,0.0,0.0,0.0,0.0,0.0,0.0,0.0,0.0,0.0,0.0,0.0,0.0,0.0,0.0,0.0,0.0,0.0,0.0,0.0,0.0,0.0,0.0,0.0,0.0,0.0,0.0,0.0,0.0,0.0,0.0,0.0,0.0,-0.928,-0.9414,0.0,0.0,0.0,0.0,0.0,0.0,0.0,0.0,0.0,0.0,0.0,0.0,0.0,-0.9382,-0.9382,-1.0129,-1.0464,-1.047,-1.1091,-1.1567,-1.1799,-1.1897,-1.2207,-1.263,-1.2434,0.0,-1.2065,-1.1444,0.0,0.0,0.0,0.0,0.0,0.0,0.0,0.0,0.0,0.0,0.0,0.0,0.0,0.0,0.0,0.0,0.0,0.0,0.0,0.0,0.0,-0.7714,-0.7829,-0.7829,-0.7829,-0.7829,0.0,0.0,0.0,0.0,0.0,0.0,0.0,0.0,0.0,0.0,-0.7029,-0.6988,-0.6988,-0.6988,-0.6988,-0.6996,-0.7151,-0.722,-0.7229,-0.7293,0.0,0.0,0.0,0.0,0.0,0.0,0.0,0.0,0.0,0.0,0.0,0.0,0.0,0.0,0.0,0.0,0.0,0.0,0.0,0.0,0.0,0.0,0.0,0.0,0.0,0.0,0.0,0.0,0.0,0.0,0.0,0.0,0.0,0.0,0.0,0.0,0.0,0.0,0.0,-0.9379,-0.9446,-0.9484,-0.9516,-0.9516,0.0,0.0,0.0,0.0,0.0,0.0,0.0,0.0,0.0,-0.9733,-0.9877,-1.0027,-1.0172,-1.0651,-1.0876,-1.0882,-1.1471,-1.1898,-1.2138,-1.2298,-1.2544,-1.287,-1.284,-1.2781,-1.2661,-1.2308,-1.201,-1.1748,0.0,0.0,0.0,0.0,-1.1582,-1.1994,0.0,0.0,0.0,0.0,0.0,0.0,0.0,0.0,0.0,0.0,0.0,0.0,-0.7638,-0.8021,-0.8255,-0.8255,-0.8255,-0.8217,-0.8102,0.0,0.0,0.0,0.0,0.0,0.0,0.0,0.0,-0.6849,-0.6849,-0.6849,-0.6853,-0.6919,-0.6919,-0.6853,-0.7059,-0.7113,-0.7143,-0.7244,-0.7339,0.0,0.0,0.0,0.0,0.0,0.0,0.0,0.0,0.0,0.0,0.0,0.0,0.0,0.0,0.0,0.0,0.0,0.0,0.0,0.0,0.0,0.0,0.0,0.0,0.0,0.0,0.0,0.0,0.0,0.0,0.0,0.0,0.0,0.0,0.0,0.0,0.0,0.0,-0.9545,-0.9516,-0.9516,-0.9516,-0.9516,0.0,0.0,0.0,0.0,0.0,0.0,-0.9618,-0.9745,-0.9907,-1.01,-1.0358,-1.0587,-1.0816,-1.1154,-1.1317,-1.1323,-1.1868,-1.2074,-1.208,-1.2283,-1.2363,-1.2329,-1.262,-1.2748,-1.2777,-1.2952,-1.2862,-1.2613,-1.2775,-1.2653,-1.2357,-1.2438,-1.2606,-1.2815,0.0,0.0,0.0,0.0,0.0,0.0,0.0,0.0,0.0,0.0,0.0,-0.8068,-0.8068,-0.8441,-0.8665,-0.8665,-0.8665,-0.8513,-0.814,-0.8063,0.0,0.0,0.0,0.0,0.0,0.0,0.0,-0.6444,-0.6444,-0.6444,-0.6444,-0.6742,-0.6742,-0.6444,-0.7166,-0.7479,-0.7491,-0.7499,-0.7677,-0.7931,0.0,0.0,0.0,0.0,0.0,0.0,0.0,0.0,0.0,0.0,0.0,0.0,0.0,0.0,0.0,0.0,0.0,0.0,0.0,0.0,0.0,0.0,0.0,0.0,0.0,0.0,0.0,0.0,0.0,0.0,0.0,0.0,0.0,0.0,0.0,0.0,0.0,0.0,0.0,-0.9516,-0.9516,0.0,0.0,0.0,0.0,-0.9516,-0.9745,-0.9883,-0.9883,-1.0358,-1.0635,-1.0647,-1.0936,-1.1081,-1.1093,-1.1618,-1.1838,-1.189,-1.2397,-1.2347,-1.175,-1.1761,-1.137,-1.0752,-1.1681,-1.204,-1.2126,-1.3014,-1.2753,-1.1766,-1.1766,-1.1069,-1.0106,-1.0365,-1.1021,-1.1804,0.0,0.0,0.0,0.0,0.0,0.0,0.0,0.0,0.0,-0.8246,-0.8174,-0.8217,-0.8441,-0.8861,-0.9089,-0.9089,-0.9089,-0.9018,-0.8865,0.0,0.0,0.0,0.0,0.0,0.0,0.0,-0.7111,-0.6716,-0.6975,-0.7101,-0.7101,-0.7232,-0.7232,-0.7134,-0.7391,-0.7607,-0.7798,-0.7692,-0.7713,-0.7831,-0.7855,-0.7758,0.0,0.0,0.0,0.0,0.0,0.0,0.0,0.0,0.0,0.0,0.0,0.0,0.0,0.0,0.0,0.0,0.0,0.0,0.0,0.0,0.0,0.0,0.0,0.0,0.0,0.0,0.0,0.0,0.0,0.0,0.0,0.0,0.0,0.0,0.0,0.0,0.0,-0.9516,-0.9516,0.0,-0.9751,-0.9763,-0.9835,-1.0003,-1.0106,-1.0232,-1.04,-1.0587,-1.0845,-1.1194,-1.1459,-1.1715,-1.1884,-1.1622,-1.1836,-1.2385,-1.1577,-1.166,-1.2577,-1.1359,-1.1311,-1.218,-1.1752,-1.1886,-1.2485,-1.279,-1.2875,-1.279,-1.279,-1.2528,-1.2174,-1.226,-1.2528,-1.279,0.0,0.0,0.0,0.0,0.0,0.0,0.0,0.0,0.0,-0.8479,-0.8522,-0.8594,-0.8861,-0.9279,-0.9511,-0.9511,-0.9511,-0.9392,-0.9127,0.0,0.0,0.0,0.0,0.0,0.0,-0.7407,-0.7438,-0.7342,-0.7606,-0.7769,-0.7841,-0.8049,-0.8083,-0.798,-0.8147,-0.8213,-0.8214,-0.8015,-0.7933,-0.7995,-0.8068,-0.7981,-0.7763,0.0,0.0,0.0,0.0,0.0,0.0,0.0,0.0,0.0,0.0,0.0,0.0,0.0,0.0,0.0,0.0,0.0,0.0,0.0,0.0,0.0,0.0,0.0,0.0,0.0,0.0,0.0,0.0,0.0,0.0,0.0,0.0,0.0,0.0,0.0,-0.9546,-0.9636,-0.9648,-0.9787,-1.0136,-1.0166,-1.0274,-1.0539,-1.0647,-1.0773,-1.0948,-1.1075,-1.1254,-1.1615,-1.1545,-1.1595,-1.1764,-1.1046,-1.1207,-1.2143,-1.1065,-1.1241,-1.2448,-1.1187,-1.1139,-1.2009,-1.1494,-1.1671,-1.2229,-1.2577,-1.2875,-1.3179,-1.3179,-1.3222,-1.3264,-1.2924,-1.3052,-1.3398,0.0,0.0,0.0,0.0,0.0,0.0,0.0,0.0,0.0,-0.814,-0.8789,-0.9284,-0.9322,-0.9657,-0.9884,-0.9884,-0.9884,-0.9576,-0.8775,-0.8703,0.0,0.0,0.0,0.0,-0.8369,-0.7839,-0.7775,-0.8236,-0.8236,-0.8341,-0.8548,-0.9125,-0.9236,-0.8932,-0.9395,-0.9279,-0.8689,-0.8427,-0.8366,-0.8479,-0.8335,-0.8287,-0.8205,0.0,0.0,0.0,0.0,0.0,0.0,0.0,0.0,0.0,0.0,0.0,0.0,0.0,0.0,0.0,0.0,0.0,0.0,0.0,0.0,0.0,0.0,0.0,0.0,0.0,0.0,0.0,0.0,0.0,0.0,0.0,0.0,0.0,-0.9318,-0.9426,-0.963,-0.9901,-0.9925,-1.0136,-1.0659,-1.0707,-1.0815,-1.1105,-1.1339,-1.1495,-1.1495,-1.1736,-1.188,-1.1852,-1.1117,-1.0713,-1.0678,-0.9862,-1.0013,-1.1113,-1.103,-1.1112,-1.1348,-1.1262,-1.0776,-1.0072,-1.0911,-1.1305,-1.1429,-1.2332,-1.2717,-1.2717,-1.2705,-1.2875,-1.2966,-1.2057,-1.2448,-1.3434,0.0,0.0,0.0,0.0,0.0,0.0,0.0,0.0,-0.8293,-0.8903,-0.8899,-0.9084,-0.9657,-0.9846,-0.9884,-0.9884,-0.9884,-0.9695,-0.917,0.0,0.0,0.0,0.0,0.0,-0.7992,-0.847,-0.8761,-0.8778,-0.9078,-0.9301,-0.952,-0.9696,-0.9728,-0.9614,-0.9777,-0.9469,-0.8923,-0.8857,-0.8469,-0.7918,-0.8057,-0.7946,-0.7735,0.0,0.0,0.0,0.0,0.0,0.0,0.0,0.0,0.0,0.0,0.0,0.0,0.0,0.0,0.0,0.0,0.0,0.0,0.0,0.0,0.0,0.0,0.0,0.0,0.0,0.0,0.0,0.0,0.0,0.0,0.0,0.0,-0.9727,-0.9727,-0.9766,-0.9967,-1.0418,-1.0472,-1.0683,-1.1218,-1.1273,-1.1297,-1.1375,-1.1447,-1.1495,-1.1495,-1.1561,-1.1494,-1.1158,-1.0957,-1.0616,-1.0136,-0.9206,-0.9693,-1.1521,-0.9407,-1.0004,-1.2798,-0.9935,-1.0022,-1.2473,-1.1292,-1.1608,-1.2915,-1.2953,-1.3006,-1.2988,-1.2783,-1.2747,-1.279,-1.2534,-1.2747,-1.3222,0.0,0.0,0.0,0.0,0.0,0.0,0.0,0.0,-0.8331,-0.8975,-0.8975,-0.9198,-0.9846,-0.9884,-0.9884,-0.9884,-0.9733,-0.9468,-0.9089,0.0,0.0,0.0,0.0,-0.837,-0.8412,-0.8805,-0.918,-0.953,-0.9856,-1.0137,-1.0369,-1.0431,-1.0479,-1.0474,-1.0412,-1.0,-0.9354,-0.915,-0.8636,-0.7948,-0.7845,-0.7755,-0.7736,-0.8067,-0.7912,-0.7554,-0.7739,-0.7837,-0.7774,-0.7172,0.0,0.0,0.0,0.0,0.0,0.0,0.0,0.0,0.0,0.0,0.0,0.0,0.0,0.0,0.0,0.0,0.0,0.0,0.0,0.0,0.0,0.0,0.0,0.0,-0.9756,-1.0148,-1.0364,-1.0304,-1.0424,-1.096,-1.0954,-1.1099,-1.1603,-1.1555,-1.1537,-1.1645,-1.1754,-1.182,-1.182,-1.1455,-1.1144,-1.0925,-1.0134,-0.9554,-0.9155,-0.8329,-0.8758,-1.0458,-0.8767,-0.9453,-1.2129,-0.982,-1.0051,-1.2129,-1.1017,-1.1155,-1.221,-1.2028,-1.1973,0.0,0.0,0.0,0.0,0.0,-1.3094,-1.3222,0.0,0.0,0.0,0.0,0.0,0.0,0.0,0.0,-0.8174,-0.8627,-0.9013,-0.9397,-0.9846,-0.9884,-0.9884,-0.9884,-0.9544,-0.9127,0.0,0.0,0.0,-0.8025,-0.7829,-0.8183,-0.9166,-0.8971,-0.9324,-1.0216,-1.0493,-1.0753,-1.0942,-1.1203,-1.1262,-1.1208,-1.108,-1.0559,-0.9769,-0.9336,-0.8816,-0.8189,-0.7739,-0.7723,-0.7957,-0.7997,-0.7987,-0.7954,-0.7722,-0.7678,-0.7706,-0.7179,0.0,0.0,0.0,0.0,0.0,0.0,0.0,0.0,0.0,0.0,0.0,0.0,0.0,0.0,0.0,0.0,0.0,0.0,0.0,0.0,0.0,0.0,0.0,0.0,-1.0025,-1.0593,-1.1093,-1.0985,-1.0996,-1.1477,-1.1329,-1.1371,-1.1874,-1.1718,-1.1676,-1.195,-1.2186,-1.23,-1.227,0.0,0.0,0.0,0.0,-0.8181,-0.8244,-0.7518,-0.7755,-0.8861,-0.8736,-0.9338,-1.0492,-1.0259,-1.0259,-1.0492,-1.0352,-1.0399,-1.0487,-1.0464,-1.0445,-1.0523,-1.1921,-1.2562,-1.2796,-1.2967,-1.3028,-1.3045,0.0,0.0,0.0,0.0,0.0,0.0,0.0,0.0,0.0,-0.8585,-0.878,-0.9084,-0.9803,-0.9884,-0.9884,-0.9884,-0.9544,-0.898,0.0,0.0,-0.8208,-0.7638,-0.8479,-0.8827,-0.8596,-0.9511,-0.9911,-0.9734,-1.0523,-1.0821,-1.0704,-1.1106,-1.1084,-1.0766,-1.108,-1.0459,-0.92,-0.9461,-0.8923,-0.7912,-0.7914,-0.7843,-0.7764,-0.7921,-0.7987,-0.8019,-0.8247,-0.8316,-0.832,-0.8216,-0.7739,-0.7196,-0.7205,0.0,0.0,0.0,0.0,0.0,0.0,0.0,0.0,0.0,0.0,0.0,0.0,0.0,0.0,0.0,0.0,0.0,0.0,0.0,0.0,-1.0136,-1.0794,-1.1297,-1.1399,-1.1549,-1.1727,-1.1796,-1.1573,-1.1621,-1.2186,-1.2192,-1.2186,-1.2234,-1.2282,-1.2222,-1.2011,-1.1241,-1.0932,-1.1209,-0.9469,-0.8644,-0.8971,-0.8001,-0.8092,-0.9277,0.0,0.0,-1.1003,-0.9262,-0.9409,-1.1008,-1.0135,-1.0232,-1.1042,-1.0829,-1.0618,-1.0417,-1.0745,-1.083,-1.0761,-1.0805,-1.0865,-1.0918,0.0,0.0,0.0,0.0,0.0,0.0,0.0,0.0,0.0,0.0,-0.8403,-0.8632,-0.9236,-0.9311,-0.9311,-0.9311,-0.8937,0.0,0.0,-0.7983,-0.794,-0.7522,-0.825,-0.8735,-0.8739,-0.9682,-1.0182,-1.0317,-1.0852,-1.1096,-1.0949,-1.1176,-1.1041,-1.0593,-1.0857,-1.0283,-0.9155,-0.9413,-0.895,-0.8045,-0.793,-0.7802,-0.7729,-0.7803,-0.7819,-0.7787,-0.8117,-0.8252,-0.8284,-0.8447,-0.8214,-0.7879,-0.7982,-0.7689,-0.726,0.0,0.0,0.0,0.0,0.0,0.0,0.0,0.0,0.0,0.0,0.0,0.0,0.0,0.0,-0.8688,0.0,0.0,-1.0306,-1.0752,-1.1206,-1.1537,-1.167,-1.1802,-1.1928,-1.206,-1.1844,-1.1838,-1.2276,-1.2198,-1.2119,-1.2119,-1.224,-1.2312,-1.2312,-1.115,-1.0644,-1.0954,-0.9163,-0.828,-0.8503,-0.8021,-0.8094,-0.8698,-0.8168,-0.8501,-0.9558,-0.8482,-0.8577,-0.9558,-0.9019,-0.9118,-0.96,-0.9466,-0.9328,-0.9204,-0.9204,-0.9648,-1.0313,-1.0313,-1.0267,-1.026,0.0,0.0,0.0,0.0,0.0,0.0,0.0,0.0,0.0,0.0,-0.8102,-0.8255,-0.8665,-0.8703,-0.8665,0.0,0.0,0.0,0.0,-0.7561,-0.7599,-0.7522,-0.7944,-0.8483,-0.9002,-0.9727,-1.0352,-1.08,-1.1123,-1.1262,-1.1176,-1.1262,-1.0997,-1.0506,-1.0549,-1.0077,-0.9174,-0.9262,-0.8953,-0.8308,-0.7959,-0.7751,-0.7664,-0.753,-0.7511,-0.7554,-0.7954,-0.8052,-0.8052,-0.8382,-0.8517,-0.8517,-0.8517,-0.8517,-0.8382,-0.7689,-0.7391,0.0,0.0,0.0,0.0,0.0,0.0,0.0,0.0,0.0,-0.8136,-0.8431,-0.9085,-0.9719,-0.9963,-1.0351,-1.0812,-1.1232,-1.1498,-1.17,-1.1902,-1.188,-1.2023,-1.2282,-1.2042,-1.2029,-1.2288,-1.2079,-1.2023,-1.2071,-1.2111,-1.2241,-1.2437,-1.0878,-1.0135,-1.0531,-0.8725,-0.7863,-0.8055,-0.8017,-0.7944,-0.7944,-0.7975,-0.7988,-0.7988,-0.7988,-0.7988,-0.7988,-0.7988,-0.7988,-0.7988,-0.7988,-0.7988,-0.7988,-0.7988,-0.8807,-0.9929,-0.989,-0.98,-0.9677,0.0,0.0,0.0,0.0,0.0,0.0,0.0,0.0,0.0,0.0,0.0,0.0,0.0,0.0,0.0,0.0,0.0,0.0,-0.7561,-0.7829,-0.7872,-0.7522,-0.8246,-0.8654,-0.8724,-0.9933,-1.0398,-1.0091,-1.0901,-1.1084,-1.0684,-1.1084,-1.0868,-1.0081,-1.0419,-0.9907,-0.8696,-0.913,-0.903,-0.8535,-0.8012,-0.7673,-0.7471,-0.6993,-0.7113,-0.7587,-0.822,-0.8252,-0.8052,-0.8382,-0.8517,-0.8517,-0.8517,-0.8517,-0.8382,-0.7689,0.0,-0.6531,-0.6531,-0.6465,-0.6597,-0.7349,-0.7451,-0.7667,0.0,0.0,-0.9421,-0.9796,-1.0005,-1.018,-1.039,-1.0869,-1.1249,-1.1278,-1.1793,-1.2155,-1.191,-1.188,-1.2023,-1.2282,-1.2042,-1.2029,-1.2288,-1.2288,-1.2367,-1.2602,-1.1995,-1.157,-1.1462,-0.9985,-0.9485,-1.0286,-0.8556,-0.8088,-0.9019,-0.8239,-0.7838,-0.7838,-0.7924,-0.7988,-0.7988,-0.7988,-0.7988,-0.7988,-0.7988,-0.7988,-0.7988,-0.7988,-0.7988,-0.7988,-0.7988,-0.8117,-0.8266,-0.8125,-0.8025,-0.7898,0.0,0.0,0.0,0.0,0.0,0.0,0.0,0.0,0.0,0.0,0.0,0.0,0.0,0.0,0.0,0.0,0.0,0.0,-0.7522,-0.8093,-0.8289,-0.7872,-0.8632,-0.9121,-0.9263,-1.0036,-1.0398,-1.0345,-1.0858,-1.1048,-1.0836,-1.1155,-1.0954,-1.0337,-1.0294,-0.9777,-0.8986,-0.8674,-0.8412,-0.8199,-0.7667,-0.7338,-0.7212,-0.7054,-0.6941,-0.6872,-0.7031,-0.6999,0.0,0.0,-0.7744,-0.7847,-0.8344,-0.8517,-0.8284,-0.719,-0.6961,0.0,-0.7027,-0.7326,-0.7746,0.0,-0.8438,-0.8696,-0.9456,-0.9777,-0.999,-1.0272,-1.0479,-1.0683,-1.0926,-1.1381,-1.1719,0.0,-1.191,-1.2047,-1.1938,-1.188,-1.2023,-1.2282,-1.2355,-1.2421,-1.253,-1.2542,-1.2584,-1.2693,-1.1895,-1.1445,-1.1526,-0.9867,-0.9113,-0.9655,-0.8307,-0.7832,-0.8247,-0.7891,-0.7689,-0.7689,-0.7838,-0.7906,-0.7909,-0.7948,-0.7988,-0.7988,-0.7988,-0.7988,-0.7988,-0.7988,-0.7988,-0.7988,-0.7988,-0.7988,-0.7982,-0.7917,-0.7848,-0.7723,0.0,0.0,0.0,0.0,0.0,0.0,0.0,0.0,0.0,0.0,0.0,0.0,0.0,0.0,0.0,0.0,0.0,0.0,0.0,-0.8212,-0.8403,-0.8106,-0.8865,-0.9389,-0.9532,-1.0053,-1.0406,-1.0597,-1.0805,-1.0885,-1.0891,-1.1032,-1.0852,-1.0369,-0.999,-0.9534,-0.8998,-0.8263,-0.7914,-0.7825,-0.7342,-0.707,-0.6999,-0.7074,-0.6726,-0.6181,-0.6243,-0.6207,0.0,0.0,-0.685,-0.6953,-0.7587,-0.7787,-0.7554,-0.64,-0.6597,-0.7204,-0.7296,0.0,0.0,-0.9064,-0.9268,-0.95,-0.9896,-1.0176,-1.0379,-1.0586,-1.0827,-1.1092,-1.1262,-1.1657,-1.1892,-1.1728,-1.1723,-1.176,-1.18,-1.1806,-1.1966,-1.2379,-1.259,-1.2705,-1.2705,-1.2705,-1.2735,-1.2813,-1.1684,-1.11,-1.1311,-0.9476,-0.8481,-0.8609,-0.7884,-0.7472,-0.7472,-0.7516,-0.7536,-0.7539,-0.7723,-0.7811,-0.7818,-0.7921,-0.7988,-0.7988,-0.7988,-0.7988,-0.7988,-0.7988,-0.7988,-0.7988,-0.7988,-0.7988,-0.7988,-0.7988,-0.7921,-0.7875,0.0,0.0,0.0,0.0,0.0,0.0,0.0,0.0,0.0,0.0,0.0,0.0,0.0,0.0,0.0,0.0,0.0,0.0,0.0,-0.8102,-0.8106,-0.8102,-0.8865,-0.9236,-0.9104,-0.9901,-1.0406,-1.0597,-1.0603,-1.0608,-1.0608,-1.0613,-1.0375,-0.9887,-0.951,-0.8986,-0.8409,-0.7967,-0.7702,-0.7468,-0.7143,-0.6992,-0.6986,-0.6932,-0.6383,-0.5716,-0.6441,0.0,0.0,0.0,-0.5935,-0.5935,-0.5972,-0.5968,0.0,-0.5315,-0.5745,-0.6506,0.0,0.0,-0.9279,-0.9666,-0.9834,-0.9997,-1.0401,-1.0523,-1.0681,-1.0912,-1.116,-1.1289,-1.1295,-1.1521,-1.1538,-1.1004,-1.1163,-1.1404,-1.1565,-1.1605,-1.1869,-1.259,-1.2699,-1.2705,0.0,-1.2705,-1.2819,-1.3091,-1.1311,-1.0284,-1.0338,-0.8495,-0.7347,-0.7156,-0.7153,-0.7109,-0.7109,-0.7302,-0.7426,-0.7429,-0.7672,-0.7811,-0.7818,-0.7921,-0.7988,-0.7988,-0.7988,-0.7988,-0.7988,-0.7988,-0.7988,-0.7988,-0.7988,-0.7988,-0.7988,-0.7988,-0.7985,-0.7982,0.0,0.0,0.0,0.0,0.0,0.0,0.0,0.0,0.0,0.0,0.0,0.0,0.0,0.0,0.0,0.0,0.0,0.0,0.0,-0.8212,-0.8789,-0.8518,-0.9273,-0.9694,-0.9619,-0.9893,-1.0083,-1.012,-1.0326,-1.0406,-1.0412,-1.0522,-1.0511,-1.0349,-0.9902,-0.9452,-0.8949,-0.8125,-0.7735,-0.7596,-0.7133,-0.7101,-0.7286,-0.6995,-0.6515,-0.5877,0.0,0.0,0.0,-0.4912,-0.4975,-0.5074,-0.5705,-0.5972,-0.6108,-0.6568,-0.6983,-0.7495,-0.8186,0.0,-0.9587,-1.0024,-1.0262,-1.0455,-1.0778,-1.0934,-1.1091,-1.1171,-1.1252,-1.1305,-1.1305,-1.1527,-1.1588,-1.1208,-1.1224,-1.1422,-1.1788,-1.1711,-1.1875,-1.2602,-1.2705,0.0,0.0,0.0,0.0,-1.1967,-1.0737,-0.9728,-0.9116,-0.7882,-0.7149,-0.7098,-0.7095,-0.7095,-0.7095,-0.7146,-0.7217,-0.7221,-0.7526,-0.7773,-0.7914,-0.7968,-0.7988,-0.7988,-0.7988,-0.7988,-0.7988,-0.7988,-0.7988,-0.7988,-0.7988,-0.7988,-0.7988,-0.7988,-0.7988,-0.7988,0.0,0.0,0.0,0.0,0.0,0.0,0.0,0.0,0.0,0.0,0.0,0.0,0.0,0.0,0.0,0.0,0.0,0.0,0.0,0.0,-0.8432,-0.8165,-0.9003,-0.9387,-0.9279,-0.9387,-0.9463,-0.9463,-0.9776,-0.9932,-0.9937,-1.0236,-1.034,-1.034,-0.987,-0.9503,-0.9159,-0.8337,-0.7873,-0.7626,-0.7014,-0.6839,-0.6897,-0.6465,-0.5914,0.0,0.0,0.0,0.0,-0.3954,-0.4051,-0.4151,-0.4818,-0.5348,-0.5888,-0.6543,-0.7301,-0.8107,-0.8898,-0.9516,-1.0051,-1.0444,-1.0719,-1.0887,-1.1079,-1.1193,-1.1305,-1.1305,-1.1305,-1.1219,-1.0868,-1.1219,-1.1353,-1.0805,-1.0906,-1.1207,-1.1698,-1.156,-1.163,-1.2353,-1.2534,-1.2618,0.0,0.0,0.0,-1.1494,-1.0567,-0.9645,-0.8682,-0.7654,-0.7095,-0.7095,-0.7095,-0.7095,-0.7095,-0.7095,-0.7149,-0.7264,-0.7556,-0.7804,-0.7988,-0.7988,-0.7988,-0.7988,-0.7988,-0.7988,-0.7988,-0.7988,-0.7988,-0.7988,-0.7988,-0.7988,-0.7988,-0.7988,-0.7988,-0.7988,0.0,0.0,0.0,0.0,0.0,0.0,0.0,0.0,0.0,0.0,0.0,0.0,0.0,0.0,0.0,0.0,0.0,0.0,0.0,0.0,0.0,-0.7165,-0.8084,-0.8437,-0.8102,-0.8479,-0.8665,-0.8703,-0.9089,-0.9284,-0.9284,-0.9657,-0.9846,-0.9809,-0.9435,-0.9125,-0.8883,-0.8475,-0.7997,-0.7455,-0.6722,-0.6241,-0.5851,-0.545,0.0,0.0,0.0,0.0,0.0,0.0,0.0,0.0,0.0,-0.4364,-0.5259,-0.5467,-0.6849,-0.8382,-0.8877,-0.9778,-1.0667,-1.0945,-1.1176,-1.1305,-1.1305,-1.1305,-1.1305,-1.1219,-1.1219,-1.0954,0.0,0.0,-1.0881,-0.9799,-1.0177,-1.0776,-1.1258,-1.1128,-1.1243,0.0,0.0,0.0,0.0,0.0,0.0,-1.1721,0.0,-0.9885,-0.8882,-0.7704,-0.7095,-0.7095,-0.7095,-0.7098,-0.7109,-0.7115,-0.7267,-0.7611,-0.7746,-0.7892,-0.7988,-0.7988,-0.7988,-0.7988,-0.7988,-0.7988,-0.7988,-0.7988,-0.7988,-0.7988,-0.7988,-0.7988,-0.7988,-0.7988,-0.7988,-0.7988,0.0,0.0,0.0,0.0,0.0,0.0,0.0,0.0,0.0,0.0,0.0,0.0,0.0,0.0,0.0,0.0,0.0,0.0,0.0,0.0,0.0,0.0,0.0,0.0,0.0,0.0,0.0,0.0,0.0,-0.8856,-0.8856,-0.897,-0.9003,-0.9008,-0.8894,-0.8405,-0.766,-0.7377,-0.6921,-0.6313,0.0,-0.5909,-0.5994,0.0,0.0,0.0,0.0,0.0,0.0,0.0,0.0,0.0,0.0,-0.6097,-0.6975,-0.7377,-0.8435,-0.9579,-1.004,-1.0502,-1.0955,-1.1155,-1.1262,-1.1305,-1.1305,-1.1305,-1.1089,-1.0386,-1.025,-0.999,0.0,0.0,0.0,-0.9875,-1.041,0.0,-1.1523,-1.1383,0.0,-1.196,0.0,-1.2512,-1.2789,-1.2353,0.0,0.0,-1.0428,-0.9508,-0.7642,-0.7248,-0.7095,-0.7095,-0.7095,-0.7149,-0.7312,-0.7424,-0.7573,-0.7756,-0.7794,-0.7892,-0.7988,-0.7988,-0.7988,-0.7988,-0.7988,-0.7988,-0.7988,-0.7988,-0.7988,-0.7988,-0.7988,-0.7988,-0.7988,-0.7988,-0.7988,-0.7988,0.0,0.0,0.0,0.0,0.0,0.0,0.0,0.0,0.0,0.0,0.0,0.0,0.0,0.0,0.0,0.0,0.0,0.0,0.0,0.0,0.0,0.0,0.0,0.0,0.0,0.0,0.0,0.0,0.0,0.0,0.0,-0.8508,-0.8546,-0.8318,-0.8318,-0.7817,-0.7034,-0.6904,0.0,0.0,0.0,0.0,0.0,0.0,0.0,0.0,0.0,0.0,0.0,0.0,0.0,-0.5645,-0.6116,-0.7039,-0.8004,-0.8396,0.0,-1.0276,-1.0686,-1.0966,-1.1176,-1.1273,-1.1305,-1.1305,-1.1305,-1.0997,-1.0534,-0.9957,-0.9547,0.0,0.0,0.0,0.0,0.0,0.0,0.0,-1.1341,-1.1279,-1.1282,0.0,-1.1969,0.0,-1.2032,-1.1824,-1.1161,0.0,-0.9705,-0.8906,-0.7194,-0.7095,-0.7129,-0.7241,-0.7241,-0.7316,-0.7468,-0.7617,-0.7733,-0.7811,-0.7879,-0.7907,-0.7988,-0.7988,-0.7988,-0.7988,-0.7988,-0.7988,-0.7988,-0.7988,-0.7988,-0.7988,-0.7988,-0.7988,-0.7988,-0.7988,-0.7988,-0.7988,0.0,0.0,0.0,0.0,0.0,0.0,0.0,0.0,0.0,0.0,0.0,0.0,0.0,0.0,0.0,0.0,0.0,0.0,0.0,0.0,0.0,0.0,0.0,0.0,0.0,0.0,0.0,0.0,0.0,0.0,0.0,0.0,0.0,0.0,0.0,0.0,0.0,0.0,0.0,0.0,0.0,0.0,0.0,0.0,0.0,0.0,0.0,0.0,0.0,0.0,-0.6546,-0.6739,-0.6838,-0.7695,-0.8726,-0.9016,-0.9828,-1.0694,-1.0966,-1.1187,-1.1305,-1.1305,-1.1305,-1.1267,-1.1132,-1.0496,-0.9809,-0.9498,0.0,-0.7854,-0.6795,-0.815,-0.9208,-0.853,0.0,-1.0894,-1.0988,-1.1009,-1.102,-1.0988,-1.1576,-1.1738,-1.1009,-1.1232,-1.0716,-0.8997,-0.8693,-0.8169,-0.7146,-0.7095,-0.721,-0.7412,-0.7456,-0.7492,-0.7628,-0.777,-0.7841,-0.7841,-0.7928,-0.7988,-0.7988,-0.7988,-0.7988,-0.7988,-0.7988,-0.7988,-0.7988,-0.7988,-0.7988,-0.7988,-0.7988,-0.7988,-0.7988,-0.7988,-0.7988,-0.7988,0.0,0.0,0.0,0.0,0.0,0.0,0.0,0.0,0.0,0.0,-0.3206,0.0,0.0,0.0,0.0,0.0,0.0,0.0,0.0,0.0,0.0,0.0,0.0,0.0,0.0,0.0,0.0,0.0,0.0,0.0,0.0,0.0,0.0,0.0,0.0,0.0,0.0,0.0,0.0,0.0,0.0,0.0,0.0,0.0,0.0,0.0,0.0,0.0,0.0,0.0,-0.7053,-0.7993,-0.8543,-0.9145,-0.9717,-0.996,-1.0477,-1.0977,-1.1177,-1.1273,-1.1305,-1.1305,-1.1305,-1.1089,-1.0342,-0.9986,0.0,0.0,-0.7277,-0.6802,-0.5826,-0.6645,-0.768,-0.8318,0.0,0.0,0.0,0.0,-1.1171,0.0,0.0,0.0,0.0,0.0,0.0,0.0,-0.774,-0.7125,-0.7098,-0.7095,-0.721,-0.7412,-0.7607,-0.7746,-0.7773,-0.7874,-0.7948,-0.7951,-0.7978,-0.7988,-0.7988,-0.7988,-0.7988,-0.7988,-0.7988,0.0,-0.7988,-0.7988,-0.7988,-0.7988,-0.7988,-0.7988,-0.7988,-0.7988,-0.7988,-0.7988,0.0,0.0,0.0,0.0,0.0,0.0,0.0,0.0,0.0,0.0,-0.3192,-0.321,0.0,0.0,0.0,0.0,0.0,0.0,0.0,0.0,0.0,0.0,0.0,0.0,0.0,0.0,0.0,0.0,0.0,0.0,0.0,0.0,0.0,0.0,0.0,0.0,0.0,0.0,0.0,0.0,0.0,0.0,0.0,0.0,0.0,0.0,0.0,0.0,0.0,0.0,-0.7023,-0.8414,-0.9181,-0.9809,-1.0276,-1.0439,-1.0805,-1.116,-1.1278,-1.1305,-1.1305,-1.1305,-1.1305,-1.1041,-1.012,0.0,0.0,0.0,-0.6385,-0.5822,-0.5278,0.0,0.0,0.0,0.0,0.0,0.0,0.0,0.0,0.0,0.0,0.0,0.0,0.0,0.0,-0.752,-0.705,-0.6881,-0.7095,-0.7247,-0.7448,-0.7594,-0.7814,-0.788,-0.788,-0.7955,-0.7988,-0.7988,-0.7988,-0.7988,-0.7988,-0.7988,-0.7988,-0.7988,-0.7988,-0.7988,-0.7988,-0.7988,-0.7988,-0.7988,-0.7988,-0.7988,-0.7988,-0.7988,-0.7988,-0.7988,0.0,0.0,0.0,0.0,0.0,0.0,0.0,-0.3192,-0.3192,-0.3192,-0.3192,-0.3192,-0.3192,-0.3291,0.0,0.0,0.0,0.0,0.0,0.0,0.0,0.0,0.0,0.0,0.0,0.0,0.0,-0.3802,0.0,0.0,0.0,0.0,0.0,0.0,0.0,0.0,0.0,0.0,0.0,0.0,0.0,0.0,0.0,0.0,0.0,0.0,0.0,0.0,0.0,0.0,-0.6542,-0.7935,-0.8728,-0.9748,-1.0557,-1.0384,-1.0805,-1.1262,-1.1041,-1.0997,-1.0954,-1.0738,-1.0694,-1.0458,-0.9495,-0.8644,0.0,0.0,-0.5757,-0.5124,-0.5034,0.0,0.0,0.0,0.0,0.0,0.0,0.0,0.0,0.0,0.0,0.0,0.0,0.0,0.0,-0.6408,-0.6596,-0.6882,-0.7146,-0.7448,-0.7665,-0.7807,-0.7911,-0.7988,-0.7988,-0.7988,-0.7988,-0.7988,-0.7988,-0.7988,-0.7988,-0.7988,-0.7988,-0.7988,-0.7988,-0.7988,-0.7988,-0.7988,-0.7988,-0.7988,-0.7988,-0.7988,-0.7988,-0.7988,-0.7988,-0.7988,0.0,0.0,0.0,0.0,0.0,0.0,0.0,-0.3192,-0.3192,-0.3192,-0.3192,-0.3192,-0.3192,-0.32,0.0,0.0,0.0,0.0,0.0,0.0,0.0,0.0,0.0,0.0,0.0,0.0,0.0,-0.3802,-0.3919,0.0,0.0,0.0,0.0,0.0,0.0,0.0,0.0,0.0,0.0,0.0,0.0,0.0,0.0,0.0,0.0,0.0,0.0,0.0,0.0,0.0,0.0,-0.6002,-0.6789,-0.8684,-1.0471,-0.972,0.0,0.0,-1.025,-1.0033,-0.9816,-0.8982,-0.8763,-0.8499,-0.7479,0.0,0.0,-0.5549,-0.519,-0.5029,-0.5018,-0.5187,0.0,0.0,0.0,0.0,0.0,0.0,0.0,0.0,0.0,0.0,0.0,0.0,0.0,-0.6192,-0.6415,-0.6846,-0.735,-0.7509,-0.7665,-0.7807,-0.7911,-0.7988,-0.7988,-0.7988,-0.7988,-0.7988,-0.7988,-0.7988,-0.7988,-0.7988,-0.7988,-0.7988,-0.7988,-0.7988,0.0,-0.7988,-0.7988,-0.7988,-0.7988,-0.7988,-0.7988,-0.7988,-0.7988,-0.7988,0.0,0.0,0.0,0.0,0.0,0.0,0.0,-0.3192,-0.3192,-0.3192,-0.3192,-0.3192,-0.3192,-0.3192,-0.3208,0.0,0.0,0.0,0.0,0.0,0.0,0.0,0.0,0.0,0.0,0.0,0.0,-0.3802,-0.3802,0.0,0.0,0.0,0.0,0.0,0.0,-0.3802,0.0,0.0,0.0,0.0,0.0,0.0,0.0,0.0,0.0,0.0,0.0,0.0,0.0,0.0,0.0,0.0,-0.5384,-0.681,0.0,0.0,-0.9396,-0.961,-0.9826,-0.9506,-0.8982,-0.8588,-0.8463,-0.8189,-0.7225,0.0,-0.6414,-0.5396,-0.5097,-0.5018,-0.5018,-0.5053,-0.5265,0.0,0.0,0.0,0.0,0.0,0.0,0.0,0.0,0.0,0.0,0.0,-0.6453,-0.6142,-0.6218,-0.6587,-0.726,-0.7411,-0.7604,-0.7894,-0.7958,-0.7988,-0.7988,-0.7988,-0.7988,-0.7988,-0.7988,-0.7988,-0.7988,-0.7988,-0.7988,-0.7988,-0.7988,-0.7988,0.0,-0.7988,-0.7988,-0.7988,-0.7988,-0.7988,-0.7988,-0.7988,-0.7988,-0.7988,0.0,0.0,0.0,0.0,0.0,0.0,-0.3192,-0.3192,-0.3192,-0.3192,-0.3192,-0.3192,-0.3192,-0.3192,-0.3192,-0.3192,0.0,0.0,0.0,0.0,0.0,0.0,0.0,0.0,0.0,0.0,-0.3802,-0.3802,-0.3802,-0.3802,0.0,0.0,-0.3802,-0.3802,0.0,0.0,0.0,0.0,0.0,0.0,0.0,0.0,0.0,0.0,0.0,0.0,0.0,0.0,0.0,0.0,0.0,0.0,0.0,0.0,0.0,0.0,-0.842,-0.864,-0.8905,-0.8682,-0.8209,-0.7696,-0.7564,-0.7341,0.0,0.0,-0.5971,-0.53,-0.5072,-0.5018,-0.5018,-0.5018,-0.5094,0.0,0.0,-0.6544,0.0,0.0,0.0,0.0,0.0,0.0,0.0,0.0,-0.59,-0.5961,-0.6028,-0.6321,-0.6964,-0.711,-0.7446,-0.7985,-0.7988,-0.7988,-0.7988,-0.7988,-0.7988,-0.7988,-0.7988,-0.7988,-0.7988,-0.7988,-0.7988,-0.7988,-0.7988,-0.7988,0.0,-0.7988,-0.7988,-0.7988,-0.7988,-0.7988,-0.7988,-0.7988,-0.7988,-0.7988,0.0,0.0,0.0,0.0,0.0,0.0,0.0,-0.3192,-0.3192,-0.3192,-0.3192,-0.3192,-0.3192,-0.3192,-0.3192,-0.3192,0.0,0.0,0.0,0.0,0.0,0.0,0.0,0.0,0.0,0.0,-0.3802,-0.3802,-0.3802,-0.3802,-0.3802,-0.3802,-0.3802,-0.3802,0.0,0.0,0.0,0.0,0.0,0.0,0.0,0.0,0.0,0.0,0.0,0.0,0.0,0.0,0.0,0.0,0.0,0.0,0.0,0.0,0.0,0.0,-0.7619,-0.8742,-0.7225,-0.7387,-0.7589,-0.5868,-0.5413,-0.538,0.0,0.0,-0.5154,-0.5042,-0.5018,-0.5018,-0.5018,-0.5018,-0.5094,-0.5372,0.0,0.0,0.0,0.0,0.0,0.0,0.0,0.0,0.0,0.0,-0.5855,-0.5696,-0.5839,0.0,-0.6499,-0.663,-0.7101,-0.7985,-0.7988,-0.7988,-0.7988,-0.7988,-0.7988,-0.7988,-0.7988,-0.7988,-0.7988,-0.7988,-0.7988,-0.7988,-0.7988,-0.7988,0.0,-0.7988,-0.7988,-0.7988,-0.7988,-0.7988,-0.7988,-0.7988,-0.7988,-0.7988,0.0,0.0,0.0,0.0,0.0,0.0,0.0,-0.3192,-0.3192,-0.3192,-0.3192,-0.3192,-0.3192,-0.3192,-0.3192,-0.3192,0.0,0.0,0.0,0.0,0.0,0.0,0.0,0.0,0.0,0.0,-0.3802,-0.3802,-0.3802,-0.3802,-0.3802,-0.3802,-0.3802,-0.3802,-0.3802,0.0,0.0,0.0,0.0,0.0,0.0,0.0,0.0,0.0,0.0,0.0,0.0,0.0,0.0,0.0,0.0,0.0,0.0,0.0,0.0,0.0,0.0,0.0,-0.6531,-0.6395,-0.6108,-0.5535,-0.5347,-0.5235,-0.5195,0.0,-0.5061,-0.5023,-0.5018,-0.5018,-0.5018,-0.5018,-0.5094,-0.5372,-0.541,0.0,0.0,0.0,0.0,0.0,0.0,0.0,0.0,0.0,-0.5855,-0.5696,-0.5723,-0.5929,-0.6328,-0.6421,-0.6822,-0.7683,-0.7746,-0.7793,-0.7988,-0.7988,-0.7988,-0.7988,-0.7988,-0.7988,-0.7988,-0.7988,-0.7988,-0.7988,-0.7988,-0.7988,-0.7988,-0.7988,-0.7988,-0.7988,-0.7988,-0.7988,-0.7988,-0.7988,-0.7988,-0.7988,0.0,0.0,0.0,0.0,0.0,0.0,0.0,-0.3192,-0.3192,-0.3192,-0.3192,-0.3192,-0.3192,-0.3192,-0.3192,-0.3192,0.0,0.0,0.0,0.0,0.0,0.0,0.0,0.0,0.0,-0.3802,-0.3802,-0.3802,-0.3802,-0.3802,-0.3802,-0.3802,-0.3802,-0.3802,-0.3802,-0.3802,0.0,0.0,0.0,0.0,0.0,0.0,-0.3802,0.0,0.0,0.0,0.0,0.0,0.0,0.0,0.0,0.0,0.0,0.0,0.0,0.0,-0.4319,0.0,0.0,-0.5754,-0.5635,-0.5317,-0.5178,0.0,0.0,0.0,-0.5018,-0.5018,-0.5018,-0.5018,-0.5018,-0.5053,-0.5143,-0.538,-0.5409,0.0,0.0,0.0,0.0,0.0,0.0,0.0,0.0,-0.5945,-0.5972,-0.5809,-0.5798,-0.5895,-0.6204,-0.6209,-0.6549,-0.7285,-0.739,-0.7539,-0.7842,-0.7842,-0.7892,-0.7988,-0.7988,-0.7988,-0.7988,-0.7988,-0.7988,-0.7988,-0.7988,-0.7988,0.0,-0.7988,-0.7988,-0.7988,-0.7988,-0.7988,-0.7988,-0.7988,-0.7988,-0.7988,0.0,0.0,0.0,0.0,0.0,0.0,0.0,0.0,0.0,0.0,-0.3192,-0.3192,-0.3192,-0.3192,-0.3192,0.0,0.0,0.0,0.0,0.0,0.0,0.0,0.0,0.0,0.0,-0.3802,-0.3802,-0.3802,-0.3802,-0.3802,-0.3802,-0.3802,-0.3802,-0.3802,-0.3802,-0.3802,-0.3802,-0.3802,-0.3802,-0.3802,-0.3802,-0.3802,0.0,0.0,0.0,0.0,0.0,0.0,0.0,0.0,0.0,0.0,0.0,0.0,0.0,0.0,0.0,0.0,0.0,0.0,0.0,0.0,0.0,0.0,0.0,0.0,0.0,0.0,0.0,0.0,-0.5018,-0.511,-0.5227,-0.5391,-0.5472,0.0,0.0,0.0,0.0,0.0,0.0,0.0,-0.5915,-0.6124,-0.617,-0.5934,-0.5915,-0.5966,-0.6081,-0.6086,-0.6288,-0.6772,-0.6957,-0.7202,-0.7543,-0.7596,-0.7693,-0.7992,-0.7992,-0.7988,-0.7988,-0.7988,-0.7988,0.0,-0.7988,-0.7988,-0.7988,-0.7988,-0.7988,-0.7988,-0.7988,-0.7988,-0.7988,-0.7988,-0.7988,-0.7988,0.0,0.0,0.0,0.0,0.0,0.0,0.0,0.0,0.0,0.0,0.0,-0.3192,-0.3192,-0.3192,0.0,0.0,0.0,0.0,0.0,0.0,0.0,0.0,0.0,0.0,-0.38,-0.3802,-0.3802,-0.3802,-0.3802,-0.3802,-0.3802,-0.3802,-0.3802,-0.3802,-0.3802,-0.3802,-0.3802,-0.3802,-0.3802,-0.3802,-0.3802,-0.3802,0.0,0.0,0.0,0.0,-0.3802,-0.3802,0.0,0.0,0.0,0.0,0.0,0.0,0.0,0.0,-0.396,-0.4233,-0.4423,0.0,-0.5246,-0.5057,-0.5018,0.0,0.0,0.0,0.0,0.0,0.0,0.0,0.0,0.0,0.0,-0.5391,0.0,-0.5548,0.0,0.0,0.0,0.0,0.0,-0.6037,-0.5915,-0.6124,-0.6254,-0.6053,-0.6043,-0.6053,-0.6083,-0.6086,-0.6202,-0.6404,-0.6477,-0.6764,-0.7288,-0.7288,-0.7441,-0.7696,-0.7696,-0.7793,-0.7988,-0.7988,-0.7988,-0.7988,-0.7988,-0.7988,-0.7988,-0.7988,-0.7988,-0.7988,-0.7988,-0.7988,-0.7988,-0.7988,-0.7988,-0.7988,0.0,0.0,0.0,0.0,0.0,0.0,0.0,0.0,0.0,0.0,0.0,0.0,0.0,0.0,0.0,0.0,0.0,0.0,0.0,0.0,0.0,0.0,0.0,-0.363,-0.38,-0.3802,-0.3802,-0.3802,-0.3802,-0.3802,-0.3802,-0.3802,-0.3802,-0.3802,-0.3802,-0.3802,-0.3802,-0.3802,-0.3802,-0.3802,-0.3802,0.0,0.0,0.0,0.0,0.0,-0.3802,-0.3802,0.0,-0.3802,-0.3802,-0.3802,0.0,0.0,0.0,0.0,-0.396,-0.4118,-0.4233,-0.4545,-0.4898,-0.4979,-0.5018,-0.5018,0.0,0.0,0.0,0.0,0.0,0.0,0.0,0.0,0.0,0.0,-0.5513,0.0,0.0,0.0,0.0,0.0,0.0,-0.6081,0.0,-0.6238,-0.6295,-0.6179,-0.617,-0.617,-0.617,-0.617,-0.6225,-0.6342,-0.6344,-0.6575,-0.6989,-0.6992,-0.7141,-0.7441,-0.7543,-0.7696,-0.7842,-0.7939,-0.7988,-0.7988,-0.7487,-0.7288,-0.7235,-0.6731,-0.6833,-0.7288,-0.7288,-0.7587,-0.7988,-0.7988,-0.7988,-0.7988,0.0,0.0,0.0,0.0,0.0,0.0,0.0,0.0,0.0,0.0,0.0,0.0,0.0,0.0,0.0,0.0,0.0,0.0,0.0,0.0,0.0,0.0,0.0,-0.3575,-0.3777,-0.3795,-0.3802,-0.3802,-0.3802,-0.3802,-0.3802,-0.3802,-0.3802,-0.3802,-0.3802,-0.3802,-0.3802,-0.3802,-0.3802,-0.3802,-0.3802,0.0,0.0,0.0,0.0,0.0,0.0,0.0,0.0,-0.3802,-0.3802,-0.3802,-0.3802,0.0,0.0,0.0,0.0,0.0,-0.4118,-0.4389,-0.4701,-0.4898,-0.4979,-0.5018,0.0,0.0,0.0,0.0,0.0,0.0,0.0,0.0,0.0,0.0,0.0,0.0,0.0,0.0,0.0,0.0,0.0,0.0,-0.6306,-0.6372,-0.6396,-0.6301,-0.6293,-0.6293,-0.6293,-0.6328,-0.6312,-0.6357,-0.6344,-0.6484,-0.6688,-0.6705,-0.6863,-0.7108,-0.7341,-0.7381,-0.7332,-0.7575,-0.7585,-0.7453,-0.6556,0.0,-0.6084,-0.5177,-0.5327,-0.6134,-0.6134,-0.6734,-0.7534,-0.7686,-0.7739,-0.7789,0.0,0.0,0.0,0.0,0.0,0.0,0.0,0.0,0.0,0.0,0.0,0.0,0.0,0.0,0.0,0.0,0.0,0.0,0.0,0.0,0.0,0.0,-0.3458,-0.3546,-0.3644,-0.3724,-0.3802,-0.3802,-0.3802,-0.3802,-0.3802,-0.3802,-0.3802,-0.3802,-0.3802,-0.3802,-0.3802,-0.3802,-0.3802,-0.3802,-0.3802,0.0,0.0,0.0,0.0,0.0,0.0,0.0,0.0,-0.3802,-0.3802,-0.3802,-0.3802,0.0,0.0,0.0,0.0,0.0,-0.4268,-0.4384,-0.4501,-0.4701,-0.4859,-0.5018,0.0,0.0,0.0,0.0,0.0,0.0,0.0,0.0,0.0,0.0,0.0,0.0,0.0,0.0,0.0,0.0,0.0,-0.6132,-0.6306,-0.6372,-0.6379,-0.6363,-0.6363,-0.6363,-0.6363,-0.632,-0.6325,-0.6293,-0.6195,-0.6188,-0.6188,-0.6341,-0.6488,-0.6778,-0.6714,-0.6468,-0.6087,-0.6135,-0.585,-0.5296,0.0,-0.5051,-0.5027,-0.4874,-0.4874,-0.5024,-0.5024,-0.5125,-0.5377,-0.6334,-0.6637,-0.6786,0.0,0.0,0.0,0.0,0.0,0.0,0.0,0.0,0.0,0.0,0.0,0.0,0.0,0.0,0.0,0.0,0.0,0.0,0.0,0.0,0.0,-0.3287,-0.3424,-0.354,-0.3586,-0.3716,-0.3802,-0.3802,-0.3802,-0.3802,-0.3802,-0.3802,-0.3802,-0.3802,-0.3802,-0.3802,-0.3802,-0.3802,-0.3802,-0.3802,0.0,0.0,0.0,0.0,0.0,0.0,0.0,0.0,0.0,0.0,-0.3802,-0.3802,-0.3802,0.0,0.0,0.0,0.0,0.0,-0.4034,-0.4229,-0.4423,-0.4501,-0.4779,0.0,0.0,0.0,0.0,0.0,0.0,0.0,0.0,0.0,0.0,0.0,0.0,0.0,0.0,-0.5688,-0.5756,0.0,0.0,-0.6157,-0.6342,-0.6404,-0.6387,-0.6387,-0.638,-0.6344,-0.6344,-0.6233,-0.617,-0.617,-0.6116,-0.6086,-0.6086,-0.6075,-0.62,-0.6359,-0.644,-0.6125,-0.5412,-0.57,-0.5346,-0.457,0.0,-0.3869,-0.3858,-0.3309,-0.3422,-0.3918,-0.3959,-0.4273,-0.4924,-0.5982,-0.6387,-0.6537,0.0,0.0,0.0,0.0,0.0,0.0,0.0,0.0,0.0,0.0,0.0,0.0,0.0,0.0,0.0,0.0,0.0,0.0,0.0,0.0,-0.3192,-0.3192,-0.3401,-0.353,-0.3558,-0.3705,-0.3802,-0.3802,-0.3802,-0.3802,-0.3802,-0.3802,-0.3802,-0.3802,-0.3802,-0.3802,-0.3802,-0.3802,-0.3802,-0.3802,0.0,0.0,0.0,0.0,0.0,0.0,0.0,0.0,0.0,0.0,0.0,0.0,0.0,0.0,0.0,-0.3802,-0.3802,-0.3802,-0.3843,-0.4114,-0.4423,-0.4462,0.0,0.0,0.0,0.0,0.0,0.0,0.0,0.0,0.0,0.0,0.0,0.0,0.0,-0.5688,-0.5688,-0.5688,-0.5766,-0.6018,-0.6043,-0.6124,-0.6333,-0.6352,-0.6352,-0.6352,-0.6274,-0.6276,-0.6276,-0.6111,-0.6043,-0.6043,-0.6015,-0.6002,-0.6002,-0.5909,-0.5923,-0.6043,-0.601,-0.5526,-0.468,-0.4824,-0.4367,-0.354,-0.2833,-0.2604,-0.2572,-0.1801,-0.2011,-0.2846,-0.2802,-0.3473,-0.4526,-0.5329,-0.5832,-0.6184,0.0,0.0,0.0,0.0,0.0,0.0,0.0,0.0,0.0,0.0,0.0,0.0,0.0,0.0,0.0,0.0,0.0,0.0,0.0,0.0,-0.3192,-0.3192,-0.3401,-0.3503,-0.3509,-0.3713,-0.3802,-0.3802,-0.3802,-0.3802,-0.3802,-0.3802,-0.3802,-0.3802,-0.3802,-0.3802,-0.3802,-0.3802,-0.3802,-0.3802,-0.3802,0.0,0.0,0.0,0.0,0.0,0.0,0.0,0.0,0.0,0.0,0.0,0.0,0.0,-0.3802,-0.3802,-0.3802,-0.3841,-0.404,-0.4231,-0.4462,-0.4621,0.0,0.0,0.0,0.0,0.0,0.0,0.0,0.0,0.0,0.0,0.0,0.0,0.0,-0.5688,-0.5688,0.0,-0.5734,-0.5901,-0.5915,-0.5966,-0.6097,-0.6111,-0.6111,-0.6111,-0.6105,-0.61,-0.61,-0.5983,-0.5915,-0.5915,-0.5814,-0.5715,-0.5715,-0.5704,-0.5803,-0.5915,-0.4944,-0.4045,-0.3323,-0.2471,-0.1727,-0.1066,-0.0973,-0.1124,-0.1337,-0.1266,-0.1424,-0.1721,-0.1705,-0.2371,-0.3324,-0.3425,-0.4074,-0.5074,0.0,0.0,0.0,0.0,0.0,0.0,0.0,0.0,0.0,0.0,0.0,0.0,0.0,0.0,0.0,0.0,0.0,0.0,0.0,0.0,-0.3192,-0.3192,-0.3401,-0.3499,-0.3499,-0.3711,-0.3802,-0.3802,-0.3802,-0.3802,-0.3802,-0.3802,-0.3802,-0.3802,-0.3802,-0.3802,-0.3802,-0.3802,-0.3802,-0.3802,-0.3802,-0.3802,0.0,0.0,0.0,0.0,0.0,0.0,0.0,0.0,-0.3802,-0.3802,-0.3802,-0.3802,-0.3802,-0.3802,-0.3802,-0.3841,-0.404,-0.4231,-0.4462,-0.4659,0.0,0.0,0.0,0.0,0.0,0.0,0.0,0.0,0.0,0.0,0.0,0.0,-0.5688,-0.5688,-0.5688,-0.5688,-0.5731,-0.5888,-0.5904,-0.595,-0.6075,-0.6086,-0.6086,-0.6086,-0.6015,-0.5972,-0.5972,-0.586,-0.5798,-0.5798,-0.5712,-0.5688,-0.5688,-0.5688,-0.5439,-0.489,-0.4493,-0.3849,-0.2999,-0.2193,-0.135,-0.0545,-0.0681,-0.0775,-0.0875,-0.0951,-0.1109,-0.1355,-0.1548,-0.1869,-0.227,-0.2973,-0.3473,-0.3974,0.0,0.0,0.0,0.0,0.0,0.0,0.0,0.0,0.0,0.0,0.0,0.0,0.0,0.0,0.0,0.0,0.0,0.0,-0.3192,-0.3192,-0.3192,-0.3192,-0.3401,-0.3499,-0.3499,-0.3711,-0.3802,-0.3802,-0.3802,-0.3802,-0.3802,-0.3802,-0.3802,-0.3802,-0.3802,-0.3802,-0.3802,-0.3802,-0.3802,-0.3802,-0.3802,-0.3802,0.0,0.0,0.0,0.0,0.0,0.0,0.0,0.0,-0.3802,-0.3802,0.0,0.0,-0.3802,-0.3802,-0.3843,-0.3921,-0.4079,-0.4311,-0.454,0.0,0.0,0.0,0.0,0.0,0.0,0.0,0.0,0.0,0.0,0.0,0.0,0.0,-0.5688,-0.5688,-0.5688,-0.5688,-0.5718,-0.5841,-0.585,-0.5882,-0.5966,-0.5975,-0.5975,-0.5975,-0.5896,-0.585,-0.585,-0.5731,-0.5688,-0.5688,-0.5688,-0.5688,-0.5688,-0.5688,-0.524,-0.43,-0.3985,-0.336,-0.2419,-0.1613,-0.0896,-0.0269,-0.0404,-0.0538,-0.0629,-0.0652,-0.0809,-0.1111,-0.1297,-0.1364,-0.1465,-0.2269,-0.2571,-0.2722,0.0,0.0,0.0,0.0,0.0,0.0,0.0,0.0,0.0,0.0,0.0,0.0,0.0,0.0,0.0,0.0,0.0,0.0,-0.3192,-0.3192,-0.3192,-0.3194,-0.3401,-0.3499,-0.3501,-0.3711,-0.3802,-0.3802,-0.3802,-0.3802,-0.3802,-0.3802,-0.3802,-0.3802,-0.3802,-0.3802,-0.3802,-0.3802,-0.3802,-0.3802,-0.3802,-0.3802,-0.3802,0.0,0.0,0.0,0.0,0.0,0.0,0.0,-0.3802,-0.3802,0.0,0.0,0.0,-0.3802,-0.396,-0.4079,-0.4118,-0.4389,-0.4701,0.0,0.0,0.0,0.0,0.0,0.0,0.0,0.0,-0.5688,-0.5688,0.0,0.0,-0.5688,-0.5688,-0.5688,-0.5688,-0.5688,-0.5688,-0.5688,-0.5688,-0.5688,-0.5688,-0.5688,-0.5688,-0.5688,-0.5688,-0.5688,-0.5688,-0.5688,-0.5688,-0.5688,-0.5688,-0.5688,-0.5688,-0.5688,-0.5193,-0.4253,-0.3315,-0.2376,-0.139,-0.0449,0.0,0.0,0.0,-0.0135,-0.0404,-0.0413,-0.0569,-0.0787,-0.0802,-0.0808,-0.0808,-0.1111,-0.1212,-0.1364,0.0,0.0,0.0,0.0,0.0,0.0,0.0,0.0,0.0,0.0,0.0,0.0,0.0,0.0,0.0,0.0,0.0,0.0,-0.3192,-0.3192,-0.3254,-0.332,-0.3436,-0.3528,-0.3587,-0.3703,-0.3802,-0.3802,-0.3802,-0.3802,-0.3802,-0.3802,-0.3802,-0.3802,-0.3802,-0.3802,-0.3802,-0.3802,-0.3802,-0.3802,-0.3802,-0.3802,-0.3802,0.0,0.0,0.0,0.0,0.0,0.0,0.0,0.0,0.0,-0.3802,0.0,-0.3802,-0.3802,-0.3841,-0.396,-0.4231,-0.4387,0.0,0.0,0.0,0.0,0.0,0.0,0.0,0.0,0.0,-0.5688,-0.5688,0.0,0.0,-0.5688,-0.5688,-0.5688,-0.5688,-0.5688,-0.5688,-0.5688,-0.5688,-0.5688,-0.5688,-0.5688,-0.5688,-0.5688,-0.5688,-0.5688,-0.5688,-0.5688,-0.5688,-0.5688,-0.5688,-0.5688,-0.5688,-0.506,-0.4253,-0.3314,-0.2331,-0.1704,-0.139,-0.0449,0.0,0.0,0.0,-0.0045,-0.0135,-0.0326,-0.0432,-0.0541,-0.0702,-0.0808,-0.0808,-0.0909,-0.0909,-0.096,0.0,0.0,0.0,0.0,0.0,0.0,0.0,0.0,0.0,0.0,0.0,0.0,0.0,0.0,0.0,0.0,0.0,0.0,0.0,-0.3281,-0.3322,-0.3449,-0.3503,-0.3591,-0.3679,-0.3773,-0.3802,-0.3802,-0.3802,-0.3802,-0.3802,-0.3802,-0.3802,-0.3802,-0.3802,-0.3802,-0.3802,-0.3802,-0.3802,-0.3802,-0.3802,-0.3802,-0.3802,0.0,0.0,0.0,0.0,0.0,0.0,0.0,0.0,0.0,0.0,0.0,0.0,-0.3882,-0.3958,-0.4112,-0.4423,0.0,0.0,0.0,0.0,0.0,0.0,0.0,0.0,0.0,0.0,-0.5688,-0.5688,-0.5688,0.0,-0.5688,-0.5688,-0.5688,-0.5688,-0.5688,-0.5688,-0.5688,-0.5688,-0.5688,-0.5688,-0.5688,-0.5688,-0.5688,-0.5688,-0.5688,-0.5688,-0.5688,-0.5688,-0.5688,-0.5688,-0.5688,-0.5688,-0.4748,-0.3851,-0.2867,-0.1883,-0.1211,-0.0808,-0.0269,0.0,0.0,0.0,0.0,0.0,-0.0188,-0.0241,-0.0246,-0.0401,-0.0505,-0.0505,-0.0606,-0.0657,-0.0657,0.0,0.0,0.0,0.0,0.0,0.0,0.0,0.0,0.0,0.0,0.0,0.0,0.0,0.0,0.0,0.0,0.0,0.0,0.0,0.0,-0.3451,-0.3507,-0.3593,-0.3677,-0.38,-0.3802,-0.3802,-0.3802,-0.3802,-0.3802,-0.3802,-0.3802,-0.3802,-0.3802,-0.3802,-0.3802,-0.3802,-0.3802,-0.3802,-0.3802,-0.3802,-0.3802,-0.3802,-0.3802,0.0,0.0,0.0,0.0,0.0,0.0,0.0,0.0,-0.3802,-0.3802,-0.3841,-0.3999,-0.4233,-0.4423,0.0,0.0,0.0,0.0,0.0,0.0,0.0,0.0,0.0,0.0,0.0,-0.5688,-0.5688,-0.5688,-0.5688,-0.5688,-0.5688,-0.5688,-0.5688,-0.5688,-0.5688,-0.5688,-0.5688,-0.5688,-0.5688,-0.5688,-0.5688,-0.5688,-0.5688,-0.5688,-0.5688,-0.5688,-0.5688,-0.5688,-0.5688,-0.5644,-0.5555,-0.4659,-0.3717,-0.2732,-0.1749,-0.0808,0.0,0.0,0.0,0.0,0.0,0.0,0.0,0.0,0.0,0.0,0.0,0.0,-0.005,-0.0252,-0.0353,-0.0403,0.0,0.0,0.0,0.0,0.0,0.0,0.0,0.0,0.0,0.0,0.0,0.0,0.0,0.0,0.0,0.0,0.0,0.0,0.0,0.0,-0.3509,-0.3558,-0.3685,-0.3781,-0.3802,-0.3802,-0.3802,-0.3802,-0.3802,-0.3802,-0.3802,-0.3802,-0.3802,-0.3802,-0.3802,-0.3802,-0.3802,-0.3802,-0.3802,-0.3802,-0.3802,-0.3802,-0.3802,-0.3802,-0.3802,0.0,0.0,0.0,0.0,0.0,0.0,0.0,-0.3802,-0.3802,-0.3802,-0.3843,-0.3999,-0.4194,0.0,0.0,0.0,0.0,0.0,0.0,0.0,0.0,0.0,0.0,0.0,-0.5688,-0.5688,-0.5688,-0.5688,-0.5688,-0.5688,-0.5688,-0.5688,-0.5688,-0.5688,-0.5688,-0.5688,-0.5688,-0.5688,-0.5688,-0.5688,-0.5688,-0.5688,-0.5688,-0.5688,-0.5688,-0.5688,-0.5688,-0.5688,-0.5329,-0.4612,-0.3673,-0.2688,-0.1704,-0.0763,-0.018,0.0,0.0,0.0,0.0,0.0,0.0,0.0,0.0,0.0,0.0,0.0,0.0,0.0,-0.005,-0.0099,-0.0099,0.0,0.0,0.0,0.0,0.0,0.0,0.0,0.0,0.0,0.0,0.0,0.0,0.0,0.0,0.0,0.0,0.0,0.0,0.0,0.0,-0.3599,-0.3689,-0.3777,-0.3802,-0.3802,-0.3802,-0.3802,-0.3802,-0.3802,-0.3802,-0.3802,-0.3802,-0.3802,-0.3802,-0.3802,-0.3802,-0.3802,-0.3802,-0.3802,-0.3802,-0.3802,-0.3802,-0.3802,-0.3802,-0.3802,-0.3802,-0.3802,0.0,0.0,0.0,0.0,0.0,0.0,0.0,-0.3802,-0.3921,-0.3999,-0.4157,0.0,0.0,0.0,0.0,0.0,0.0,0.0,0.0,0.0,0.0,0.0,-0.5688,-0.5688,-0.5688,-0.5688,-0.5688,-0.5688,-0.5688,-0.5688,-0.5688,-0.5688,-0.5688,-0.5688,-0.5688,-0.5688,-0.5688,-0.5688,-0.5688,-0.5688,-0.5688,-0.5688,-0.5688,-0.5688,-0.5688,-0.5285,-0.479,-0.43,-0.2911,-0.1928,-0.1391,-0.0449,0.0,0.0,0.0,0.0,0.0,0.0,0.0,0.0,0.0,0.0,0.0,0.0,0.0,0.0,0.0,0.0,0.0,0.0,0.0,0.0,0.0,0.0,0.0,0.0,0.0,0.0,0.0,0.0,0.0,0.0,0.0,0.0,0.0,0.0,0.0,0.0,0.0,0.0,-0.38,-0.3802,-0.3802,-0.3802,-0.3802,-0.3802,-0.3802,-0.3802,-0.3802,0.0,-0.3802,-0.3802,-0.3802,-0.3802,-0.3802,-0.3802,-0.3802,-0.3802,-0.3802,-0.3802,-0.3802,-0.3802,-0.3802,-0.3802,-0.3802,-0.3802,-0.3802,-0.3763,-0.3645,0.0,0.0,0.0,0.0,-0.3645,-0.396,-0.396,-0.3999,0.0,0.0,0.0,0.0,0.0,0.0,0.0,0.0,0.0,0.0,-0.5688,-0.5688,-0.5688,-0.5688,-0.5688,-0.5688,-0.5688,-0.5688,-0.5688,-0.5688,-0.5688,-0.5688,-0.5688,-0.5688,-0.5688,-0.5688,-0.5688,-0.5688,-0.5688,-0.5688,-0.5688,-0.5688,-0.5644,-0.5466,-0.4701,-0.4119,-0.3807,-0.2195,-0.1301,-0.1166,-0.0359,0.0,0.0,0.0,0.0,0.0,0.0,0.0,0.0,0.0,0.0,0.0,0.0,0.0,0.0,0.0,0.0,0.0,0.0,0.0,0.0,0.0,0.0,0.0,0.0,0.0,0.0,0.0,0.0,0.0,0.0,0.0,0.0,0.0,0.0,0.0,0.0,0.0,0.0,-0.3802,-0.3802,-0.3802,-0.3802,-0.3802,-0.3802,-0.3802,-0.3802,0.0,0.0,0.0,0.0,-0.3802,-0.3802,-0.3802,-0.3802,-0.3802,-0.3802,-0.3802,-0.3802,-0.3802,-0.3802,-0.3802,-0.3802,-0.3802,-0.3802,-0.3802,-0.3684,-0.2942,-0.3176,0.0,0.0,0.0,-0.2824,-0.3606,-0.3446,0.0,0.0,0.0,0.0,0.0,0.0,0.0,0.0,0.0,0.0,0.0,-0.5688,-0.5688,-0.5688,-0.5688,-0.5688,-0.5688,-0.5688,-0.5688,-0.5688,-0.5688,-0.5688,-0.5688,-0.5688,-0.5688,-0.5688,-0.5688,-0.5688,-0.5688,-0.5688,-0.5688,-0.5688,-0.5688,-0.5329,-0.4523,-0.4344,-0.3494,-0.1793,-0.1524,-0.0987,-0.018,-0.0045,0.0,0.0,0.0,0.0,0.0,0.0,0.0,0.0,0.0,0.0,0.0,0.0,0.0,0.0,0.0,0.0,0.0,0.0,0.0,0.0,0.0,0.0,0.0,0.0,0.0,0.0,0.0,0.0,0.0,0.0,0.0,0.0,0.0,0.0,0.0,0.0,0.0,0.0,-0.3802,-0.3802,-0.3802,-0.3802,-0.3802,-0.3802,-0.3802,0.0,0.0,0.0,-0.3802,-0.3802,0.0,0.0,0.0,-0.3802,-0.3802,-0.3802,-0.3802,-0.3802,-0.3802,-0.3802,-0.3802,-0.3802,-0.3802,-0.3802,-0.3802,-0.3684,-0.2785,-0.2744,-0.3018,-0.2627,0.0,0.0,0.0,0.0,0.0,0.0,0.0,0.0,0.0,0.0,0.0,0.0,0.0,0.0,0.0,-0.5642,-0.5688,-0.5688,-0.5688,-0.5688,-0.5688,-0.5688,-0.5688,-0.5688,-0.5688,-0.5688,-0.5688,-0.5688,-0.5688,-0.5688,-0.524,-0.4926,-0.4926,-0.4433,-0.4119,-0.4119,-0.4119,-0.3941,-0.3539,-0.2956,-0.2285,-0.1391,-0.0898,-0.0404,0.0,0.0,0.0,0.0,0.0,0.0,0.0,0.0,0.0,0.0,0.0,0.0,0.0,0.0,0.0,0.0,0.0,0.0,0.0,0.0,0.0,0.0,0.0,0.0,0.0,0.0,0.0,0.0,0.0,0.0,0.0,0.0,0.0,0.0,0.0,0.0,0.0,0.0,0.0,0.0,-0.3802,-0.3802,-0.3802,-0.3802,-0.3802,-0.3802,-0.3802,0.0,0.0,-0.3802,-0.3802,-0.3802,0.0,-0.3802,-0.3802,0.0,0.0,0.0,-0.3802,-0.3802,-0.3802,-0.3802,-0.3802,-0.3802,-0.3763,-0.3567,-0.3489,-0.3292,-0.2234,-0.1999,-0.2156,-0.1921,-0.145,0.0,0.0,0.0,0.0,0.0,0.0,0.0,0.0,0.0,0.0,0.0,0.0,0.0,0.0,-0.558,-0.5653,-0.5683,-0.5688,-0.5688,-0.5688,-0.5688,-0.5688,-0.5688,-0.5688,-0.5599,-0.5374,-0.5329,-0.524,-0.5015,-0.4344,-0.3941,-0.3941,-0.3314,-0.2911,-0.2911,-0.2911,-0.2778,-0.2509,-0.1793,-0.1301,-0.1032,-0.0359,0.0,0.0,0.0,0.0,0.0,0.0,0.0,0.0,0.0,0.0,0.0,0.0,0.0,0.0,0.0,0.0,0.0,0.0,0.0,0.0,0.0,0.0,0.0,0.0,0.0,0.0,0.0,0.0,0.0,0.0,0.0,0.0,0.0,-0.38,-0.3802,-0.3802,-0.3802,-0.3802,-0.3802,-0.3802,-0.3802,-0.3802,-0.3802,0.0,-0.3802,-0.3802,-0.3802,0.0,0.0,0.0,-0.3802,-0.3802,-0.3802,-0.3802,-0.3802,-0.3802,-0.3802,0.0,0.0,0.0,-0.3802,-0.3802,-0.3802,0.0,0.0,0.0,-0.2862,0.0,0.0,0.0,0.0,0.0,0.0,0.0,0.0,0.0,0.0,0.0,0.0,0.0,0.0,0.0,0.0,0.0,0.0,0.0,0.0,0.0,-0.5513,-0.5551,-0.5667,-0.5688,-0.5688,-0.5688,-0.5688,-0.5688,-0.5688,-0.5688,-0.5374,-0.4478,-0.4389,-0.403,-0.3135,-0.3001,-0.2956,-0.2956,-0.2913,-0.2911,-0.2911,-0.2911,-0.2465,-0.1524,-0.1436,-0.0987,-0.009,-0.0045,0.0,0.0,0.0,0.0,0.0,0.0,0.0,0.0,0.0,0.0,0.0,0.0,0.0,0.0,0.0,0.0,0.0,0.0,0.0,0.0,0.0,0.0,0.0,0.0,0.0,0.0,0.0,0.0,0.0,0.0,0.0,0.0,0.0,-0.3802,-0.3802,-0.3802,-0.3294,-0.2979,-0.2979,-0.2468,-0.2193,-0.2193,-0.2193,-0.2193,-0.2193,-0.2193,-0.2429,0.0,0.0,-0.3255,-0.3802,-0.3802,-0.3802,-0.3802,-0.3802,-0.3802,-0.3802,-0.3802,0.0,-0.3802,-0.3802,-0.3802,-0.3802,0.0,0.0,0.0,0.0,0.0,0.0,0.0,0.0,0.0,0.0,0.0,0.0,0.0,0.0,0.0,0.0,0.0,0.0,0.0,0.0,0.0,0.0,0.0,0.0,-0.5298,-0.5312,-0.5302,-0.5387,-0.5546,-0.5688,-0.5688,-0.5688,-0.5644,-0.5508,-0.5599,-0.5282,-0.4162,-0.4208,-0.3941,-0.3001,-0.2331,-0.1928,-0.1928,-0.1391,-0.1032,-0.1032,-0.1032,-0.0853,-0.0494,-0.0494,-0.0359,0.0,0.0,0.0,0.0,0.0,0.0,0.0,0.0,0.0,0.0,0.0,0.0,0.0,0.0,0.0,0.0,0.0,0.0,0.0,0.0,0.0,0.0,0.0,0.0,0.0,0.0,0.0,0.0,0.0,0.0,0.0,0.0,0.0,0.0,0.0,0.0,-0.3802,-0.3802,-0.3255,-0.2942,-0.2942,-0.2156,-0.1685,-0.1685,-0.145,-0.1293,-0.1293,-0.1293,-0.1568,0.0,0.0,0.0,0.0,-0.3645,-0.3802,-0.3802,-0.3802,-0.3802,0.0,0.0,0.0,-0.3802,-0.3802,-0.3802,-0.3802,0.0,0.0,0.0,0.0,0.0,0.0,0.0,0.0,0.0,0.0,0.0,0.0,0.0,0.0,0.0,0.0,0.0,0.0,0.0,0.0,0.0,0.0,0.0,0.0,-0.5017,-0.5149,-0.5183,-0.5054,-0.5326,-0.5551,-0.5591,-0.5508,-0.5463,-0.5416,-0.5149,-0.4565,-0.3446,-0.3266,-0.2864,-0.1881,-0.1256,-0.0942,-0.0942,-0.0359,0.0,0.0,0.0,0.0,0.0,0.0,0.0,0.0,0.0,0.0,0.0,0.0,0.0,0.0,0.0,0.0,0.0,0.0,0.0,0.0,0.0,0.0,0.0,0.0,0.0,0.0,0.0,0.0,0.0,0.0,0.0,0.0,0.0,0.0,0.0,0.0,0.0,0.0,-0.3802,0.0,0.0,0.0,0.0,0.0,-0.3802,-0.3763,-0.3763,-0.3763,-0.294,-0.2431,-0.2431,-0.1646,-0.1214,-0.1214,-0.1254,-0.1293,0.0,0.0,0.0,0.0,0.0,-0.3802,-0.3802,-0.3802,-0.3802,-0.3802,0.0,-0.3802,-0.3802,0.0,-0.3802,-0.3802,0.0,0.0,0.0,-0.192,-0.1293,0.0,0.0707,0.0,0.0,0.0,0.0,0.0,0.0,0.0,0.0,0.0,0.0,0.0,0.0,0.0,0.0,0.0,0.0,0.0,-0.4641,-0.5025,-0.506,-0.476,-0.4952,-0.5231,-0.5343,-0.5142,-0.5099,-0.5282,-0.4338,-0.3218,-0.2191,-0.1475,-0.0715,0.0313,0.0179,0.0,0.0,0.0,0.0,0.0,0.0,0.0,0.0,0.0,0.0,0.0,0.0,0.0,0.0,0.0,0.0,0.0,0.0,0.0,0.0,0.0,0.0,0.0,0.0,0.0,0.0,0.0,0.0,0.0,0.0,0.0,0.0,0.0,0.0,0.0,0.0,0.0,0.0,0.0,0.0,0.0,0.0,0.0,0.0,-0.3802,-0.3802,-0.3802,-0.3802,-0.3214,-0.2862,-0.2862,-0.1488,-0.0705,-0.0705,0.0118,0.0589,0.0589,-0.0039,-0.0666,0.0,0.0,0.0,0.0,0.0,0.0,0.0,-0.3802,-0.3802,-0.3802,-0.3802,0.0,-0.3802,-0.3802,-0.3802,0.0,0.0,0.0,0.0,0.0,-0.1293,-0.1019,0.0,0.1296,0.1296,0.0,0.0,0.0,0.0,0.0,0.0,0.1296,0.0,0.0,0.0,0.0,0.0,0.0,0.0,0.0,-0.3626,-0.3804,-0.4023,-0.4666,-0.4631,-0.4411,-0.4008,-0.4559,-0.4741,-0.3935,-0.3708,-0.2928,-0.1094,-0.0864,-0.0474,0.0526,0.0571,0.0442,0.0,0.0269,0.0224,0.0,0.0,0.0,0.0,0.0,0.0,0.0,0.0,0.0,0.0,0.0,0.0,0.0,0.0,0.0,0.0,0.0,0.0,0.0,0.0,0.0,0.0,0.0,0.0,0.0,0.0,0.0,0.0,0.0,0.0,0.0,0.0,0.0,0.0,0.0,0.0,0.0,0.0,0.0,0.0,-0.3802,-0.3802,-0.3802,-0.3802,-0.3333,-0.3059,-0.3059,-0.1802,-0.0901,-0.0548,0.0274,0.0942,0.1296,0.0431,-0.0235,0.0,0.0,0.0,0.0,0.0,0.0,0.0,0.0,0.0,0.0,0.0,0.0,0.0,-0.3802,0.0,0.0,-0.3802,-0.3567,0.0,0.0,0.0,-0.0549,0.0825,0.1296,0.0,0.0,0.0,0.0,0.0,0.0,0.0,0.0,0.0,0.0,0.0,0.0,0.0,-0.0196,-0.0783,-0.1486,0.0,-0.2691,-0.2876,-0.3358,-0.3339,-0.31,-0.273,-0.3212,-0.3363,-0.274,-0.2344,-0.1641,-0.0429,-0.0127,0.0169,0.0772,0.073,0.0604,0.048,0.0481,0.0395,0.0133,0.0044,0.0,0.0,0.0,0.0,0.0,0.0,0.0,0.0,0.0,0.0,0.0,0.0,0.0,0.0,0.0,0.0,0.0,0.0,0.0,0.0,0.0,0.0,0.0,0.0,0.0,0.0,0.0,0.0,0.0,0.0,0.0,0.0,0.0,0.0,0.0,0.0,-0.3802,-0.3802,-0.3802,-0.3802,-0.3802,-0.3802,-0.3802,-0.3802,-0.3802,-0.2979,-0.2195,-0.145,-0.0509,0.0353,0.1139,0.0392,-0.0039,0.0,0.0,0.0,0.0,0.0,0.0,0.0,0.0,0.0,0.0,0.0,0.0,-0.3802,-0.3802,-0.3802,0.0,0.0,-0.3176,-0.2392,-0.1489,-0.0666,0.0118,0.1021,0.1296,0.0,0.0,0.0,0.0,0.0,0.1296,0.0,0.0,0.0,0.0,0.0,0.0,0.0,0.0078,-0.0118,-0.0392,-0.1254,-0.1604,-0.1721,-0.1645,-0.1673,-0.1654,-0.1572,-0.1493,-0.1467,-0.1666,-0.072,0.0,0.0042,0.0625,0.1043,0.1049,0.0797,0.0672,0.0631,0.059,0.051,0.0303,0.013,0.0,0.0,0.0,0.0,0.0,0.0,0.0,0.0,0.0,0.0,0.0,0.0,0.0,0.0,0.0,0.0,0.0,0.0,0.0,0.0,0.0,0.0,0.0,0.0,0.0,0.0,0.0,0.0,0.0,0.0,0.0,0.0,0.0,0.0,0.0,0.0,-0.3802,-0.3802,-0.3802,-0.3802,-0.3802,-0.3802,-0.3802,-0.3802,-0.3802,-0.2979,-0.2431,-0.2275,-0.0823,0.0078,0.0235,0.0078,-0.0352,0.0,0.0,0.0,0.0,0.0,0.0,0.0,0.0,0.0,0.0,0.0,0.0,-0.3802,-0.3802,0.0,-0.3724,-0.302,-0.2668,-0.2314,-0.0784,-0.0157,0.0118,0.1021,0.1296,0.1296,0.0,0.0,0.0,0.1296,0.0,0.0,0.0,0.0,0.0,0.0,0.0,0.0,0.1021,0.0982,0.0706,0.0,-0.0587,-0.0861,-0.1682,-0.1729,-0.1411,-0.0769,-0.0467,-0.0358,-0.0448,-0.0278,0.0117,0.0914,0.1096,0.1179,0.1225,0.1189,0.1115,0.0925,0.059,0.0337,0.0297,0.0127,0.0,0.0,0.0,0.0,0.0,0.0,0.0,0.0,0.0,0.0,0.0,0.0,0.0,0.0,0.0,0.0,0.0,0.0,0.0,0.0,0.0,0.0,0.0,0.0,0.0,0.0,0.0,0.0,0.0,0.0,0.0,0.0,0.0,0.0,0.0,0.0,-0.3802,-0.3802,-0.3802,-0.3802,-0.3802,-0.3802,-0.3802,-0.3802,-0.3802,-0.3411,-0.2942,-0.2511,-0.1685,-0.0862,0.0,-0.0823,-0.1254,0.0,0.0,0.0,0.0,0.0,0.0,0.0,0.0,0.0,0.0,0.0,-0.3899,-0.3891,-0.3839,0.0,-0.3724,-0.2823,-0.2235,-0.1724,-0.047,0.0274,0.0706,0.1139,0.1296,0.0,0.1296,0.1296,0.1296,0.0,0.1296,0.1296,0.0,0.0,0.0,0.1296,0.0,0.0,0.0,0.1296,0.1139,0.0628,0.051,0.0274,-0.0392,-0.0314,-0.0078,0.019,0.0454,0.0567,0.0492,0.0492,0.0681,0.1174,0.1236,0.1201,0.1232,0.1249,0.123,0.1138,0.0814,0.0573,0.0455,0.0248,0.0084,0.0,0.0,0.0,0.0,0.0,0.0,0.0,0.0,0.0,0.0,0.0,0.0,0.0,0.0,0.0,0.0,0.0,0.0,0.0,0.0,0.0,0.0,0.0,0.0,0.0,0.0,0.0,0.0,0.0,0.0,0.0,0.0,0.0,0.0,0.0,0.0,0.0,0.0,0.0,0.0,0.0,0.0,-0.3614,-0.3789,-0.3669,-0.3315,-0.2803,-0.2617,-0.1902,-0.0512,-0.1499,-0.1894,-0.1538,0.0,0.0,0.0,0.0,0.0,0.0,0.0,0.0,0.0,0.0,0.0,-0.398,0.0,-0.3695,-0.3736,-0.2664,-0.1868,-0.1152,-0.0119,0.0716,0.1314,0.1307,0.1305,0.1305,0.1298,0.1296,0.0,0.0,0.0,0.0,0.0,0.0,0.0,0.0,0.0,0.1296,0.0,0.0,0.0,0.1296,0.1296,0.0,0.0,0.0,0.0,0.0,0.0,0.0,0.0,0.1155,0.0,0.1196,0.1194,0.1196,0.1202,0.1194,0.1222,0.1286,0.1058,0.0832,0.0686,0.0445,0.0245,0.0084,0.0,0.0,0.0,0.0,0.0,0.0,0.0,0.0,0.0,0.0,0.0,0.0,0.0,0.0,0.0,0.0,0.0,0.0,0.0,0.0,0.0,0.0,0.0,0.0,-0.3802,-0.3802,0.0,0.0,0.0,0.0,0.0,0.0,0.0,0.0,0.0,0.0,0.0,0.0,0.0,0.0,0.0,0.0,-0.3839,0.0,0.0,-0.3722,-0.3133,-0.2639,-0.2302,-0.105,-0.105,-0.2464,0.0,0.0,0.0,0.0,0.0,0.0,-0.3974,0.0,0.0,0.0,-0.3994,0.0,-0.3088,-0.325,0.0,-0.2085,-0.1376,-0.1084,0.0543,0.1212,0.1292,0.0,0.1297,0.1293,0.0,0.1296,0.1296,0.1296,0.0,0.0,0.0,0.0,0.0,0.0,0.1296,0.0,0.0,0.0,0.1296,0.1296,0.0,0.0,0.0,0.0,0.0,0.0,0.0,0.0,0.1123,0.112,0.1099,0.1123,0.1126,0.1137,0.1201,0.1194,0.1213,0.1217,0.1009,0.0904,0.0868,0.0513,0.0279,0.0286,0.0082,0.0,0.0,0.0,0.0,0.0,0.0,0.0,0.0,0.0,0.0,0.0,0.0,0.0,0.0,0.0,0.0,0.0,0.0,0.0,0.0,0.0,0.0,0.0,-0.3802,-0.3802,0.0,0.0,0.0,0.0,0.0,0.0,0.0,0.0,0.0,0.0,0.0,0.0,0.0,0.0,0.0,-0.3527,0.0,0.0,0.0,0.0,-0.3678,-0.326,-0.273,-0.2483,-0.2483,-0.273,-0.2829,0.0,0.0,0.0,0.0,0.0,-0.4091,0.0,-0.4118,0.0,-0.4187,0.0,0.0,0.0,0.0,-0.123,-0.021,0.0294,0.1053,0.1305,0.1304,0.0,0.1287,0.0,0.0,0.0,0.0,0.1288,0.0,0.0,0.0,0.0,0.0,0.0,0.0,0.0,0.1296,0.0,0.1296,0.0,0.0,0.0,0.0,0.0,0.0,0.0,0.1203,0.0,0.0,0.0,0.1114,0.0,0.0,0.0,0.1137,0.1152,0.1166,0.1184,0.1137,0.1039,0.0923,0.0741,0.0552,0.0319,0.0202,0.0124,0.0,0.0,0.0,0.0,0.0,0.0,0.0,0.0,0.0,0.0,0.0,0.0,0.0,0.0,0.0,0.0,0.0,0.0,0.0,0.0,0.0,0.0,-0.3802,0.0,0.0,0.0,0.0,0.0,0.0,0.0,0.0,0.0,0.0,0.0,-0.4016,-0.4035,0.0,0.0,-0.3571,-0.337,0.0,0.0,-0.3306,0.0,0.0,0.0,0.0,-0.3136,-0.3264,0.0,0.0,0.0,0.0,0.0,0.0,0.0,0.0,-0.4208,-0.4212,0.0,-0.4164,-0.3851,-0.2865,-0.2194,-0.1606,-0.039,0.0599,0.1329,0.1329,0.1329,0.1328,0.1319,0.1317,0.1315,0.1308,0.1305,0.1302,0.0,0.0,0.0,0.1316,0.0,0.0,0.0,0.0,0.0,0.0,0.0,0.0,0.0,0.0,0.0,0.0,0.0,0.0,0.0,0.0,0.1184,0.0,0.1088,0.0,0.0,0.0,0.0,0.0,0.1116,0.113,0.1153,0.1189,0.1136,0.0984,0.0931,0.0786,0.0471,0.0399,0.0285,0.0083,0.0085,0.0044,0.0,0.0,0.0,0.0,0.0,0.0,0.0,0.0,0.0,0.0,0.0,0.0,0.0,0.0,0.0045,0.009,0.0045,0.0,0.0,-0.3802,-0.3802,0.0,0.0,0.0,0.0,0.0,0.0,0.0,0.0,0.0,0.0,0.0,0.0,0.0,0.0,0.0,-0.178,-0.2683,0.0,-0.1516,0.0,0.0,-0.3807,0.0,0.0,0.0,0.0,0.0,0.0,0.0,0.0,0.0,0.0,0.0,-0.4295,-0.4295,-0.4297,-0.3762,-0.2867,-0.1835,-0.0358,0.1166,0.0,0.0582,0.1387,0.1387,0.1387,0.1383,0.1399,0.1388,0.1384,0.1314,0.1305,0.0,0.0,0.0,0.0,0.0,0.0,0.0,0.1296,0.0,0.0,0.0,0.0,0.1296,0.0,0.0,0.0,0.0,0.0,0.0,0.0,0.0,0.0,0.0,0.0,0.0,0.0,0.0,0.0,0.0,0.1104,0.1086,0.1088,0.1178,0.1212,0.1174,0.1008,0.0904,0.0864,0.0708,0.0477,0.0285,0.0292,0.0213,0.0,0.0,0.0,0.0,0.0,0.0,0.0,0.0,0.0,0.0,0.0,0.0,0.0,0.0,0.018,0.0359,0.009,0.0,0.0,0.0,0.0,0.0,0.0,0.0,0.0,0.0,-0.393,0.0,0.0,-0.4111,0.0,0.0,-0.374,-0.3375,0.0,0.0,-0.1494,-0.1815,-0.2215,0.0,0.0,0.0,-0.3523,0.0,0.0,0.0,0.0,0.0,0.0,0.0,0.0,0.0,0.0,0.0,-0.3941,0.0,0.0,0.0,0.0,0.0,0.0269,0.1345,0.0,0.1121,0.1391,0.1391,0.1391,0.1389,0.1379,0.142,0.1418,0.1365,0.1362,0.1358,0.1382,0.1369,0.1352,0.1313,0.1295,0.1282,0.1302,0.1296,0.0,0.0,0.0,0.0,0.0,0.0,0.0,0.0,0.0,0.0,0.0,0.0,0.0,0.0,0.0,0.0,0.0,0.0,0.0,0.0,0.0,0.1086,0.1086,0.1105,0.116,0.1181,0.1135,0.1043,0.0903,0.0825,0.0715,0.0488,0.0541,0.0511,0.0479,0.0311,0.0269,0.0269,0.009,0.009,0.0269,0.0269,0.0359,0.0449,0.0449,0.0449,0.0449,0.0449,0.0538,0.0583,0.0359,0.0359,0.0449,-0.3802,0.0,0.0,0.0,0.0,0.0,0.0,0.0,0.0,0.0,-0.4249,0.0,-0.3778,0.0,-0.2777,0.0,-0.1478,-0.1029,-0.1387,-0.1701,0.0,-0.094,-0.2416,-0.2506,0.0,0.0,0.0,0.0,0.0,-0.17,0.0,0.0,0.0,0.0,0.0,-0.3762,-0.2911,0.0,-0.215,0.0,0.0,0.0852,0.0,0.0,0.1391,0.1391,0.1391,0.1391,0.1391,0.1391,0.1391,0.1391,0.1391,0.1391,0.1387,0.1412,0.1398,0.1382,0.1343,0.1318,0.1298,0.1318,0.1305,0.1296,0.1296,0.0,0.1296,0.0,0.0,0.0,0.0,0.0,0.0,0.0,0.0,0.0,0.0,0.1209,0.0,0.0,0.0,0.0,0.0,0.1149,0.1137,0.1137,0.1137,0.1146,0.1202,0.1196,0.1145,0.1007,0.1017,0.095,0.0723,0.0788,0.0763,0.0689,0.0575,0.0493,0.0493,0.0314,0.0359,0.0493,0.0493,0.0583,0.0718,0.0718,0.0718,0.0718,0.0718,0.0762,0.0807,0.0583,0.0583,0.0718,0.0,0.0,0.0,0.0,-0.3854,0.0,0.0,0.0,-0.4346,0.0,-0.4383,-0.4121,-0.2956,-0.2777,-0.2373,-0.1431,-0.0493,-0.0314,-0.1208,-0.0448,0.0,0.0,-0.0896,-0.094,0.0045,0.0,0.0,0.0,0.0,0.0,0.0,0.0,0.0,0.0,-0.3851,0.0,-0.2822,-0.2822,-0.1702,0.0134,0.1031,0.1391,0.1391,0.1391,0.1391,0.1391,0.1391,0.1391,0.1391,0.1391,0.1391,0.1391,0.1391,0.1391,0.1391,0.1391,0.1414,0.1392,0.1391,0.1348,0.1304,0.1303,0.1319,0.1296,0.1296,0.1296,0.1296,0.0,0.0,0.0,0.0,0.0,0.0,0.0,0.0,0.0,0.0,0.0,0.0,0.0,0.0,0.0,0.0,0.1206,0.1205,0.1205,0.1203,0.1203,0.1203,0.1196,0.1212,0.1212,0.128,0.1178,0.0904,0.0987,0.0926,0.0716,0.0703,0.0717,0.0718,0.0718,0.0718,0.0718,0.0718,0.0718,0.0718,0.0718,0.0718,0.0718,0.0718,0.0897,0.1076,0.0807,0.0718,0.0718,-0.3965,-0.3944,-0.4016,0.0,-0.413,-0.4112,0.0,0.0,0.0,0.0,-0.2677,-0.2148,-0.1835,-0.1164,-0.0627,-0.0403,0.0493,0.0,0.0,0.0,0.0,0.1031,-0.0537,-0.0627,0.0987,0.0359,-0.0134,-0.0358,0.0,0.0,-0.1387,0.0,0.0,0.0,0.0,0.0,-0.179,-0.179,-0.0672,0.1076,0.13,0.1391,0.1391,0.1391,0.1391,0.1391,0.1391,0.1391,0.1391,0.1391,0.1391,0.1391,0.1391,0.1391,0.1391,0.1391,0.1385,0.1418,0.1396,0.1364,0.1289,0.1308,0.1319,0.1296,0.1296,0.1296,0.1296,0.1296,0.1296,0.1296,0.1296,0.1296,0.0,0.0,0.0,0.0,0.0,0.0,0.0,0.1296,0.0,0.1272,0.1272,0.1213,0.12,0.12,0.1216,0.1203,0.1203,0.1196,0.1212,0.1212,0.128,0.1257,0.1178,0.1214,0.1202,0.1138,0.0996,0.0928,0.0987,0.0807,0.0807,0.0987,0.0987,0.1076,0.1211,0.1211,0.1211,0.1211,0.1211,0.1256,0.13,0.1256,0.1211,0.1211,-0.3994,0.0,0.0,-0.4168,0.0,0.0,-0.3568,-0.3646,0.0,-0.2957,-0.2506,0.0,-0.1477,-0.0582,0.0179,0.0583,0.1076,0.0,0.0807,0.0,0.0,0.0762,0.0179,0.0313,0.1391,0.0897,0.0,0.0628,0.0,0.0,-0.0179,0.0,0.0,0.0,0.0,-0.1701,0.0,-0.0358,0.0448,0.1391,0.1391,0.1391,0.0,0.1391,0.1391,0.1391,0.1391,0.1391,0.1391,0.1391,0.1391,0.1391,0.1391,0.1391,0.1391,0.1391,0.1391,0.1387,0.1414,0.1388,0.1362,0.1345,0.1318,0.1294,0.128,0.1317,0.1313,0.1299,0.1296,0.1296,0.1296,0.1296,0.0,0.0,0.0,0.0,0.0,0.0,0.0,0.0,0.1884,0.204,0.2584,0.1782,0.1232,0.1232,0.1579,0.1593,0.1223,0.1524,0.1572,0.1211,0.1228,0.1282,0.1296,0.1287,0.1318,0.1306,0.1205,0.1187,0.1211,0.1076,0.1076,0.1211,0.1211,0.13,0.1391,0.1391,0.1391,0.1391,0.1391,0.1391,0.1391,0.1391,0.1391,0.1391,0.0,0.0,0.0,0.0,0.0,0.0,-0.2418,-0.3403,-0.3717,-0.2643,0.0,-0.22,-0.1123,-0.0271,0.0543,0.1357,0.1399,0.1081,0.027,0.0943,0.1031,0.0224,0.0987,0.1391,0.1391,0.1391,0.1391,0.0,0.0,0.0,0.0,0.0,0.0,0.0,0.0,0.0,0.0,0.0987,0.1391,0.1391,0.1391,0.1391,0.1391,0.1391,0.1391,0.1391,0.1391,0.1391,0.1391,0.1391,0.1391,0.1391,0.1391,0.1391,0.1391,0.1391,0.1391,0.1391,0.1391,0.1413,0.139,0.139,0.1369,0.1299,0.1314,0.1309,0.13,0.1309,0.1303,0.1302,0.1297,0.1371,0.0,0.0,0.0,0.0,0.0,0.0,0.0,0.0,0.0,0.0,0.4256,0.2701,0.1649,0.1649,0.2308,0.2276,0.1401,0.0,0.2033,0.1211,0.1212,0.1226,0.1296,0.1284,0.1313,0.1306,0.1373,0.1402,0.1391,0.1391,0.1391,0.1391,0.1391,0.1391,0.1391,0.1391,0.1391,0.1436,0.1524,0.1614,0.1614,0.1749,0.1704,0.1569,0.0,0.0,0.0,0.0,0.0,-0.1208,-0.0582,-0.0672,-0.0762,-0.0538,0.0182,0.0736,0.0966,0.1121,0.1321,0.1463,0.1487,0.0,0.0,0.0,0.0,0.1166,0.13,0.1391,0.1391,0.1391,0.1391,0.0,0.0,0.0,0.0,0.0,0.0,0.0,0.0,0.0,0.0045,0.0987,0.0,0.1391,0.1391,0.1391,0.1391,0.1391,0.1391,0.1391,0.1391,0.1391,0.1391,0.1391,0.1391,0.1391,0.1391,0.1391,0.1391,0.1391,0.1391,0.1391,0.1391,0.1413,0.139,0.139,0.1369,0.1304,0.13,0.1298,0.129,0.1301,0.1294,0.1287,0.1301,0.1853,0.2225,0.0,0.0,0.0,0.0,0.0,0.0,0.0,0.0,0.3715,0.4105,0.3677,0.3443,0.36,0.3585,0.32,0.2309,0.0,0.207,0.1211,0.1212,0.1226,0.1296,0.1302,0.1293,0.1305,0.1311,0.134,0.1391,0.1391,0.1391,0.1391,0.1391,0.1391,0.1391,0.1391,0.1391,0.148,0.2331,0.2644,0.2732,0.3487,0.331,0.251,0.0,0.0,0.0,0.0,0.0,0.0045,0.0,0.0456,0.0592,0.0046,0.0464,0.0752,0.0752,0.1185,0.1478,0.1478,0.1513,0.1498,0.1482,0.1467,0.1452,0.1391,0.1391,0.1391,0.1391,0.1391,0.1391,0.1391,0.0,0.0,0.0,0.0,0.0,0.0,0.0,0.0718,0.0,0.0,0.1391,0.1391,0.1391,0.1391,0.1391,0.1391,0.1391,0.1391,0.1391,0.1391,0.1391,0.1391,0.1391,0.1391,0.1391,0.1391,0.1391,0.1391,0.1391,0.1391,0.1391,0.138,0.1413,0.1413,0.1359,0.1346,0.1373,0.1369,0.1361,0.129,0.1313,0.1293,0.1303,0.1599,0.1921,0.2151,0.224,0.0,0.0,0.0,0.0,0.0,0.0,0.0,0.0,0.0,0.0,0.0,0.0,0.0,0.1968,0.0,0.2552,0.1273,0.1205,0.1248,0.1296,0.1296,0.1288,0.1305,0.1305,0.1336,0.1391,0.1391,0.1391,0.1391,0.1391,0.1391,0.1391,0.1391,0.1391,0.148,0.251,0.2911,0.3001,0.3933,0.4022,0.3489,0.0,-0.018,0.0,0.0,0.0453,0.1188,0.0418,0.0981,0.1217,0.0419,0.0379,0.0432,0.0432,0.106,0.1497,0.1497,0.1539,0.1525,0.1502,0.1488,0.147,0.1446,0.1394,0.1391,0.1391,0.1391,0.1391,0.0,0.0,0.0,0.0,0.0,0.0,0.0,0.0,0.0,0.0,0.1391,0.1391,0.1391,0.1391,0.1391,0.1391,0.1391,0.1391,0.1391,0.1391,0.1391,0.1391,0.1391,0.1391,0.1391,0.1391,0.1391,0.1391,0.1391,0.1391,0.1391,0.1391,0.1391,0.1391,0.1391,0.1391,0.1384,0.1405,0.1399,0.1391,0.132,0.1328,0.1295,0.1311,0.1565,0.1843,0.2151,0.2457,0.0,0.0,0.0,0.0,0.0,0.0,0.0,0.6749,0.6637,0.0,0.0,0.0,0.0,0.1961,0.0,0.3016,0.1608,0.1646,0.1643,0.157,0.1571,0.1489,0.1305,0.1305,0.1336,0.1391,0.1391,0.1391,0.1391,0.1391,0.1524,0.1704,0.1704,0.1837,0.2106,0.3089,0.3492,0.3624,0.4556,0.4779,0.4512,0.0,0.0,0.0,0.0,0.1358,0.1471,0.1379,0.1497,0.1553,0.1383,0.1403,0.1469,0.1469,0.1542,0.1609,0.1609,0.1583,0.1615,0.1612,0.1511,0.1479,0.1476,0.145,0.1391,0.1391,0.1391,0.1391,0.0,0.0,0.1525,0.1749,0.0,0.0,0.0,0.0,0.1391,0.1391,0.1391,0.1391,0.1391,0.1391,0.1391,0.1391,0.1391,0.1391,0.1391,0.1391,0.1391,0.1391,0.1391,0.1391,0.1391,0.1391,0.1391,0.1391,0.1391,0.1391,0.1391,0.1391,0.1391,0.1391,0.1391,0.1391,0.139,0.1387,0.1386,0.1378,0.1393,0.1341,0.1302,0.1299,0.2535,0.3255,0.2345,0.3469,0.447,0.0,0.0,0.4989,0.6066,0.0,0.0,0.6602,0.6451,0.0,0.0,0.5309,0.0,0.0,0.3548,0.3165,0.2429,0.2989,0.2982,0.2392,0.2393,0.201,0.1305,0.1305,0.1336,0.1391,0.1391,0.1391,0.1391,0.1391,0.1928,0.2777,0.2777,0.3267,0.4111,0.5048,0.5453,0.5542,0.6473,0.6296,0.5542,0.1443,0.15,0.1508,0.1508,0.1518,0.1532,0.1551,0.1564,0.1574,0.158,0.1591,0.1598,0.1598,0.1609,0.1617,0.1617,0.1606,0.1591,0.1622,0.1597,0.1519,0.1483,0.1469,0.1454,0.1391,0.1391,0.1391,0.0,0.0,0.0,0.0,0.0,0.1391,0.1391,0.1391,0.1391,0.1391,0.1391,0.1391,0.1391,0.1391,0.1391,0.1391,0.1391,0.1391,0.1391,0.1391,0.1391,0.1391,0.1391,0.1391,0.1391,0.1391,0.1391,0.1391,0.1391,0.1391,0.1391,0.1391,0.1391,0.1391,0.1391,0.1391,0.1391,0.1391,0.1391,0.1387,0.142,0.1384,0.1344,0.1309,0.2232,0.2967,0.2896,0.3835,0.4773,0.0,0.0,0.0,0.6224,0.0,0.6338,0.0,0.6451,0.6331,0.0,0.0,0.0,0.4066,0.4239,0.4039,0.3324,0.3519,0.3251,0.251,0.2511,0.2091,0.1305,0.1305,0.1336,0.1391,0.1391,0.1391,0.1391,0.1391,0.1973,0.2911,0.2911,0.3446,0.4378,0.5317,0.5719,0.5808,0.6741,0.6874,0.652,0.1478,0.1534,0.1539,0.1539,0.1547,0.156,0.1581,0.1585,0.1592,0.1614,0.1617,0.1617,0.1617,0.1617,0.1617,0.1617,0.1617,0.1608,0.1586,0.1577,0.1601,0.1509,0.149,0.0,0.1449,0.1395,0.1391,0.1391,0.1391,0.1436,0.1525,0.1525,0.148,0.1391,0.1391,0.1391,0.1391,0.1391,0.1391,0.1391,0.1391,0.1391,0.1391,0.1391,0.1391,0.1391,0.1391,0.1391,0.1391,0.1391,0.1391,0.1391,0.1391,0.1391,0.1391,0.1391,0.1391,0.1391,0.1391,0.1391,0.1391,0.1391,0.1391,0.1391,0.1391,0.1391,0.1391,0.1391,0.1411,0.1378,0.1336,0.2185,0.2922,0.3002,0.4061,0.4997,0.537,0.563,0.0,0.6162,0.6272,0.63,0.63,0.6412,0.0,0.0,0.0,0.0,0.4419,0.4736,0.4687,0.4178,0.4083,0.3663,0.2898,0.2644,0.2104,0.1305,0.1314,0.1343,0.1391,0.1704,0.1838,0.1838,0.2151,0.282,0.3714,0.3714,0.4291,0.5179,0.5849,0.6118,0.6207,0.6874,0.7095,0.7095,0.1478,0.155,0.162,0.162,0.1596,0.1615,0.1616,0.1616,0.1616,0.1617,0.1617,0.1617,0.1617,0.1617,0.1617,0.1617,0.1617,0.1617,0.1616,0.1588,0.162,0.162,0.1513,0.148,0.148,0.1451,0.1391,0.1391,0.0,0.1525,0.1794,0.1794,0.166,0.1391,0.1391,0.1391,0.1391,0.1391,0.1391,0.1391,0.1391,0.1391,0.1391,0.1391,0.1391,0.1391,0.1391,0.1391,0.1391,0.1391,0.1391,0.1391,0.1391,0.1391,0.1391,0.1391,0.1391,0.1391,0.1391,0.1391,0.1391,0.1391,0.1391,0.1391,0.1391,0.1391,0.1391,0.1391,0.1411,0.139,0.1388,0.2716,0.347,0.2474,0.4279,0.55,0.4627,0.5248,0.0,0.5976,0.6169,0.63,0.63,0.63,0.0,0.0,0.0,0.5906,0.5043,0.4887,0.4876,0.4999,0.4847,0.446,0.3791,0.3002,0.2176,0.1306,0.1376,0.1406,0.1436,0.2419,0.2867,0.2956,0.3844,0.4781,0.5675,0.5675,0.6207,0.7051,0.7095,0.7095,0.7095,0.7095,0.7095,0.7095,0.1588,0.1596,0.1603,0.1603,0.1611,0.1617,0.1617,0.1617,0.1617,0.1617,0.1617,0.1617,0.1617,0.1617,0.1617,0.1617,0.1617,0.1617,0.1617,0.1608,0.1593,0.1622,0.1601,0.1523,0.1482,0.1471,0.1456,0.1391,0.1391,0.1436,0.1525,0.1525,0.148,0.1391,0.1391,0.1391,0.1391,0.1391,0.1391,0.1391,0.1391,0.1391,0.1391,0.1391,0.1391,0.1391,0.1391,0.1391,0.1391,0.1391,0.1391,0.1391,0.1391,0.1391,0.1391,0.1391,0.1391,0.1391,0.1391,0.1391,0.1391,0.1391,0.1391,0.1391,0.1391,0.1391,0.1391,0.1391,0.1383,0.1414,0.1394,0.2287,0.301,0.3054,0.4137,0.5039,0.5224,0.5487,0.5749,0.5963,0.6071,0.6146,0.6289,0.63,0.6338,0.0,0.0,0.6257,0.6093,0.5938,0.5857,0.5902,0.5861,0.5159,0.383,0.4163,0.3691,0.2311,0.2362,0.237,0.2464,0.34,0.3844,0.3888,0.4156,0.4825,0.5719,0.5719,0.6251,0.7095,0.7095,0.7095,0.7095,0.7095,0.7095,0.7095,0.1617,0.1617,0.1617,0.1617,0.1617,0.1617,0.1617,0.1617,0.1617,0.1617,0.1617,0.1617,0.1617,0.1617,0.1617,0.1617,0.1617,0.1617,0.1617,0.1617,0.1609,0.159,0.1577,0.1602,0.1515,0.1493,0.1471,0.1453,0.1396,0.1391,0.1391,0.1391,0.1391,0.1391,0.1391,0.1391,0.1391,0.1391,0.1391,0.1391,0.1391,0.1391,0.1391,0.1391,0.1391,0.1391,0.1391,0.1391,0.1391,0.1391,0.1391,0.1391,0.1391,0.1391,0.1391,0.1391,0.1391,0.1391,0.1391,0.1391,0.1391,0.1391,0.1391,0.1391,0.1391,0.1391,0.1391,0.1391,0.1391,0.1385,0.141,0.2071,0.2784,0.3332,0.4082,0.4823,0.5436,0.5552,0.5657,0.5844,0.5911,0.5983,0.6115,0.6126,0.6149,0.6169,0.0,0.6276,0.6486,0.6377,0.63,0.63,0.5983,0.5341,0.4319,0.4625,0.4275,0.3311,0.3343,0.3402,0.3446,0.438,0.4823,0.4825,0.5179,0.5669,0.6207,0.6207,0.6564,0.7095,0.7095,0.7095,0.7095,0.7095,0.7095,0.7095,0.1617,0.1617,0.1617,0.1617,0.1617,0.1617,0.1617,0.1617,0.1617,0.1617,0.1617,0.1617,0.1617,0.1617,0.1617,0.1617,0.1617,0.1617,0.1617,0.1617,0.1617,0.1617,0.159,0.1623,0.162,0.1514,0.1482,0.1478,0.1449,0.1391,0.1391,0.1391,0.1391,0.1391,0.1391,0.1391,0.1391,0.1391,0.1391,0.1391,0.1391,0.1391,0.1391,0.1391,0.1391,0.1391,0.1391,0.1391,0.1391,0.1391,0.1391,0.1391,0.1391,0.1391,0.1391,0.1391,0.1391,0.1391,0.1391,0.1391,0.1391,0.1391,0.1391,0.1391,0.1391,0.1391,0.1391,0.1391,0.1391,0.1391,0.1391,0.2026,0.2718,0.3335,0.4027,0.4734,0.5336,0.5525,0.5579,0.5589,0.5715,0.5803,0.5817,0.5827,0.5891,0.5996,0.0,0.6108,0.6293,0.631,0.631,0.63,0.5521,0.5148,0.5184,0.4525,0.4246,0.4292,0.4425,0.4465,0.4423,0.5361,0.5808,0.5852,0.6738,0.7095,0.7095,0.7095,0.7095,0.7095,0.7095,0.7095,0.7095,0.7095,0.7095,0.7095,0.1617,0.1617,0.1617,0.1617,0.1617,0.1617,0.1617,0.1617,0.1617,0.1617,0.1617,0.1617,0.1617,0.1617,0.1617,0.1617,0.1617,0.1617,0.1617,0.1617,0.1617,0.1617,0.161,0.1595,0.1621,0.1534,0.1493,0.1446,0.1394,0.1391,0.1391,0.1391,0.1391,0.1391,0.1391,0.1391,0.1391,0.1391,0.1391,0.1391,0.1391,0.1391,0.1391,0.1391,0.1391,0.1391,0.1391,0.1391,0.1391,0.1391,0.1391,0.1391,0.1391,0.1391,0.1391,0.1391,0.1391,0.1391,0.1391,0.1391,0.1391,0.1391,0.1391,0.1391,0.1391,0.1391,0.1391,0.1391,0.1391,0.1391,0.1391,0.1542,0.2092,0.3364,0.3608,0.4105,0.5372,0.5501,0.5491,0.5576,0.5715,0.5847,0.5929,0.6081,0.6204,0.6242,0.6245,0.6259,0.6296,0.6402,0.6412,0.6303,0.6205,0.5836,0.5186,0.5859,0.5907,0.5367,0.6101,0.6071,0.5406,0.634,0.6786,0.6786,0.7007,0.7095,0.7095,0.7095,0.7095,0.7095,0.7095,0.7095,0.7095,0.7095,0.7095,0.7095,0.1617,0.1617,0.1617,0.1617,0.1617,0.1617,0.1617,0.1617,0.1617,0.1617,0.1617,0.1617,0.1617,0.1617,0.1617,0.1617,0.1617,0.1617,0.1617,0.1617,0.1617,0.1617,0.1617,0.1609,0.1592,0.1562,0.1517,0.1456,0.1397,0.1391,0.1391,0.1391,0.1391,0.1391,0.1391,0.1391,0.1391,0.1391,0.1391,0.1391,0.1391,0.1391,0.1391,0.1391,0.1391,0.1391,0.1391,0.1391,0.1391,0.1391,0.1391,0.1391,0.1391,0.1391,0.1391,0.1391,0.1391,0.1391,0.1391,0.1391,0.1391,0.1391,0.1391,0.1391,0.1391,0.1391,0.1391,0.1391,0.1391,0.1391,0.1391,0.1422,0.1904,0.3352,0.3529,0.4009,0.5487,0.5613,0.5593,0.5677,0.5752,0.5833,0.5918,0.6,0.6081,0.6149,0.6259,0.6327,0.6395,0.6538,0.6549,0.6402,0.6542,0.6406,0.5975,0.6652,0.6755,0.634,0.6874,0.683,0.6343,0.6874,0.7095,0.7095,0.7095,0.7095,0.7095,0.7095,0.7095,0.7095,0.7095,0.7095,0.7095,0.7095,0.7095,0.7095,0.1617,0.1617,0.1617,0.1617,0.1617,0.1617,0.1617,0.1617,0.1617,0.1617,0.1617,0.1617,0.1617,0.1617,0.1617,0.1617,0.1617,0.1617,0.1617,0.1617,0.1617,0.1617,0.1617,0.1617,0.1617,0.1583,0.1537,0.148,0.1451,0.1391,0.1391,0.1391,0.1391,0.1391,0.1391,0.1391,0.1391,0.1391,0.1391,0.1391,0.1391,0.1391,0.1391,0.1391,0.1391,0.1391,0.1391,0.1391,0.1391,0.1391,0.1391,0.1391,0.1391,0.1391,0.1391,0.1391,0.1391,0.1391,0.1391,0.1391,0.1391,0.1391,0.1391,0.1391,0.1391,0.1391,0.1391,0.1391,0.1391,0.1436,0.1614,0.1614,0.2108,0.3619,0.3814,0.427,0.5636,0.5817,0.58,0.58,0.584,0.5871,0.5871,0.5911,0.5993,0.6084,0.6254,0.6419,0.6542,0.6651,0.6675,0.6546,0.6668,0.6807,0.6916,0.7038,0.7095,0.7095,0.7095,0.7095,0.7095,0.7095,0.7095,0.7095,0.7095,0.7095,0.7095,0.7095,0.7095,0.7095,0.7095,0.7095,0.7095,0.7095,0.7095,0.7095,0.1617,0.1617,0.1617,0.1617,0.1617,0.1617,0.1617,0.1617,0.1617,0.1617,0.1617,0.1617,0.1617,0.1617,0.1617,0.1617,0.1617,0.1617,0.1617,0.1617,0.1617,0.1617,0.1617,0.1617,0.1617,0.1562,0.1516,0.148,0.1451,0.1391,0.1391,0.1391,0.1391,0.1391,0.1391,0.1391,0.1391,0.1391,0.1391,0.1391,0.1391,0.1391,0.1391,0.1391,0.1391,0.1391,0.1391,0.1391,0.1391,0.1391,0.1391,0.1391,0.1391,0.1391,0.1391,0.1391,0.1391,0.1391,0.1391,0.1391,0.1391,0.1391,0.1391,0.1391,0.1391,0.1391,0.1391,0.1391,0.1391,0.1659,0.251,0.2689,0.3175,0.4785,0.4877,0.5052,0.585,0.5881,0.58,0.58,0.6067,0.6228,0.6228,0.6413,0.6569,0.6593,0.662,0.6641,0.6664,0.681,0.6839,0.6858,0.6839,0.692,0.7061,0.7085,0.7095,0.7095,0.7095,0.7095,0.7095,0.7095,0.7095,0.7095,0.7095,0.7095,0.7095,0.7095,0.7095,0.7095,0.7095,0.7095,0.7095,0.7095,0.7095,0.7095,0.1617,0.1617,0.1617,0.1617,0.1617,0.1617,0.1617,0.1617,0.1617,0.1617,0.1617,0.1617,0.1617,0.1617,0.1617,0.1617,0.1617,0.1617,0.1617,0.1617,0.1617,0.1617,0.1617,0.1617,0.1617,0.1557,0.1519,0.1505,0.1412,0.1391,0.1391,0.1391,0.1391,0.1391,0.1391,0.1391,0.1391,0.1391,0.1391,0.1391,0.1391,0.1391,0.1391,0.1391,0.1391,0.1391,0.1391,0.1391,0.1391,0.1391,0.1391,0.1391,0.1391,0.1391,0.1391,0.1391,0.1391,0.1391,0.1391,0.1391,0.1391,0.1391,0.1391,0.1391,0.1391,0.1391,0.1391,0.1391,0.1391,0.1704,0.2732,0.2911,0.3456,0.5139,0.5323,0.552,0.6261,0.6329,0.6285,0.6285,0.641,0.6498,0.6498,0.662,0.6702,0.6702,0.6776,0.6824,0.6824,0.692,0.7001,0.7001,0.7001,0.7031,0.7095,0.7095,0.7095,0.7095,0.7095,0.7095,0.7095,0.7095,0.7095,0.7095,0.7095,0.7095,0.7095,0.7095,0.7095,0.7095,0.7095,0.7095,0.7095,0.7095,0.7095,0.7095,0.1617,0.1617,0.1617,0.1617,0.1617,0.1617,0.1617,0.1617,0.1617,0.1617,0.1617,0.1617,0.1617,0.1617,0.1617,0.1617,0.1617,0.1617,0.1617,0.1617,0.1617,0.1617,0.1617,0.1617,0.1617,0.1557,0.1478,0.1478,0.1419,0.1391,0.1391,0.1391,0.1391,0.1391,0.1391,0.1391,0.1391,0.1391,0.1391,0.1391,0.1391,0.1391,0.1391,0.1391,0.1391,0.1391,0.1391,0.1391,0.1391,0.1391,0.1391,0.1391,0.1391,0.1391,0.1391,0.1391,0.1391,0.1391,0.1391,0.1391,0.1391,0.1391,0.1391,0.1391,0.1391,0.1391,0.1391,0.1391,0.1391,0.1793,0.2999,0.3223,0.3776,0.5559,0.5841,0.6011,0.6636,0.6702,0.6702,0.6702,0.6732,0.6753,0.6753,0.6783,0.6803,0.6803,0.6869,0.6933,0.6933,0.7038,0.7095,0.7095,0.7095,0.7095,0.7095,0.7095,0.7095,0.7095,0.7095,0.7095,0.7095,0.7095,0.7095,0.7095,0.7095,0.7095,0.7095,0.7095,0.7095,0.7095,0.7095,0.7095,0.7095,0.7095,0.7095,0.7095,0.1617,0.1617,0.1617,0.1617,0.1617,0.1617,0.1617,0.1617,0.1617,0.1617,0.1617,0.1617,0.1617,0.1617,0.1617,0.1617,0.1617,0.1617,0.1617,0.1617,0.1617,0.1617,0.1617,0.1617,0.1617,0.1557,0.1478,0.1478,0.1419,0.1391,0.1391,0.1391,0.1391,0.1391,0.1391,0.1391,0.1391,0.1391,0.1391,0.1391,0.1391,0.1391,0.1391,0.1391,0.1391,0.1391,0.1391,0.1391,0.1391,0.1391,0.1391,0.1391,0.1391,0.1391,0.1391,0.1391,0.1391,0.1391,0.1391,0.1391,0.1391,0.1391,0.1391,0.1391,0.1391,0.1391,0.1391,0.1391,0.1391,0.1972,0.3844,0.4198,0.4747,0.6516,0.68,0.679,0.6722,0.6702,0.6702,0.6702,0.6824,0.6869,0.6869,0.6987,0.7065,0.7065,0.7075,0.7082,0.7082,0.7092,0.7095,0.7095,0.7095,0.7095,0.7095,0.7095,0.7095,0.7095,0.7095,0.7095,0.7095,0.7095,0.7095,0.7095,0.7095,0.7095,0.7095,0.7095,0.7095,0.7095,0.7095,0.7095,0.7095,0.7095,0.7095,0.7095,0.1617,0.1617,0.1617,0.1617,0.1617,0.1617,0.1617,0.1617,0.1617,0.1617,0.1617,0.1617,0.1617,0.1617,0.1617,0.1617,0.1617,0.1617,0.1617,0.1617,0.1617,0.1617,0.1617,0.1617,0.1617,0.1576,0.1545,0.1478,0.1484,0.1454,0.1391,0.1391,0.1391,0.1391,0.1391,0.1391,0.1391,0.1391,0.1391,0.1391,0.1391,0.1391,0.1391,0.1391,0.1391,0.1391,0.1391,0.1391,0.1391,0.1391,0.1391,0.1391,0.1391,0.1391,0.1391,0.1391,0.1391,0.1391,0.1391,0.1391,0.1391,0.1391,0.1391,0.1391,0.1391,0.1391,0.1391,0.1391,0.1391,0.2016,0.3933,0.4289,0.4898,0.6715,0.7014,0.6997,0.694,0.693,0.693,0.693,0.698,0.7014,0.7014,0.7065,0.7095,0.7095,0.7095,0.7095,0.7095,0.7095,0.7095,0.7095,0.7095,0.7095,0.7095,0.7095,0.7095,0.7095,0.7095,0.7095,0.7095,0.7095,0.7095,0.7095,0.7095,0.7095,0.7095,0.7095,0.7095,0.7095,0.7095,0.7095,0.7095,0.7095,0.7095,0.7095,0.1617,0.1617,0.1617,0.1617,0.1617,0.1617,0.1617,0.1617,0.1617,0.1617,0.1617,0.1617,0.1617,0.1617,0.1617,0.1617,0.1617,0.1617,0.1617,0.1617,0.1617,0.1617,0.1617,0.1617,0.1617,0.1587,0.1556,0.1478,0.1495,0.1465,0.1391,0.1391,0.1391,0.1391,0.1391,0.1391,0.1391,0.1391,0.1391,0.1391,0.1391,0.1391,0.1391,0.1391,0.1391,0.1391,0.1391,0.1391,0.1391,0.1391,0.1391,0.1391,0.1391,0.1391,0.1391,0.1391,0.1391,0.1391,0.1391,0.1391,0.1391,0.1391,0.1391,0.1391,0.1391,0.1391,0.148,0.1793,0.1883,0.2463,0.4378,0.4734,0.527,0.683,0.7095,0.7095,0.7095,0.7095,0.7095,0.7095,0.7095,0.7095,0.7095,0.7095,0.7095,0.7095,0.7095,0.7095,0.7095,0.7095,0.7095,0.7095,0.7095,0.7075,0.7031,0.7031,0.7031,0.7031,0.6984,0.6957,0.6957,0.6957,0.6984,0.7031,0.7031,0.7055,0.7095,0.7095,0.7095,0.7095,0.7095,0.7095,0.7095,0.7095,0.7095,0.7095,0.1617,0.1617,0.1617,0.1617,0.1617,0.1617,0.1617,0.1617,0.1617,0.1617,0.1617,0.1617,0.1617,0.1617,0.1617,0.1617,0.1617,0.1617,0.1617,0.1617,0.1617,0.1617,0.1617,0.1617,0.1617,0.1587,0.1557,0.1478,0.1496,0.1466,0.1391,0.1391,0.1391,0.1391,0.1391,0.1391,0.1391,0.1391,0.1391,0.1391,0.1391,0.1391,0.1391,0.1391,0.1391,0.1391,0.1391,0.1391,0.1391,0.1391,0.1391,0.1391,0.1391,0.1391,0.1391,0.1391,0.1391,0.1391,0.1391,0.1391,0.1391,0.1391,0.1391,0.1391,0.1391,0.1391,0.1704,0.2688,0.2911,0.3492,0.5364,0.5675,0.5985,0.6962,0.7095,0.7095,0.7095,0.7095,0.7095,0.7095,0.7095,0.7095,0.7095,0.7095,0.7095,0.7095,0.7095,0.7095,0.7095,0.7095,0.7095,0.7095,0.7095,0.7028,0.6886,0.6886,0.6886,0.6883,0.6773,0.6702,0.6702,0.6702,0.6783,0.6883,0.6883,0.6964,0.7095,0.7095,0.7095,0.7095,0.7095,0.7095,0.7095,0.7095,0.7095,0.7095,0.1617,0.1617,0.1617,0.1617,0.1617,0.1617,0.1617,0.1617,0.1617,0.1617,0.1617,0.1617,0.1617,0.1617,0.1617,0.1617,0.1617,0.1617,0.1617,0.1617,0.1617,0.1617,0.1617,0.1617,0.1617,0.1608,0.1589,0.1558,0.1528,0.1497,0.1467,0.14,0.1391,0.1391,0.1391,0.1525,0.166,0.148,0.1615,0.193,0.157,0.1525,0.166,0.148,0.1391,0.1391,0.1391,0.1391,0.1391,0.1391,0.1391,0.1391,0.1391,0.1391,0.1391,0.1391,0.1391,0.1391,0.1391,0.1391,0.1391,0.1391,0.1391,0.1391,0.1391,0.1391,0.148,0.1793,0.2419,0.3267,0.4514,0.5272,0.5985,0.6962,0.7095,0.7095,0.7095,0.7095,0.7095,0.7095,0.7095,0.7095,0.7095,0.7095,0.7095,0.7095,0.7095,0.7095,0.7095,0.7095,0.7095,0.7095,0.7001,0.6927,0.6886,0.6886,0.6832,0.6766,0.6722,0.6702,0.6702,0.6702,0.6725,0.677,0.677,0.6854,0.695,0.695,0.7007,0.7095,0.7095,0.7095,0.7095,0.7095,0.7095,0.7095,0.1617,0.1617,0.1617,0.1617,0.1617,0.1617,0.1617,0.1617,0.1617,0.1617,0.1617,0.1617,0.1617,0.1617,0.1617,0.1617,0.1617,0.1617,0.1617,0.1617,0.1617,0.1617,0.1617,0.1617,0.1617,0.1617,0.1602,0.162,0.1541,0.151,0.148,0.145,0.1391,0.1391,0.1391,0.148,0.166,0.157,0.1705,0.1884,0.166,0.157,0.1615,0.148,0.1391,0.1391,0.1391,0.1391,0.1391,0.1391,0.1391,0.1391,0.1391,0.1391,0.1391,0.1391,0.1391,0.1391,0.1391,0.1391,0.1391,0.1391,0.1391,0.1391,0.1391,0.1704,0.2107,0.2462,0.3312,0.4293,0.5225,0.5849,0.6413,0.6933,0.7014,0.7014,0.7014,0.7014,0.7034,0.7088,0.7095,0.7095,0.7095,0.7095,0.7095,0.7095,0.7095,0.7095,0.7095,0.7095,0.7068,0.7014,0.693,0.6871,0.6878,0.6878,0.6788,0.661,0.6552,0.6566,0.6643,0.6566,0.66,0.6736,0.6651,0.6698,0.6844,0.6862,0.6937,0.7018,0.721,0.7279,0.7279,0.7363,0.7363,0.7279,0.1617,0.1617,0.1617,0.1617,0.1617,0.1617,0.1617,0.1617,0.1617,0.1617,0.1617,0.1617,0.1617,0.1617,0.1617,0.1617,0.1617,0.1617,0.1617,0.1617,0.1617,0.1617,0.1617,0.1617,0.1617,0.1617,0.1603,0.1576,0.1545,0.1515,0.1484,0.1453,0.1393,0.1391,0.1436,0.1436,0.1436,0.1705,0.1705,0.1525,0.1749,0.1705,0.148,0.148,0.148,0.148,0.1436,0.1436,0.1436,0.1391,0.1391,0.1391,0.1391,0.1391,0.1391,0.1391,0.1391,0.1391,0.1391,0.1391,0.1391,0.1391,0.148,0.1524,0.1436,0.2196,0.3135,0.3978,0.5003,0.5941,0.683,0.7041,0.7034,0.6906,0.6873,0.6866,0.6866,0.6876,0.6933,0.7061,0.7088,0.7095,0.7095,0.7095,0.7095,0.7095,0.7095,0.7095,0.7095,0.7085,0.7018,0.6889,0.6902,0.6843,0.6805,0.6788,0.6737,0.6531,0.64,0.6451,0.6637,0.6451,0.6528,0.6817,0.6614,0.662,0.6733,0.689,0.6958,0.6985,0.7399,0.7551,0.7547,0.7812,0.7724,0.7551,0.1617,0.1617,0.1617,0.1617,0.1617,0.1617,0.1617,0.1617,0.1617,0.1617,0.1617,0.1617,0.1617,0.1617,0.1617,0.1617,0.1617,0.1617,0.1617,0.1617,0.1617,0.1617,0.1617,0.1617,0.1617,0.1617,0.1613,0.1607,0.1577,0.1546,0.1515,0.1485,0.1458,0.1391,0.1615,0.1705,0.1749,0.2019,0.2154,0.2243,0.2154,0.2154,0.2243,0.2109,0.2019,0.2019,0.1794,0.1705,0.166,0.148,0.1391,0.1391,0.1391,0.1391,0.1391,0.1391,0.1391,0.1391,0.1391,0.1391,0.1391,0.1391,0.1973,0.2376,0.1569,0.2196,0.2956,0.3178,0.4516,0.5764,0.5985,0.6524,0.692,0.6889,0.6827,0.6749,0.6749,0.6854,0.6896,0.6927,0.7028,0.7095,0.7095,0.7095,0.7095,0.7095,0.7095,0.7095,0.7095,0.6991,0.6916,0.6886,0.6867,0.6829,0.6802,0.687,0.6839,0.68,0.6767,0.6791,0.6826,0.6791,0.681,0.6878,0.6839,0.6896,0.702,0.7225,0.7365,0.7493,0.7701,0.7812,0.7812,0.79,0.7856,0.7812,0.1617,0.1617,0.1617,0.1617,0.1617,0.1617,0.1617,0.1617,0.1617,0.1617,0.1617,0.1617,0.1617,0.1617,0.1617,0.1617,0.1617,0.1617,0.1617,0.1617,0.1617,0.1617,0.1617,0.1617,0.1617,0.1617,0.1617,0.1617,0.1586,0.1555,0.1478,0.1495,0.1464,0.1391,0.1525,0.166,0.1839,0.2064,0.2244,0.2334,0.2334,0.2334,0.2334,0.2243,0.2109,0.1974,0.1839,0.1705,0.157,0.1436,0.1391,0.1391,0.1391,0.1391,0.1391,0.1391,0.1391,0.1391,0.1391,0.1391,0.1391,0.1391,0.1793,0.2152,0.2107,0.3154,0.414,0.414,0.5239,0.6196,0.6196,0.6528,0.6797,0.6722,0.6644,0.6593,0.6593,0.6661,0.6736,0.681,0.6906,0.7021,0.7088,0.7095,0.7095,0.7095,0.7095,0.7095,0.7095,0.6964,0.6934,0.6947,0.6845,0.6846,0.7006,0.7029,0.7138,0.7336,0.7057,0.6942,0.7022,0.6942,0.6942,0.7022,0.6942,0.6952,0.7014,0.7304,0.7458,0.7555,0.7886,0.8028,0.8072,0.8208,0.8164,0.8028,0.1617,0.1617,0.1617,0.1617,0.1617,0.1617,0.1617,0.1617,0.1617,0.1617,0.1617,0.1617,0.1617,0.1617,0.1617,0.1617,0.1617,0.1617,0.1617,0.1617,0.1617,0.1617,0.1617,0.1617,0.1617,0.1617,0.1617,0.1617,0.1592,0.1564,0.1534,0.1555,0.1523,0.1488,0.1578,0.171,0.1885,0.2199,0.2289,0.2289,0.2469,0.2469,0.2334,0.2334,0.2199,0.1974,0.193,0.1705,0.148,0.148,0.1436,0.1391,0.1391,0.1391,0.1391,0.1391,0.1391,0.1436,0.1614,0.1659,0.1704,0.1837,0.2016,0.2374,0.3178,0.4366,0.5351,0.548,0.6175,0.6776,0.6776,0.6756,0.6698,0.6569,0.6569,0.6552,0.6552,0.6573,0.6597,0.6725,0.6871,0.6967,0.7085,0.7095,0.7095,0.7095,0.7095,0.7139,0.7187,0.705,0.6995,0.711,0.7001,0.7056,0.727,0.7309,0.7497,0.7841,0.7328,0.7184,0.7344,0.7184,0.7169,0.7305,0.7142,0.7045,0.7042,0.7358,0.7465,0.756,0.8037,0.8221,0.8292,0.852,0.8472,0.8248,0.1617,0.1617,0.1617,0.1617,0.1617,0.1617,0.1617,0.1617,0.1617,0.1617,0.1617,0.1617,0.1617,0.1617,0.1617,0.1617,0.1617,0.1617,0.1617,0.1617,0.1617,0.1617,0.1617,0.1617,0.1617,0.1617,0.1617,0.1617,0.1613,0.1595,0.1614,0.1805,0.1864,0.1751,0.2213,0.2328,0.2154,0.2604,0.2649,0.2469,0.2739,0.2829,0.2784,0.2784,0.2784,0.2739,0.2469,0.2109,0.1749,0.1749,0.157,0.1391,0.1391,0.1391,0.1391,0.1391,0.1391,0.1569,0.2465,0.2688,0.2911,0.371,0.4514,0.5139,0.5272,0.4858,0.4714,0.5518,0.6389,0.7038,0.7038,0.6937,0.6849,0.6829,0.6756,0.6668,0.6668,0.6783,0.6832,0.6852,0.698,0.7075,0.7095,0.7095,0.7095,0.7095,0.7095,0.7187,0.7415,0.731,0.7339,0.7523,0.7579,0.7607,0.762,0.7821,0.7914,0.7979,0.7873,0.7861,0.7902,0.7861,0.7821,0.7724,0.7684,0.7591,0.7423,0.7668,0.7801,0.7954,0.8201,0.8383,0.8564,0.8568,0.8568,0.852,0.1617,0.1617,0.1617,0.1617,0.1617,0.1617,0.1617,0.1617,0.1617,0.1617,0.1617,0.1617,0.1617,0.1617,0.1617,0.1617,0.1617,0.1617,0.1617,0.1617,0.1617,0.1617,0.1617,0.1617,0.1617,0.1617,0.1617,0.1617,0.1617,0.1601,0.162,0.1866,0.1936,0.1883,0.226,0.2422,0.2421,0.265,0.2723,0.2739,0.2873,0.292,0.292,0.292,0.2829,0.2649,0.2424,0.2199,0.2019,0.1839,0.1705,0.1615,0.1615,0.1615,0.166,0.1794,0.2196,0.2597,0.251,0.3267,0.4067,0.3933,0.4601,0.5445,0.598,0.5753,0.5648,0.625,0.6651,0.6895,0.6895,0.6844,0.68,0.68,0.6746,0.6702,0.6702,0.6759,0.6831,0.6876,0.694,0.7011,0.7088,0.7095,0.7143,0.7323,0.7323,0.7455,0.7724,0.7566,0.7564,0.7777,0.7738,0.7773,0.7851,0.7971,0.8065,0.817,0.817,0.8113,0.8012,0.8012,0.7971,0.7898,0.7841,0.7751,0.7686,0.7767,0.7858,0.8032,0.8219,0.8402,0.8612,0.8612,0.8612,0.8612]}]]